     2              OBSERVATION DATA    GPS                 RINEX VERSION / TYPE
teqc 2000Feb29 simon 20000628 04:00:40UTC                   PGM / RUN BY / DATE
                                                            COMMENT
L2: 1 -> 1; 150 -> 5; 250 -> 9                              COMMENT
L2: 1 -> 1; 150 -> 5; 250 -> 9                              COMMENT
L2: 1 -> 1; 150 -> 5; 250 -> 9                              COMMENT
L2: 1 -> 1; 150 -> 5; 250 -> 9                              COMMENT
L2: 1 -> 1; 150 -> 5; 250 -> 9                              COMMENT
Original Marker Name: GS45                                  COMMENT
Campaign Name: China Lake April 2000                        COMMENT
4-Character Station Name: GS45                              COMMENT
6-Character Antenna Code: ASHGD3                            COMMENT
Vertical Measurement Point: TGP                             COMMENT
Vertical Offset to Rinex Ref. Point: 0.0640                 COMMENT
Radial Measurement Point: OOH                               COMMENT
Radial Offset to Rinex Ref. Point: 0.1737                   COMMENT
Antenna Height from Field Measurement: 1.3810 m             COMMENT
Additional Antenna Identification Info.:                    COMMENT
The Whopper (700718AB)                                      COMMENT
Original XYZ: -2418330.8300 -4605003.7200 3681218.2500      COMMENT
New XYZ position is based on association with SCEC monument COMMENT
E1F4N5R3+0011. Position of that monument is believed to be  COMMENT
valid to within 1 m horizontally; vertical accuracy         COMMENT
should be no worse than 3-times this value.                 COMMENT
                                                            COMMENT
Revised Rinex header created by UCSD GPS archive for        COMMENT
GSAC on 14-Sep-2001 (2001:257) 21:01:46 GMT                 COMMENT
For assistance contact dagnew@ucsd.edu                      COMMENT
or anderson@python.ucsd.edu                                 COMMENT
                                                            COMMENT
NONE                                                        MARKER NAME
gs45                                                        MARKER NUMBER
NLT US NATIONAL IMAGERY MAPPING AGENCY                      OBSERVER / AGENCY
456 ASHTECH Z-XII3 1I23                                     REC # / TYPE / VERS
443 ASHTECH GEODETIC III                                    ANT # / TYPE
 -2390514.9892 -4580994.6305  3729376.9877                  APPROX POSITION XYZ
        1.3060        0.0000        0.0000                  ANTENNA: DELTA H/E/N
     1     1     0                                          WAVELENGTH FACT L1/2
     7    L1    L2    C1    P1    P2    S1    S2            # / TYPES OF OBSERV
    30                                                      INTERVAL
  2000     5    25    13    38    0.000000                  TIME OF FIRST OBS
  2000     5    25    21    31   30.000000                  TIME OF LAST OBS
                                                            END OF HEADER
 00  5 25 13 38  0.0000000  0  4G 2G 8G 7G26
     -3170.30657                  18064965.835                    18064972.877
       238.000         205.000
     16459.97153                  20161477.283
       218.000          74.000
     -5322.79957                  17199435.308                    17199442.215
       232.000         205.000
      1467.98453                  19770663.419
       228.000          78.000
 00  5 25 13 38 30.0000000  0  4G 2G 8G 7G26
    -15483.76849    -10000.19947  18063298.261    18063297.471    18063305.031
       238.000         205.000
     75435.81944                  20175905.217
       217.000         124.000
    -25838.78149    -16710.44147  17196654.490    17196653.593    17196661.271
       232.000         205.000
     20531.07146                  19775319.147                    19775326.819
       230.000         184.000
 00  5 25 13 38 59.9990000  0  4G 2G 8G 7G26
    -24182.40749    -16778.37647  21359359.299    21359359.154    21359366.803
       238.000         205.000
    134384.27044                  23488055.514
       217.000         126.000
    -40222.77749    -27918.77347  20491634.350    20491633.526    20491641.159
       233.000         205.000
     56111.12049     39755.67746  23077731.366    23077731.073    23077739.072
       229.000         184.000
 00  5 25 13 39 29.9990000  0  4G 2G 8G 7G26
    -32823.33059    -23511.57557  21357715.838    21357714.879    21357722.510
       238.000         206.000
     12455.67443                  23502504.404
       217.000          74.000
    -54391.84259    -38959.61757  20488937.426    20488937.312    20488944.878
       233.000         205.000
     81005.29149     59153.67446  23082467.361    23082468.212    23082476.416
       229.000         184.000
 00  5 25 13 39 59.9990000  0  4G 2G 8G 7G26
    -41397.81449    -30193.00747  21356084.029    21356083.256    21356090.870
       238.000         205.000
     71664.88546                  23516964.416                    23516973.705
       219.000         169.000
    -68337.18649    -49826.13847  20486283.935    20486283.620    20486291.179
       233.000         206.000
    106113.86259     78718.72756  23087245.627    23087246.186    23087254.410
       229.000         183.000
 00  5 25 13 40 29.9990000  0  4G 2G 8G 7G26
    -49881.21349    -36803.45747  21354469.630    21354468.935    21354476.531
       238.000         205.000
    415003.57049    130933.81446  23531438.827    23531438.394    23531448.293
       220.000         169.000
    -82036.05449    -60500.59547  20483677.317    20483676.830    20483684.407
       234.000         206.000
    131458.37649     98467.64446  23092068.754    23092069.071    23092077.354
       228.000         183.000
 00  5 25 13 40 59.9990000  0  4G 2G 8G 7G26
    -58265.28149    -43336.51847  21352874.224    21352873.548    21352881.144
       239.000         205.000
    491148.21559    190267.16856  23545928.784    23545928.708    23545938.158
       219.000         168.000
    -95482.28749    -70978.19147  20481118.570    20481118.115    20481125.685
       233.000         206.000
    157043.89349    118404.35446  23096937.555    23096937.857    23096946.135
       229.000         183.000
 00  5 25 13 41 29.9990000  0  4G 2G 8G 7G26
    -66544.91049    -49788.18547  21351298.634    21351298.001    21351305.613
       238.000         205.000
    567377.86549    249666.74646  23560434.845    23560434.587    23560444.235
       217.000         165.000
   -108672.81349    -81256.53447  20478608.602    20478608.113    20478615.632
       235.000         207.000
    182872.25549    138530.28646  23101852.598    23101852.858    23101861.168
       229.000         183.000
 00  5 25 13 41 59.9990000  0  4G 2G 8G 7G26
    -74691.22649    -56135.98247  21349748.394    21349747.835    21349755.449
       239.000         205.000
    643718.60949    309152.90746  23574962.101    23574961.734    23574971.374
       217.000         166.000
   -121580.87649    -91314.78047  20476152.364    20476151.828    20476159.399
       234.000         207.000
    208968.91949    158865.28646  23106818.771    23106818.927    23106827.253
       228.000         183.000
 00  5 25 13 42 29.9990000  0  4G 2G 8G 7G26
    -82714.83849    -62388.15647  21348221.643    21348221.041    21348228.655
       239.000         206.000
    720157.32749    368715.38746  23589508.057    23589507.701    23589517.273
       217.000         166.000
   -134218.80149   -101162.53047  20473747.481    20473746.942    20473754.543
       235.000         208.000
    235320.22049    179398.70646  23111833.239    23111833.417    23111841.815
       227.000         184.000
 00  5 25 13 42 59.9990000  0  4G 2G 8G 7G26
    -90601.61349    -68533.71447  21346720.877    21346720.304    21346727.879
       239.000         206.000
    796705.17249    428362.89846  23604074.774    23604074.377    23604084.047
       217.000         168.000
   -146574.75349   -110790.55947  20471396.320    20471395.754    20471403.352
       235.000         207.000
    261936.92149    200138.91946  23116898.262    23116898.448    23116906.872
       228.000         184.000
 00  5 25 13 43 29.9990000  0  4G 2G 8G 7G26
    -98351.41249    -74572.54647  21345246.202    21345245.641    21345253.130
       239.000         206.000
    873359.94249    488093.74846  23618661.780    23618661.388    23618671.177
       214.000         165.000
   -158650.86549   -120200.53347  20469098.291    20469097.737    20469105.386
       234.000         207.000
    288815.67949    221083.33946  23122013.169    23122013.387    23122021.814
       229.000         185.000
 00  5 25 13 43 59.9990000  0  4G 2G 8G 7G26
   -105972.82049    -80511.32347  21343795.898    21343795.367    21343802.899
       239.000         206.000
    950110.24249    547899.03346  23633267.036    23633266.605    23633276.368
       217.000         166.000
   -170457.49849   -129400.52847  20466851.572    20466851.022    20466858.647
       234.000         207.000
    315944.86049    242222.89146  23127175.976    23127176.125    23127184.496
       231.000         186.000
 00  5 25 13 44 29.9990000  0  4G 2G 8G 7G26
   -113432.40049    -86323.98947  21342376.421    21342375.894    21342383.448
       238.000         205.000
   1026986.65949    607802.60446  23647896.287    23647895.837    23647905.642
       217.000         165.000
   -181963.45349   -138366.22547  20464662.100    20464661.535    20464669.135
       235.000         207.000
    343354.28849    263580.80846  23132392.102    23132392.172    23132400.477
       229.000         185.000
 00  5 25 13 44 59.9990000  0  4G 2G 8G 7G26
   -120712.30449    -91996.64947  21340991.136    21340990.590    21340998.159
       238.000         205.000
   1104004.40349    667816.28645  23662552.432    23662551.922    23662561.587
       215.000         161.000
   -193153.04449   -147085.39847  20462532.810    20462532.237    20462539.809
       235.000         207.000
    371058.52349    285168.45846  23137664.045    23137664.150    23137672.544
       226.000         182.000
 00  5 25 13 45 29.9990000  0  4G 2G 8G 7G26
   -127816.84549    -97532.66347  21339639.205    21339638.644    21339646.239
       238.000         205.000
   1181156.47449    727934.63246  23677234.087    23677233.544    23677243.232
       216.000         164.000
   -204032.67249   -155563.03947  20460462.511    20460461.970    20460469.509
       236.000         208.000
    399050.06149    306979.98146  23142990.568    23142990.672    23142999.293
       226.000         183.000
 00  5 25 13 45 59.9990000  0  4G 2G 8G 7G26
   -134729.20249   -102918.92847  21338323.859    21338323.274    21338330.917
       238.000         205.000
   1258456.68249    788168.39845  23691943.922    23691943.302    23691953.120
       217.000         159.000
   -214587.62649   -163787.68547  20458454.024    20458453.483    20458460.966
       236.000         207.000
    427342.14249    329025.67546  23148374.218    23148374.419    23148383.244
       226.000         183.000
 00  5 25 13 46 29.9990000  0  4G 2G 8G 7G26
   -141438.73449   -108147.13847  21337047.050    21337046.513    21337054.163
       237.000         205.000
   1335913.51249    848524.20545  23706683.299    23706682.772    23706692.603
       215.000         158.000
   -224809.11349   -171752.48947  20456509.017    20456508.459    20456515.904
       235.000         207.000
    455942.35749    351311.48446  23153816.746    23153816.982    23153825.812
       228.000         183.000
 00  5 25 13 46 59.9990000  0  4G 2G 8G 7G26
   -147937.42449   -113211.06447  21335810.395    21335809.871    21335817.514
       238.000         205.000
   1413532.00949    909006.01045  23721453.518    23721453.000    23721463.066
       215.000         160.000
   -234691.37249   -179452.96247  20454628.477    20454627.935    20454635.424
       235.000         206.000
    484855.29049    373840.96446  23159318.897    23159319.097    23159327.891
       227.000         184.000
 00  5 25 13 47 29.9990000  0  4G 2G 8G 7G26
   -154199.16349   -118090.35447  21334618.860    21334618.316    21334625.991
       238.000         205.000
   1491335.50049    969631.94845  23736259.012    23736258.507    23736268.793
       214.000         157.000
   -244210.55549   -186870.52447  20452817.055    20452816.508    20452824.002
       234.000         206.000
    514103.39649    396631.61946  23164884.726    23164884.889    23164893.686
       228.000         184.000
 00  5 25 13 47 59.9990000  0  4G 2G 8G 7G26
   -160213.01749   -122776.49447  21333474.467    21333473.941    21333481.637
       239.000         206.000
   1569332.06049   1030408.34045  23751101.186    23751100.722    23751111.210
       210.000         154.000
   -253357.87249   -193998.32047  20451076.440    20451075.868    20451083.354
       235.000         207.000
    543694.45149    419689.50846  23170515.815    23170516.008    23170524.661
       229.000         183.000
 00  5 25 13 48 29.9990000  0  4G 2G 8G 7G26
   -165966.96649   -127260.11647  21332379.602    21332379.055    21332386.730
       239.000         206.000
   1647531.10449   1091342.50445  23765981.912    23765981.451    23765992.138
       211.000         157.000
   -262123.35649   -200828.58147  20449408.469    20449407.891    20449415.343
       235.000         207.000
    573637.05249    443021.32546  23176213.804    23176213.972    23176222.577
       228.000         183.000
 00  5 25 13 48 59.9990000  0  5G 2G 8G 7G26G 9
   -171461.10249   -131541.28147  21331334.185    21331333.619    21331341.305
       239.000         206.000
   1725929.92649   1152432.30645  23780900.843    23780900.345    23780911.189
       210.000         155.000
   -270509.11849   -207362.94547  20447812.694    20447812.146    20447819.602
       235.000         207.000
    603927.63049    466624.29646  23181977.989    23181978.180    23181986.679
       229.000         183.000
   -302119.77059   -218076.94957  22412549.385    22412548.994    22412557.404
       231.000         190.000
 00  5 25 13 49 29.9990000  0  5G 2G 8G 7G26G 9
   -176665.16449   -135596.42247  21330343.998    21330343.393    21330351.072
       240.000         206.000
   1804555.81649   1213699.06745  23795863.309    23795862.723    23795873.261
       214.000         153.000
   -278487.28149   -213579.70147  20446294.519    20446293.982    20446301.434
       236.000         207.000
    634593.02449    490519.31946  23187813.538    23187813.695    23187822.215
       229.000         184.000
   -414433.94859   -305594.46757  22391176.030    22391176.284    22391184.755
       232.000         191.000
 00  5 25 13 49 59.9990000  0  6G 2G 4G 8G 7G26G 9
   -181571.95149   -139419.91347  21329410.400    21329409.739    21329417.350
       239.000         205.000
   -385556.89959   -283903.44456  22248736.619    22248737.815    22248745.927
       229.000         181.000
   1883413.44549   1275146.39845  23810869.811    23810869.151    23810879.519
       213.000         156.000
   -286052.63149   -219474.79047  20444854.910    20444854.358    20444861.827
       235.000         206.000
    665636.97849    514709.32846  23193721.100    23193721.288    23193729.862
       229.000         183.000
   -526347.52249   -392799.83447  22369879.961    22369879.895    22369888.348
       233.000         191.000
 00  5 25 13 50 29.9990000  0  6G 2G 4G 8G 7G26G 9
   -186176.50049   -143007.88947  21328534.207    21328533.546    21328541.183
       238.000         205.000
   -511511.74859   -382050.03656  22224767.446    22224769.388    22224777.456
       229.000         181.000
   1962504.64149   1336775.71645  23825920.350    23825919.735    23825930.176
       209.000         150.000
   -293202.45549   -225046.09347  20443494.379    20443493.812    20443501.233
       235.000         205.000
    697061.09949    539195.57846  23199700.970    23199701.190    23199709.754
       229.000         183.000
   -637853.57049   -479687.64647  22348661.104    22348660.997    22348669.451
       233.000         191.000
 00  5 25 13 50 59.9990000  0  6G 2G 4G 8G 7G26G 9
   -190473.88449   -146356.52247  21327716.495    21327715.807    21327723.485
       238.000         205.000
   -637100.13549   -479911.06146  22200869.376    22200870.653    22200878.797
       231.000         182.000
   2041832.09849   1398589.12945  23841016.086    23841015.665    23841025.764
       215.000         158.000
   -299933.67449   -230291.21547  20442213.444    20442212.877    20442220.340
       235.000         206.000
    728867.08149    563979.37046  23205753.651    23205753.780    23205762.346
       228.000         182.000
   -748945.23749   -566252.56547  22327521.106    22327520.952    22327529.391
       233.000         191.000
 00  5 25 13 51 29.9990000  0  6G 2G 4G 8G 7G26G 9
   -194443.51849   -149449.76747  21326961.102    21326960.418    21326968.103
       238.000         205.000
   -762298.97349   -577468.57546  22177045.119    22177046.068    22177054.264
       230.000         182.000
   2121413.60649   1460600.53745  23856160.429    23856159.994    23856169.752
       213.000         155.000
   -306227.92449   -235195.84147  20441015.729    20441015.143    20441022.593
       235.000         206.000
    761072.11649    589074.11546  23211882.128    23211882.241    23211890.786
       226.000         181.000
   -859600.04049   -652477.07247  22306464.209    22306464.051    22306472.432
       233.000         191.000
 00  5 25 13 51 59.9990000  0  6G 2G 4G 8G 7G26G 9
   -198083.17649   -152285.87947  21326268.482    21326267.817    21326275.531
       238.000         205.000
   -887104.10849   -674719.29946  22153295.702    22153296.412    22153304.640
       228.000         183.000
   2201248.27749   1522809.23545  23871352.806    23871352.294    23871362.174
       215.000         161.000
   -312085.47249   -239760.18247  20439901.093    20439900.497    20439907.948
       235.000         205.000
    793674.48949    614478.47746  23218086.110    23218086.266    23218094.899
       225.000         179.000
   -969814.37349   -738358.34747  22285491.130    22285490.973    22285499.284
       233.000         192.000
 00  5 25 13 52 29.9990000  0  6G 2G 4G 8G 7G26G 9
   -201393.74549   -154865.55547  21325638.520    21325637.883    21325645.587
       238.000         205.000
  -1011513.70349   -771661.79446  22129621.457    22129622.065    22129630.308
       231.000         184.000
   2281332.41249   1585212.25545  23886592.535    23886592.011    23886602.030
       214.000         161.000
   -317509.21449   -243986.49647  20438868.980    20438868.432    20438875.852
       236.000         206.000
    826670.17249    640189.30846  23224364.972    23224365.156    23224373.761
       225.000         177.000
  -1079587.51049   -823895.83547  22264602.003    22264601.853    22264610.127
       234.000         191.000
 00  5 25 13 52 59.9990000  0  6G 2G 4G 8G 7G26G 9
   -204391.67849   -157201.62547  21325068.116    21325067.457    21325075.142
       239.000         205.000
  -1135541.70749   -868306.95646  22106019.927    22106020.350    22106028.578
       229.000         184.000
   2361647.18849   1647794.99745  23901876.287    23901875.661    23901885.694
       217.000         162.000
   -322517.72449   -247889.24947  20437915.948    20437915.383    20437922.770
       236.000         206.000
    860039.29049    666191.13146  23230714.967    23230715.139    23230723.776
       226.000         178.000
  -1188933.88549   -909100.79547  22243794.084    22243793.968    22243802.121
       235.000         191.000
 00  5 25 13 53 29.9990000  0  6G 2G 4G 8G 7G26G 9
   -207073.86949   -159291.66747  21324557.777    21324557.111    21324564.787
       239.000         205.000
  -1259182.42349   -964650.33046  22082491.921    22082492.321    22082500.553
       229.000         185.000
   2442192.74549   1710557.59545  23917203.974    23917203.347    23917213.331
       215.000         161.000
   -327110.00349   -251467.67047  20437042.133    20437041.560    20437048.940
       236.000         206.000
    893781.39549    692483.60546  23237135.924    23237136.134    23237144.792
       227.000         180.000
  -1297848.65249   -993969.42947  22223068.356    22223068.227    22223076.242
       235.000         192.000
 00  5 25 13 53 59.9990000  0  6G 2G 4G 8G 7G26G 9
   -209431.73549   -161128.98347  21324109.105    21324108.461    21324116.149
       238.000         205.000
  -1382424.95749  -1060683.42546  22059039.727    22059040.063    22059048.303
       230.000         186.000
   2522975.21849   1773504.77945  23932576.484    23932575.934    23932585.860
       212.000         160.000
   -331279.41649   -254716.57247  20436248.783    20436248.173    20436255.568
       236.000         206.000
    927901.87649    719070.91446  23243628.893    23243629.076    23243637.841
       226.000         179.000
  -1406321.25849  -1078493.51247  22202426.769    22202426.576    22202434.537
       235.000         193.000
 00  5 25 13 54 29.9990000  0  6G 2G 4G 8G 7G26G 9
   -211473.73349   -162720.17447  21323720.480    21323719.895    21323727.601
       238.000         205.000
  -1505275.26549  -1156410.89546  22035662.065    22035662.352    22035670.709
       232.000         186.000
   2603983.07949   1836627.58345  23947991.837    23947991.341    23948001.368
       216.000         162.000
   -335036.95149   -257644.53347  20435533.728    20435533.132    20435540.558
       235.000         206.000
    962388.47249    745943.50246  23250191.499    23250191.685    23250200.531
       226.000         179.000
  -1514358.81249  -1162678.59447  22181867.948    22181867.744    22181875.680
       235.000         194.000
 00  5 25 13 54 59.9990000  0  6G 2G 4G 8G 7G26G 9
   -213187.85549   -164055.87047  21323394.303    21323393.675    21323401.464
       238.000         205.000
  -1627718.90149  -1251821.48246  22012361.873    22012362.120    22012370.497
       231.000         187.000
   2685225.58049   1899933.26545  23963451.778    23963451.363    23963461.634
       216.000         160.000
   -338372.55949   -260243.72347  20434898.948    20434898.373    20434905.847
       235.000         206.000
    997249.97449    773108.23146  23256825.542    23256825.715    23256834.589
       228.000         180.000
  -1621947.27749  -1246513.72147  22161394.551    22161394.315    22161402.281
       234.000         193.000
 00  5 25 13 55 29.9990000  0  6G 2G 4G 8G 7G26G 9
   -214590.26749   -165148.68447  21323127.365    21323126.824    21323134.629
       238.000         205.000
  -1749769.63249  -1346925.91446  21989136.545    21989136.719    21989145.123
       232.000         187.000
   2766683.81049   1963407.03745  23978952.996    23978952.570    23978962.786
       216.000         158.000
   -341304.83649   -262528.63247  20434341.007    20434340.400    20434347.878
       235.000         206.000
   1032466.30749    800549.43146  23263527.145    23263527.285    23263536.141
       227.000         180.000
  -1729101.40149  -1330010.42847  22141003.725    22141003.581    22141011.555
       234.000         194.000
 00  5 25 13 55 59.9990000  0  6G 2G 4G 8G 7G26G 9
   -215677.60049   -165995.98647  21322920.479    21322919.951    21322927.703
       239.000         205.000
  -1871421.96249  -1441719.90447  21965986.991    21965987.137    21965995.558
       232.000         189.000
   2848358.14049   2027049.18945  23994495.163    23994494.706    23994505.059
       208.000         156.000
   -343832.39049   -264498.16647  20433860.075    20433859.480    20433866.932
       236.000         206.000
   1068037.77149    828267.36646  23270296.365    23270296.476    23270305.215
       228.000         181.000
  -1835815.87849  -1413164.54347  22120696.754    22120696.573    22120704.499
       234.000         194.000
 00  5 25 13 56 29.9990000  0  6G 2G 4G 8G 7G26G 9
   -216460.21849   -166605.84247  21322771.570    21322771.059    21322778.848
       238.000         205.000
  -1992683.39749  -1536209.30647  21942911.743    21942911.897    21942920.234
       228.000         188.000
   2930235.92749   2090849.82745  24010075.749    24010075.462    24010085.994
       209.000         157.000
   -345967.74949   -266162.09747  20433453.795    20433453.188    20433460.627
       236.000         206.000
   1103950.47149    856251.19146  23277130.542    23277130.621    23277139.275
       228.000         180.000
  -1942099.29049  -1495982.75447  22100471.664    22100471.507    22100479.432
       234.000         194.000
 00  5 25 13 56 59.9990000  0  6G 2G 4G 8G 7G26G 9
   -216908.74049   -166955.36947  21322686.305    21322685.793    21322693.501
       238.000         205.000
  -2113521.83649  -1630369.09247  21919916.813    21919917.008    21919925.376
       230.000         188.000
   3012343.91349   2154829.84945  24025700.475    24025700.127    24025710.758
       213.000         159.000
   -347683.44849   -267499.02047  20433127.323    20433126.712    20433134.154
       236.000         206.000
   1140230.54549    884521.27846  23284034.555    23284034.608    23284043.202
       227.000         181.000
  -2047920.39549  -1578440.73547  22080334.564    22080334.389    22080342.334
       234.000         193.000
 00  5 25 13 57 29.9990000  0  6G 2G 4G 8G 7G26G 9
   -217047.68049   -167063.65547  21322659.922    21322659.429    21322667.044
       239.000         205.000
  -2233959.80949  -1724216.81347  21896998.067    21896998.332    21897006.756
       231.000         188.000
   3094654.34749   2218967.62945  24041363.847    24041363.491    24041373.948
       212.000         160.000
   -349006.47649   -268529.96747  20432875.555    20432874.987    20432882.385
       236.000         206.000
   1176849.61949    913055.50946  23291002.923    23291002.985    23291011.646
       227.000         180.000
  -2153302.10749  -1660556.33347  22060281.036    22060280.867    22060288.774
       234.000         194.000
 00  5 25 13 57 59.9990000  0  6G 2G 4G 8G 7G26G 9
   -216853.39449   -166912.28847  21322696.973    21322696.443    21322704.046
       239.000         205.000
  -2353971.41449  -1817732.29447  21874160.568    21874160.743    21874169.225
       233.000         189.000
   3177188.13849   2283279.48145  24057069.755    24057069.272    24057079.750
       213.000         157.000
   -349915.36749   -269238.20347  20432702.702    20432702.088    20432709.441
       237.000         207.000
   1213827.89649    941869.65646  23298039.664    23298039.762    23298048.466
       227.000         179.000
  -2258219.03749  -1742309.76047  22040316.063    22040315.849    22040323.696
       235.000         195.000
 00  5 25 13 58 29.9990000  0  6G 2G 4G 8G 7G26G 9
   -216356.97549   -166525.49047  21322791.478    21322790.942    21322798.557
       238.000         205.000
  -2473584.95049  -1910937.61247  21851398.849    21851398.997    21851407.447
       229.000         190.000
   3259911.57449   2347739.06845  24072811.740    24072811.172    24072821.722
       209.000         153.000
   -350443.18349   -269649.49847  20432602.289    20432601.671    20432609.069
       236.000         208.000
   1251130.98549    970936.88746  23305138.260    23305138.422    23305147.014
       227.000         178.000
  -2362700.42349  -1823723.79947  22020433.949    22020433.732    22020441.562
       235.000         195.000
 00  5 25 13 58 59.9990000  0  6G 2G 4G 8G 7G26G 9
   -215557.78449   -165902.77947  21322943.727    21322943.124    21322950.644
       240.000         205.000
  -2592797.42349  -2003830.39547  21828713.444    21828713.581    21828722.018
       232.000         190.000
   3342822.61449   2412344.86845  24088589.294    24088588.641    24088599.352
       206.000         145.000
   -350591.58549   -269765.14447  20432574.079    20432573.451    20432580.915
       236.000         208.000
   1288755.79349   1000254.81846  23312298.171    23312298.288    23312306.861
       227.000         178.000
  -2466743.85349  -1904796.56847  22000635.109    22000634.868    22000642.749
       233.000         195.000
 00  5 25 13 59 29.9990000  0  6G 2G 4G 8G 7G26G 9
   -214447.01849   -165037.28047  21323155.150    21323154.554    21323162.081
       239.000         206.000
  -2711598.05849  -2096402.26647  21806106.386    21806106.524    21806115.021
       234.000         191.000
   3425927.03149   2477101.34845  24104403.718    24104403.177    24104413.893
       200.000         141.000
   -350354.05649   -269580.07647  20432619.290    20432618.650    20432626.156
       235.000         207.000
   1326707.55749   1029827.50746  23319520.274    23319520.383    23319528.893
       228.000         177.000
  -2570339.23949  -1985520.22247  21980921.475    21980921.268    21980929.184
       234.000         194.000
 00  5 25 13 59 59.9990000  0  6G 2G 4G 8G 7G26G 9
   -213003.71649   -163912.65947  21323429.902    21323429.262    21323436.818
       238.000         206.000
  -2829963.36349  -2188634.94147  21783582.158    21783582.339    21783590.851
       233.000         190.000
   3509243.06948   2542022.73745  24120258.366    24120257.885    24120268.737
       192.000         132.000
   -349711.89549   -269079.70947  20432741.469    20432740.835    20432748.386
       235.000         208.000
   1365003.86249   1059668.69846  23326807.850    23326807.923    23326816.508
       224.000         177.000
  -2673463.71849  -2065876.94147  21961297.502    21961297.268    21961305.190
       233.000         194.000
 00  5 25 14  0 29.9990000  0  6G 2G 4G 8G 7G26G 9
   -211252.81949   -162548.35547  21323763.120    21323762.471    21323770.032
       239.000         205.000
  -2947915.63349  -2280545.74847  21761136.561    21761136.760    21761145.199
       234.000         190.000
   3592743.25048   2607087.62644  24136147.731    24136146.008    24136157.626
       190.000         126.000
   -348691.92349   -268284.94247  20432935.527    20432934.921    20432942.524
       236.000         208.000
   1403616.38749   1089756.27346  23334155.422    23334155.607    23334164.418
       227.000         176.000
  -2776140.25649  -2145884.61947  21941758.720    21941758.502    21941766.422
       234.000         194.000
 00  5 25 14  0 59.9990000  0  6G 2G 4G 8G 7G26G 9
   -209207.30749   -160954.47147  21324152.416    21324151.768    21324159.339
       238.000         205.000
  -3065465.51249  -2372143.00747  21738767.572    21738767.770    21738776.121
       234.000         191.000
   3676411.53148   2672283.47844  24152069.134    24152065.988    24152082.365
       182.000         124.000
   -347309.45549   -267207.70547  20433198.615    20433198.005    20433205.616
       237.000         207.000
   1442528.42349   1120077.25446  23341560.378    23341560.518    23341569.300
       227.000         176.000
  -2878380.23249  -2225552.11347  21922303.065    21922302.879    21922310.780
       233.000         196.000
 00  5 25 14  1 29.9990000  0  7G24G 2G 4G 8G 7G26G 9
   -225101.30755                  23901167.786                    23901178.506
       213.000         155.000
   -206858.35049   -159124.14247  21324599.293    21324598.709    21324606.392
       238.000         204.000
  -3182601.75149  -2463417.93247  21716477.359    21716477.559    21716485.767
       234.000         191.000
   3760254.24648   2737615.18044  24168023.804    24168023.414
       179.000         117.000
   -345557.77649   -265842.77047  20433532.028    20433531.391    20433538.961
       237.000         208.000
   1481745.42549   1150635.85146  23349023.273    23349023.357    23349032.171
       225.000         175.000
  -2980172.98449  -2304871.12447  21902932.578    21902932.365    21902940.210
       234.000         195.000
 00  5 25 14  1 59.9990000  0  7G24G 2G 4G 8G 7G26G 9
   -460671.56749   -333420.77845  23874713.972    23874715.243    23874726.031
       210.000         151.000
   -204212.54449   -157062.49647  21325102.675    21325102.121    21325109.898
       237.000         204.000
  -3299328.77949  -2554374.00647  21694265.010    21694265.155    21694273.387
       233.000         192.000
                   2803075.34854  24184010.225
       172.000         117.000
   -343445.76149   -264197.05547  20433933.923    20433933.326    20433940.884
       237.000         208.000
   1521257.12149   1181424.08646  23356542.172    23356542.273    23356551.029
       226.000         174.000
  -3081523.72749  -2383845.71147  21883646.154    21883645.955    21883653.778
       233.000         195.000
 00  5 25 14  2 29.9990000  0  7G24G 2G 4G 8G 7G26G 9
   -599595.77159   -441673.37555  23848277.468    23848277.777    23848289.644
       211.000         150.000
   -201256.80649   -154759.35347  21325665.193    21325664.582    21325672.382
       237.000         204.000
  -3415631.12849  -2644999.16447  21672133.371    21672133.486    21672141.781
       233.000         192.000
                   2868672.22954  24200029.936
       168.000         113.000
   -340962.53549   -262262.08047  20434406.499    20434405.903    20434413.413
       237.000         208.000
   1561073.25449   1212449.54546  23364119.009    23364119.064    23364127.832
       224.000         174.000
  -3182417.39549  -2462464.13547  21864446.711    21864446.504    21864454.365
       233.000         195.000
 00  5 25 14  2 59.9990000  0  6G24G 2G 4G 7G26G 9
   -738444.81849   -549867.45345  23821855.785    23821855.982    23821867.441
       213.000         152.000
   -198004.13749   -152224.82647  21326284.148    21326283.553    21326291.394
       236.000         204.000
  -3531519.28849  -2735301.57947  21650080.504    21650080.684    21650089.042
       231.000         193.000
   -338123.07149   -260049.52347  20434946.907    20434946.269    20434953.757
       237.000         209.000
   1601177.19049   1243699.26346  23371750.462    23371750.575    23371759.429
       224.000         174.000
  -3282865.40949  -2540735.30047  21845332.099    21845331.866    21845339.725
       233.000         195.000
 00  5 25 14  3 29.9990000  0  6G24G 2G 4G 7G26G 9
   -877225.52849   -658008.21945  23795446.757    23795446.857    23795458.233
       207.000         151.000
   -194462.96749   -149465.50147  21326957.944    21326957.409    21326965.325
       237.000         204.000
  -3646999.62649  -2825286.20747  21628105.271    21628105.464    21628113.879
       231.000         191.000
   -334938.27549   -257567.87847  20435552.952    20435552.336    20435559.839
       238.000         210.000
   1641556.83449   1275163.81346  23379434.655    23379434.710    23379443.564
       225.000         175.000
  -3382874.72749  -2618664.62347  21826300.919    21826300.702    21826308.570
       234.000         195.000
 00  5 25 14  3 59.9990000  0  6G24G 2G 4G 7G26G 9
  -1015911.15949   -766074.86845  23769055.645    23769055.786    23769067.240
       212.000         153.000
   -190608.83949   -146462.31747  21327691.384    21327690.835    21327698.835
       237.000         204.000
  -3762045.28949  -2914932.14247  21606212.716    21606212.909    21606221.309
       233.000         191.000
   -331385.76749   -254799.71047  20436228.997    20436228.378    20436235.922
       237.000         210.000
   1682233.14549   1306859.53146  23387175.230    23387175.301    23387184.167
       225.000         176.000
  -3482419.15649  -2696231.69947  21807358.185    21807357.977    21807365.872
       234.000         196.000
 00  5 25 14  4 29.9980000  0  6G24G 2G 4G 7G26G 9
  -1154518.99349   -874080.94745  23742679.337    23742679.493    23742691.257
       210.000         152.000
   -186465.85449   -143234.06247  21328479.786    21328479.228    21328487.269
       237.000         203.000
  -3876674.01449  -3004253.17947  21584399.486    21584399.726    21584408.123
       232.000         191.000
   -327491.83549   -251765.49447  20436970.037    20436969.430    20436976.962
       238.000         210.000
   1723177.38549   1338764.03846  23394966.827    23394966.878    23394975.741
       225.000         176.000
  -3581517.72649  -2773451.34847  21788500.296    21788500.163    21788508.067
       233.000         196.000
 00  5 25 14  4 59.9980000  0  6G24G 2G 4G 7G26G 9
  -1293042.72349   -982021.47345  23716319.128    23716319.303    23716331.025
       211.000         151.000
   -182020.35149   -139770.06247  21329325.775    21329325.158    21329333.298
       236.000         204.000
  -3990877.57649  -3093242.91447  21562667.241    21562667.438    21562675.940
       233.000         191.000
   -323244.84249   -248456.16147  20437778.257    20437777.604    20437785.167
       238.000         210.000
   1764402.16249   1370887.13046  23402811.596    23402811.672    23402820.586
       223.000         174.000
  -3680161.60949  -2850316.69447  21769729.003    21769728.847    21769736.771
       235.000         197.000
 00  5 25 14  5 29.9980000  0  7G24G 2G 5G 4G 7G26G 9
  -1431489.80349  -1089902.29845  23689973.516    23689973.686    23689985.412
       213.000         152.000
   -177286.74349   -136081.58447  21330226.476    21330225.923    21330234.148
       235.000         203.000
    -77688.35754                  24782012.179
       212.000         105.000
  -4104664.16449  -3181907.74647  21541014.302    21541014.500    21541023.047
       231.000         191.000
   -318661.39649   -244884.65847  20438650.449    20438649.828    20438657.353
       238.000         210.000
   1805888.44349   1403213.99846  23410706.189    23410706.299    23410715.260
       225.000         174.000
  -3778360.18849  -2926835.04847  21751042.452    21751042.308    21751050.261
       235.000         198.000
 00  5 25 14  5 59.9980000  0  7G24G 2G 5G 4G 7G26G 9
  -1569862.05349  -1197724.80645  23663642.155    23663642.268    23663654.185
       209.000         151.000
   -172268.73949   -132171.48247  21331181.398    21331180.839    21331189.050
       236.000         202.000
   -166372.15345                  24760354.652
       213.000         144.000
  -4218035.23249  -3270248.79347  21519440.478    21519440.649    21519449.264
       235.000         192.000
   -313747.43249   -241055.60547  20439585.521    20439584.918    20439592.451
       238.000         211.000
   1847628.81249   1435738.86546  23418649.289    23418649.381    23418658.300
       224.000         174.000
  -3876115.43549  -3003007.93447  21732440.331    21732440.159    21732448.147
       235.000         200.000
 00  5 25 14  6 29.9980000  0  7G24G 2G 5G 4G 7G26G 9
  -1708128.72449  -1305465.02245  23637330.791    23637330.846    23637342.806
       212.000         156.000
   -166938.08049   -128017.75647  21332195.822    21332195.266    21332203.436
       236.000         203.000
   -255025.80445                  24738703.343                    24738713.472
       212.000         151.000
  -4330959.99449  -3358242.07947  21497951.520    21497951.732    21497960.439
       233.000         192.000
   -308476.67249   -236948.53147  20440588.552    20440587.964    20440595.491
       239.000         211.000
   1889648.20249   1468481.16046  23426645.385    23426645.470    23426654.347
       223.000         173.000
  -3973397.40349  -3078812.03747  21713928.236    21713928.049    21713936.076
       236.000         199.000
 00  5 25 14  6 59.9980000  0  7G24G 2G 5G 4G 7G26G 9
  -1846320.57649  -1413146.97945  23611033.904    23611033.830    23611045.676
       213.000         154.000
   -161327.73549   -123646.09547  21333263.482    21333262.924    21333271.030
       236.000         203.000
   -456093.44749   -343675.68545  24717056.024    24717054.468    24717064.773
       209.000         151.000
  -4443468.82549  -3445911.27947  21476541.812    21476541.980    21476550.720
       234.000         193.000
   -302884.14549   -232590.72647  20441652.801    20441652.229    20441659.739
       239.000         212.000
   1931910.13549   1501412.43646  23434687.611    23434687.685    23434696.613
       223.000         171.000
  -4070237.13649  -3154271.54547  21695500.215    21695500.046    21695508.099
       233.000         198.000
 00  5 25 14  7 29.9980000  0  7G24G 2G 5G 4G 7G26G 9
  -1984438.45249  -1520771.25945  23584750.889    23584750.911    23584762.561
       213.000         156.000
   -155440.26049   -119058.46147  21334383.878    21334383.305    21334391.411
       236.000         202.000
   -569858.70049   -432323.97345  24695406.422    24695405.351    24695415.752
       212.000         150.000
  -4555562.67649  -3533257.10047  21455211.004    21455211.215    21455219.950
       235.000         193.000
   -296974.94049   -227986.17147  20442777.308    20442776.749    20442784.229
       239.000         211.000
   1974408.32549   1534527.82746  23442774.748    23442774.815    23442783.842
       222.000         172.000
  -4166635.99449  -3229387.51047  21677156.069    21677155.901    21677163.998
       234.000         198.000
 00  5 25 14  7 59.9980000  0  7G24G 2G 5G 4G 7G26G 9
  -2122468.26249  -1628326.92545  23558484.788    23558484.715    23558496.270
       212.000         152.000
   -149263.74549   -114245.63047  21335559.269    21335558.717    21335566.755
       236.000         202.000
   -683610.03659   -520961.39355  24673760.014    24673759.034    24673769.779
       211.000         149.000
  -4667227.01749  -3620268.24747  21433962.040    21433962.228    21433970.876
       235.000         193.000
   -290739.00349   -223127.02547  20443963.954    20443963.409    20443970.885
       240.000         211.000
   2017151.25849   1567833.90446  23450908.371    23450908.429    23450917.792
       221.000         172.000
  -4262580.19449  -3304149.20847  21658898.525    21658898.361    21658906.374
       235.000         198.000
 00  5 25 14  8 29.9980000  0  7G24G 2G 5G 4G 7G26G 9
  -2260400.38049  -1735806.45645  23532237.408    23532237.202    23532248.594
       216.000         155.000
   -142790.81649   -109201.82547  21336791.095    21336790.510    21336798.554
       236.000         202.000
   -797340.38249   -609582.43445  24652117.866    24652117.127    24652127.504
       212.000         150.000
  -4778452.07149  -3706937.08347  21412796.697    21412796.866    21412805.414
       234.000         195.000
   -284171.18749   -218009.25947  20445213.853    20445213.280    20445220.691
       239.000         211.000
   2060143.06349   1601333.89346  23459089.381    23459089.493    23459099.020
       219.000         169.000
  -4358060.72149  -3378549.58747  21640729.238    21640729.045    21640737.004
       235.000         198.000
 00  5 25 14  8 59.9980000  0  7G24G 2G 5G 4G 7G26G 9
  -2398235.07749  -1843210.13145  23506008.638    23506008.335    23506019.351
       217.000         157.000
   -136023.97449   -103928.99747  21338078.839    21338078.192    21338086.286
       235.000         201.000
   -911052.45249   -698189.24145  24630479.067    24630478.509    24630488.680
       210.000         150.000
  -4889238.19649  -3793263.91147  21391714.857    21391715.005    21391723.434
       237.000         195.000
   -277276.17849   -212636.53647  20446525.914    20446525.338    20446532.743
       239.000         210.000
   2103377.35649   1635022.85846  23467316.510    23467316.693    23467326.246
       221.000         168.000
  -4453078.36649  -3452589.28447  21622647.977    21622647.799    21622655.731
       235.000         199.000
 00  5 25 14  9 29.9980000  0  7G24G 2G 5G 4G 7G26G 9
  -2535960.39949  -1950528.56345  23479800.541    23479800.231    23479811.065
       216.000         157.000
   -128953.19849    -98419.34047  21339424.401    21339423.763    21339431.856
       235.000         201.000
  -1024736.88349   -786774.52745  24608845.508    24608844.996    24608855.348
       211.000         149.000
  -4999573.16249  -3879239.17847  21370718.800    21370718.946    21370727.271
       236.000         195.000
   -270046.17749   -207002.78247  20447901.759    20447901.172    20447908.548
       239.000         210.000
   2146860.74149   1668905.91846  23475591.311    23475591.477    23475600.860
       222.000         170.000
  -4547621.73749  -3526259.41747  21604656.888    21604656.715    21604664.673
       235.000         198.000
 00  5 25 14  9 59.9980000  0  7G24G 2G 5G 4G 7G26G 9
  -2673587.18449  -2057770.21345  23453610.918    23453610.684    23453621.467
       218.000         158.000
   -121591.67949    -92683.12347  21340825.324    21340824.669    21340832.729
       235.000         201.000
  -1138406.60949   -875348.34045  24587214.877    24587214.372    24587224.830
       211.000         152.000
  -5109467.63949  -3964871.21447  21349806.567    21349806.739    21349814.969
       237.000         196.000
   -262496.41649   -201119.86947  20449338.397    20449337.816    20449345.206
       237.000         210.000
   2190576.56449   1702970.09746  23483910.329    23483910.467    23483919.881
       221.000         170.000
  -4641701.92349  -3599568.62847  21586754.008    21586753.829    21586761.772
       235.000         199.000
 00  5 25 14 10 29.9980000  0  7G24G 2G 5G 4G 7G26G 9
  -2811135.20949  -2164950.48645  23427436.354    23427436.152    23427446.956
       218.000         162.000
   -113961.15849    -86737.30247  21342277.368    21342276.730    21342284.748
       237.000         202.000
  -1252083.98749   -963928.14045  24565582.856    24565582.330    24565592.788
       207.000         151.000
  -5218941.42949  -4050175.43747  21328974.463    21328974.617    21328982.725
       236.000         197.000
   -254650.95549   -195006.54347  20450831.314    20450830.770    20450838.188
       239.000         210.000
   2234499.40349   1737195.58246  23492268.615    23492268.775    23492278.420
       221.000         170.000
  -4735339.13349  -3672532.65947  21568935.445    21568935.264    21568943.182
       235.000         199.000
 00  5 25 14 10 59.9980000  0  7G24G 2G 5G 4G 7G26G 9
  -2948593.96349  -2272061.18845  23401278.650    23401278.442    23401289.549
       218.000         162.000
   -106053.16849    -80575.27047  21343782.220    21343781.605    21343789.618
       235.000         201.000
  -1365760.50449  -1052507.25145  24543950.716    24543950.381    24543960.688
       204.000         149.000
  -5327983.77749  -4135143.45847  21308224.400    21308224.538    21308232.639
       236.000         197.000
   -246503.30449   -188657.73447  20452381.767    20452381.186    20452388.657
       239.000         210.000
   2278634.18649   1771586.21546  23500667.249    23500667.400    23500677.216
       221.000         173.000
  -4828523.69849  -3745143.97647  21551203.005    21551202.777    21551210.699
       235.000         199.000
 00  5 25 14 11 29.9980000  0  7G24G 2G 5G 4G 7G26G 9
  -3085939.25749  -2379083.44146  23375142.551    23375142.430    23375153.769
       216.000         163.000
    -97845.89949    -74180.02147  21345343.988    21345343.419    21345351.412
       235.000         202.000
  -1479414.72749  -1141068.97145  24522323.009    24522322.575    24522333.005
       207.000         148.000
  -5436570.62149  -4219756.55847  21287560.982    21287561.143    21287569.218
       236.000         197.000
   -238033.95249   -182058.25147  20453993.416    20453992.836    20454000.365
       239.000         210.000
   2322999.18349   1806156.23446  23509109.847    23509109.910    23509119.661
       222.000         172.000
  -4921232.29149  -3817384.41047  21533561.118    21533560.902    21533568.799
       235.000         199.000
 00  5 25 14 11 59.9980000  0  7G24G 2G 5G 4G 7G26G 9
  -3223175.91449  -2486021.06245  23349027.271    23349027.081    23349038.591
       216.000         162.000
    -89346.51049    -67557.16247  21346961.328    21346960.785    21346968.827
       234.000         201.000
  -1593053.47649  -1229618.62745  24500698.418    24500697.909    24500708.293
       205.000         145.000
  -5544706.59549  -4304018.32047  21266983.282    21266983.465    21266991.620
       238.000         197.000
   -229251.85749   -175215.07847  20455664.585    20455664.007    20455671.543
       238.000         210.000
   2367584.00349   1840897.54646  23517594.239    23517594.263    23517604.002
       221.000         172.000
  -5013469.96449  -3889257.90747  21516008.820    21516008.621    21516016.483
       235.000         199.000
 00  5 25 14 12 29.9980000  0  7G24G 2G 5G 4G 7G26G 9
  -3360304.21849  -2592874.28745  23322932.529    23322932.436    23322943.996
       216.000         162.000
    -80557.47249    -60708.58847  21348633.816    21348633.278    21348641.353
       235.000         200.000
  -1706679.50749  -1318158.38245  24479076.153    24479075.663    24479085.606
       207.000         145.000
  -5652391.98249  -4387928.99647  21246491.383    21246491.590    21246499.727
       235.000         197.000
   -220161.61449   -168131.79047  20457394.391    20457393.842    20457401.357
       238.000         210.000
   2412382.73349   1875805.52546  23526119.213    23526119.271    23526128.956
       221.000         172.000
  -5105237.59149  -3960765.13147  21498545.940    21498545.750    21498553.667
       236.000         200.000
 00  5 25 14 12 59.9980000  0  7G24G 2G 5G 4G 7G26G 9
  -3497317.93049  -2699638.19445  23296859.709    23296859.602    23296871.132
       218.000         162.000
    -71474.67249    -53631.10747  21350362.264    21350361.656    21350369.827
       234.000         201.000
  -1820289.12349  -1406685.32545  24457457.136    24457456.661    24457466.246
       205.000         140.000
  -5759620.46649  -4471483.64947  21226086.494    21226086.723    21226094.684
       234.000         197.000
   -210761.39349   -160806.96147  20459183.259    20459182.687    20459190.170
       239.000         210.000
   2457395.84349   1910880.56046  23534684.927    23534685.040    23534694.716
       221.000         172.000
  -5196529.47949  -4031901.64647  21481173.652    21481173.480    21481181.431
       236.000         201.000
 00  5 25 14 13 29.9980000  0  7G24G 2G 5G 4G 7G26G 9
  -3634212.52549  -2806309.25845  23270809.523    23270809.311    23270820.871
       214.000         162.000
    -62095.68949    -46322.83447  21352147.021    21352146.425    21352154.658
       235.000         201.000
  -1933880.20549  -1495197.82345  24435841.380    24435841.027    24435850.968
       203.000         139.000
  -5866387.74549  -4554678.90647  21205769.392    21205769.562    21205777.450
       237.000         197.000
   -201050.99349   -153240.44047  20461031.063    20461030.538    20461038.004
       239.000         210.000
   2502622.10349   1946121.68346  23543291.246    23543291.402    23543301.056
       220.000         170.000
  -5287341.78649  -4102664.47247  21463892.641    21463892.501    21463900.391
       237.000         200.000
 00  5 25 14 13 59.9980000  0  7G24G 2G 5G 4G 7G26G 9
  -3770995.96849  -2912893.69345  23244780.348    23244780.210    23244791.819
       214.000         161.000
    -52430.67449    -38791.68247  21353986.280    21353985.691    21353993.896
       237.000         202.000
  -2047462.88649  -1583703.82345  24414227.166    24414226.965    24414236.527
       205.000         135.000
  -5972701.51949  -4637520.79347  21185538.462    21185538.696    21185546.571
       236.000         197.000
   -191042.62549   -145441.72647  20462935.591    20462935.059    20462942.555
       238.000         209.000
   2548047.95349   1981518.34946  23551935.491    23551935.694    23551945.410
       219.000         169.000
  -5377683.10449  -4173060.28947  21446701.294    21446701.170    21446708.950
       237.000         201.000
 00  5 25 14 14 29.9980000  0  7G24G 2G 5G 4G 7G26G 9
  -3907665.97149  -3019389.72845  23218772.822    23218772.755    23218784.319
       214.000         161.000
    -42479.68649    -31037.70547  21355879.962    21355879.379    21355887.531
       236.000         202.000
  -2161037.38049  -1672203.41745  24392614.822    24392614.544    24392623.481
       206.000         136.000
  -6078559.46249  -4720007.49147  21165394.330    21165394.540    21165402.496
       233.000         197.000
   -180738.31549   -137412.41047  20464896.402    20464895.891    20464903.431
       238.000         210.000
   2593669.88149   2017067.80146  23560617.048    23560617.238    23560627.063
       219.000         168.000
  -5467551.77849  -4243087.81247  21429599.895    21429599.718    21429607.492
       236.000         201.000
 00  5 25 14 14 59.9980000  0  7G24G 2G 5G 4G 7G26G 9
  -4044197.15749  -3125777.60246  23192791.894    23192791.743    23192803.229
       215.000         163.000
    -32219.71149    -23042.95447  21357832.478    21357831.910    21357839.967
       236.000         202.000
  -2274580.53149  -1760678.55845  24371008.269    24371007.701    24371017.019
       207.000         139.000
  -6183936.50249  -4802119.45247  21145341.701    21145341.927    21145350.010
       236.000         198.000
   -170117.09249   -129136.14647  20466917.517    20466917.016    20466924.607
       238.000         209.000
   2639507.55249   2052785.36146  23569339.799    23569339.954    23569349.818
       220.000         169.000
  -5556923.01549  -4312727.72347  21412593.031    21412592.913    21412600.683
       236.000         201.000
 00  5 25 14 15 29.9980000  0  7G24G 2G 5G 4G 7G26G 9
  -4180619.35949  -3232080.54946  23166831.654    23166831.438    23166842.883
       214.000         163.000
    -21682.51549    -14832.18747  21359837.638    21359837.094    21359845.173
       235.000         200.000
  -2388124.40649  -1849154.26445  24349401.712    24349401.218    24349410.498
       208.000         140.000
  -6288862.15749  -4883879.68547  21125375.056    21125375.264    21125383.382
       236.000         198.000
   -159213.01149   -120639.47747  20468992.510    20468992.001    20468999.617
       238.000         209.000
   2685525.56949   2088643.43046  23578096.779    23578096.908    23578106.903
       220.000         168.000
  -5645827.15249  -4382003.65547  21395675.192    21395675.019    21395682.784
       236.000         201.000
 00  5 25 14 15 59.9980000  0  7G24G 2G 5G 4G 7G26G 9
  -4316929.36549  -3338296.06745  23140892.656    23140892.522    23140903.944
       213.000         160.000
    -10867.31449     -6404.79447  21361895.711    21361895.190    21361903.224
       235.000         200.000
  -2501668.15049  -1937629.87945  24327795.097    24327794.662    24327803.669
       206.000         139.000
  -6393333.44549  -4965285.84347  21105494.838    21105495.037    21105503.186
       236.000         198.000
   -148027.15249   -111923.24047  20471121.148    20471120.610    20471128.186
       238.000         208.000
   2731721.40749   2124640.04646  23586887.682    23586887.817    23586897.726
       221.000         170.000
  -5734261.59949  -4450913.59147  21378846.629    21378846.470    21378854.339
       236.000         202.000
 00  5 25 14 16 29.9980000  0  7G24G 2G 5G 4G 7G26G 9
  -4453096.10049  -3444399.93446  23114980.865    23114980.813    23114992.316
       217.000         165.000
       254.75049      2261.71547  21364012.270    21364011.723    21364019.705
       236.000         200.000
  -2615183.08549  -2026083.05945  24306193.697    24306193.296    24306202.332
       204.000         137.000
  -6497319.47949  -5046313.90647  21085706.896    21085707.129    21085715.283
       235.000         197.000
   -136532.65449   -102966.50647  20473308.447    20473307.913    20473315.505
       238.000         208.000
   2778120.43049   2160795.02146  23595717.377    23595717.536    23595727.260
       223.000         172.000
  -5822196.10749  -4519433.97047  21362113.196    21362113.064    21362121.035
       236.000         202.000
 00  5 25 14 16 59.9980000  0  7G24G 2G 5G 4G 7G26G 9
  -4589137.08649  -3550405.81746  23089093.168    23089093.074    23089104.691
       218.000         166.000
     11663.90449     11151.93447  21366183.359    21366182.814    21366190.787
       235.000         200.000
  -2728688.97649  -2114529.17645  24284594.134    24284593.753    24284603.075
       203.000         136.000
  -6600837.72449  -5126977.44447  21066007.972    21066008.146    21066016.369
       234.000         197.000
   -124751.50449    -93786.39447  20475550.396    20475549.839    20475557.386
       238.000         208.000
   2824699.17949   2197090.02146  23604581.177    23604581.301    23604591.015
       220.000         170.000
  -5909648.79949  -4587578.90647  21345471.431    21345471.316    21345479.394
       236.000         202.000
 00  5 25 14 17 29.9980000  0  7G24G 2G 5G 4G 7G26G 9
  -4725045.31749  -3656308.24746  23063230.724    23063230.538    23063242.184
       218.000         164.000
     23365.10349     20269.71347  21368410.018    21368409.470    21368417.489
       234.000         200.000
  -2842181.11449  -2202964.56145  24262997.268    24262996.714    24263006.350
       205.000         138.000
  -6703881.28949  -5207271.09647  21046399.267    21046399.495    21046407.809
       234.000         197.000
   -112681.03049    -84380.85347  20477847.394    20477846.825    20477854.334
       239.000         209.000
   2871459.28649   2233526.33246  23613479.431    23613479.615    23613489.238
       221.000         170.000
  -5996613.26349  -4655343.40147  21328922.582    21328922.474    21328930.642
       235.000         202.000
 00  5 25 14 17 59.9980000  0  7G24G 2G 5G 4G 7G26G 9
  -4860813.94949  -3762101.90346  23037394.768    23037394.564    23037406.081
       217.000         166.000
     35362.87049     29618.57547  21370693.099    21370692.547    21370700.557
       235.000         199.000
  -2955655.26449  -2291385.93845  24241404.074    24241403.350    24241413.328
       208.000         137.000
  -6806443.47749  -5287189.65247  21026882.258    21026882.542    21026890.812
       235.000         197.000
   -100318.62149    -74747.82647  20480199.871    20480199.341    20480206.840
       238.000         209.000
   2918401.70449   2270104.71046  23622412.187    23622412.480    23622422.238
       218.000         169.000
  -6083083.36449  -4722722.68447  21312467.844    21312467.760    21312475.912
       236.000         202.000
 00  5 25 14 18 29.9980000  0  7G24G 2G 5G 4G 7G26G 9
  -4996434.01249  -3867779.77746  23011587.056    23011586.790    23011598.463
       218.000         165.000
     47663.77649     39203.64747  21373033.940    21373033.377    21373041.353
       234.000         199.000
  -3069104.53249  -2379787.94845  24219815.292    24219814.389    24219824.723
       208.000         135.000
  -6908515.36449  -5366726.15247  21007458.672    21007458.911    21007467.150
       236.000         199.000
    -87659.59949    -64883.67247  20482608.826    20482608.292    20482615.819
       238.000         209.000
   2965529.62249   2306827.63346  23631380.299    23631380.588    23631390.506
       217.000         168.000
  -6169051.08949  -4789710.50747  21296108.771    21296108.677    21296116.767
       237.000         202.000
 00  5 25 14 18 59.9980000  0  7G24G 2G 5G 4G 7G26G 9
  -5131918.73149  -3973352.19446  22985805.064    22985804.863    22985816.431
       218.000         163.000
     60252.25549     49012.80447  21375429.467    21375428.945    21375436.968
       234.000         200.000
  -3182544.70349  -2468182.86645  24198228.358    24198227.469    24198238.012
       208.000         134.000
  -7010110.56549  -5445891.20847  20988125.717    20988125.980    20988134.290
       234.000         198.000
    -74721.81249    -54802.29047  20485070.823    20485070.273    20485077.814
       239.000         209.000
   3012824.08449   2343680.33646  23640380.165    23640380.448    23640390.432
       219.000         167.000
  -6254530.36949  -4856317.72247  21279842.654    21279842.534    21279850.588
       237.000         201.000
 00  5 25 14 19 29.9980000  0  7G24G 2G 5G 4G 7G26G 9
  -5267260.61649  -4078813.30446  22960050.205    22960050.072    22960061.546
       218.000         165.000
     73133.83249     59050.35147  21377880.774    21377880.261    21377888.333
       234.000         200.000
  -3295970.27149  -2556566.46045  24176644.275    24176643.385    24176653.407
       211.000         134.000
  -7111221.41749  -5524678.84247  20968884.926    20968885.170    20968893.488
       236.000         198.000
    -61501.63949    -44500.87047  20487586.553    20487586.023    20487593.575
       240.000         210.000
   3060287.02749   2380664.31946  23649412.194    23649412.418    23649422.450
       217.000         167.000
  -6339514.11049  -4922538.80847  21263670.812    21263670.656    21263678.626
       237.000         201.000
 00  5 25 14 19 59.9980000  0  7G24G 2G 5G 4G 7G26G 9
  -5402441.20049  -4184148.70546  22934326.199    22934326.005    22934337.406
       216.000         164.000
     86324.75649     69328.94347  21380390.993    21380390.459    21380398.581
       235.000         199.000
  -3409364.92749  -2644925.91445  24155066.109    24155065.406    24155074.827
       210.000         135.000
  -7211829.66949  -5603074.84647  20949739.737    20949739.981    20949748.345
       237.000         198.000
    -47985.10449    -33968.52647  20490158.739    20490158.182    20490165.726
       240.000         210.000
   3107931.27749   2417789.58746  23658478.750    23658478.972    23658488.883
       218.000         166.000
  -6423984.75749  -4988360.08047  21247596.505    21247596.382    21247604.309
       237.000         202.000
 00  5 25 14 20 29.9980000  0  7G24G 2G 5G 4G 7G26G 9
  -5537447.60149  -4289348.37345  22908635.271    22908634.997    22908646.281
       217.000         161.000
     99835.42049     79856.68947  21382962.135    21382961.550    21382969.651
       235.000         200.000
  -3522718.33749  -2733253.23545  24133495.490    24133494.875    24133504.315
       208.000         135.000
  -7311922.71449  -5681069.38747  20930692.619    20930692.895    20930701.265
       236.000         198.000
    -34163.56049    -23198.50947  20492788.921    20492788.367    20492795.846
       240.000         210.000
   3155763.77349   2455061.54346  23667581.278    23667581.425    23667591.274
       221.000         169.000
  -6507930.33349  -5053772.20147  21231622.205    21231622.073    21231629.943
       238.000         203.000
 00  5 25 14 20 59.9980000  0  7G24G 2G 5G 4G 7G26G 9
  -5672286.65749  -4394417.67346  22882976.066    22882976.008    22882987.055
       216.000         163.000
    113656.44249     90626.26147  21385592.235    21385591.660    21385599.812
       235.000         199.000
  -3636039.65749  -2821555.58545  24111931.178    24111930.670    24111940.179
       206.000         136.000
  -7411507.82549  -5758668.14147  20911742.209    20911742.442    20911750.774
       237.000         199.000
    -20048.38949    -12199.69247  20495474.949    20495474.403    20495481.941
       240.000         210.000
   3203771.71149   2492470.19546  23676717.133    23676717.208    23676727.050
       222.000         171.000
  -6591358.77949  -5118781.35947  21215746.208    21215746.100    21215754.004
       237.000         202.000
 00  5 25 14 21 29.9980000  0  7G24G 2G 5G 4G 7G26G 9
  -5806946.99149  -4499347.68646  22857351.046    22857350.952    22857361.904
       221.000         164.000
    127797.16349    101644.95347  21388283.179    21388282.589    21388290.732
       234.000         198.000
  -3749319.71449  -2909825.77945  24090374.772    24090374.020    24090383.926
       204.000         136.000
  -7510573.67049  -5835862.26347  20892890.596    20892890.844    20892899.145
       237.000         199.000
     -5632.45449      -966.52347  20498218.271    20498217.703    20498225.286
       240.000         211.000
   3251961.23349   2530020.35646  23685887.411    23685887.515    23685897.321
       223.000         171.000
  -6674259.06749  -5183378.97547  21199970.834    21199970.707    21199978.563
       238.000         203.000
 00  5 25 14 21 59.9980000  0  7G24G 2G 5G 4G 7G26G 9
  -5941442.00049  -4604148.89146  22831757.686    22831757.460    22831768.311
       219.000         167.000
    142241.96049    112900.59547  21391031.941    21391031.403    21391039.514
       233.000         198.000
  -3862574.16449  -2998076.00245  24068823.187    24068822.644    24068832.237
       202.000         136.000
  -7609133.59549  -5912662.16047  20874135.204    20874135.462    20874143.850
       236.000         199.000
      9066.70149     10487.34647  20501015.435    20501014.900    20501022.462
       239.000         210.000
   3300312.99049   2567696.95746  23695088.487    23695088.654    23695098.452
       224.000         168.000
  -6756645.38049  -5247576.09447  21184293.275    21184293.148    21184300.946
       239.000         204.000
 00  5 25 14 22 29.9980000  0  7G24G 2G 5G 4G 7G26G 9
  -6075752.55749  -4708806.34446  22806199.256    22806199.008    22806209.913
       222.000         169.000
    157007.71049    124406.31447  21393841.813    21393841.264    21393849.376
       235.000         198.000
  -3975785.94349  -3086292.95845  24047279.695    24047279.254    24047288.902
       204.000         138.000
  -7707169.02249  -5989053.36847  20855479.599    20855479.867    20855488.268
       236.000         199.000
     24063.92749     22173.47847  20503869.406    20503868.825    20503876.374
       241.000         211.000
   3348840.58249   2605510.54546  23704323.001    23704323.144    23704333.013
       223.000         169.000
  -6838499.35149  -5311358.40147  21168717.070    21168716.930    21168724.684
       239.000         205.000
 00  5 25 14 22 59.9980000  0  7G24G 2G 5G 4G 7G26G 9
  -6209912.01749  -4813346.05746  22780669.492    22780669.307    22780680.288
       220.000         168.000
    172058.63949    136134.25947  21396705.940    21396705.380    21396713.540
       234.000         198.000
  -4088990.84849  -3174504.55045  24025737.629    24025737.067    24025746.402
       204.000         140.000
  -7804713.50849  -6065062.02047  20836917.458    20836917.748    20836926.105
       237.000         200.000
     39321.35249     34062.36247  20506772.888    20506772.279    20506779.793
       240.000         211.000
   3397504.83149   2643430.60546  23713583.574    23713583.705    23713593.602
       223.000         170.000
  -6919855.32849  -5374752.65347  21153235.619    21153235.438    21153243.244
       238.000         204.000
 00  5 25 14 23 29.9980000  0  7G24G 2G 5G 4G 7G26G 9
  -6343901.62949  -4917753.41346  22755171.970    22755171.719    22755182.912
       218.000         166.000
    187411.19249    148097.24247  21399627.498    21399626.912    21399635.177
       233.000         199.000
  -4202172.18849  -3262697.76745  24004199.924    24004199.413    24004208.567
       203.000         141.000
  -7901748.60849  -6140673.74847  20818452.279    20818452.576    20818460.921
       239.000         200.000
     54853.63849     46165.42547  20509728.593    20509728.017    20509735.515
       240.000         211.000
   3446318.72149   2681467.27446  23722872.747    23722872.904    23722882.721
       221.000         168.000
  -7000695.04649  -5437744.62647  21137852.239    21137852.101    21137860.017
       238.000         204.000
 00  5 25 14 23 59.9980000  0  7G24G 2G 5G 4G 7G26G 9
  -6477717.58649  -5022025.51946  22729707.400    22729707.226    22729718.316
       216.000         163.000
    203066.77449    160296.34647  21402606.702    21402606.117    21402614.426
       234.000         198.000
  -4315328.57049  -3350871.53645  23982667.064    23982666.596    23982675.566
       205.000         143.000
  -7998270.61449  -6215885.67447  20800084.811    20800085.096    20800093.317
       238.000         200.000
     70660.18349     58482.19047  20512736.499    20512735.914    20512743.441
       240.000         210.000
   3495280.41849   2719619.12346  23732189.856    23732190.061    23732199.967
       221.000         164.000
  -7081015.69949  -5500332.13147  21122567.645    21122567.526    21122575.533
       237.000         204.000
 00  5 25 14 24 29.9980000  0  7G24G 2G 5G 4G 7G26G 9
  -6611353.12049  -5126157.02646  22704276.967    22704276.984    22704288.005
       216.000         163.000
    219029.62649    172734.88147  21405644.370    21405643.813    21405652.115
       234.000         199.000
  -4428455.63749  -3439022.48045  23961139.777    23961139.372    23961148.424
       204.000         142.000
  -8094273.56549  -6290693.13947  20781816.086    20781816.356    20781824.601
       240.000         201.000
     86743.27449     71014.44947  20515797.067    20515796.451    20515803.944
       241.000         211.000
   3544390.71349   2757886.77845  23741535.302    23741535.520    23741545.271
       221.000         162.000
  -7160811.99649  -5562511.05147  21107382.846    21107382.728    21107390.771
       238.000         203.000
 00  5 25 14 24 59.9980000  0  7G24G 2G 5G 4G 7G26G 9
  -6744795.83249  -5230138.22646  22678883.442    22678883.526    22678894.503
       218.000         164.000
    235310.19049    185420.98247  21408742.561    21408741.988    21408750.235
       231.000         198.000
  -4541542.98549  -3527142.45445  23939619.753    23939619.275    23939628.581
       196.000         138.000
  -8189745.00649  -6365086.43947  20763648.457    20763648.727    20763657.060
       238.000         202.000
    103111.27449     83768.70847  20518911.739    20518911.181    20518918.712
       239.000         211.000
   3593656.65949   2796275.70646  23750910.406    23750910.633    23750920.325
       221.000         163.000
  -7240071.95849  -5624272.05447  21092300.155    21092300.059    21092308.090
       238.000         204.000
 00  5 25 14 25 29.9980000  0  7G24G 2G 5G 4G 7G26G 9
  -6878064.88349  -5333984.17046  22653523.230    22653523.214    22653533.891
       219.000         163.000
    251886.78149    198337.75847  21411896.895    21411896.364    21411904.673
       232.000         198.000
  -4654612.00748  -3615248.16145  23918103.276    23918102.738    23918112.278
       193.000         135.000
  -8284704.36849  -6439080.71147  20745578.308    20745578.565    20745586.915
       239.000         202.000
    119740.80449     96726.76247  20522076.285    20522075.691    20522083.239
       240.000         210.000
   3643053.20449   2834766.38546  23760310.383    23760310.590    23760320.214
       222.000         164.000
  -7318815.69649  -5685630.80047  21077315.810    21077315.673    21077323.663
       239.000         204.000
 00  5 25 14 25 59.9980000  0  7G24G 2G 5G 4G 7G26G 9
  -7011149.69849  -5437686.52946  22628198.072    22628198.091    22628208.478
       221.000         166.000
    268767.79249    211491.73747  21415109.273    21415108.753    21415117.103
       233.000         198.000
  -4767654.22048  -3703332.98645  23896591.791    23896591.399    23896601.196
       192.000         133.000
  -8379141.60049  -6512668.14247  20727607.539    20727607.801    20727616.142
       238.000         202.000
    136638.07449    109893.44547  20525291.643    20525291.086    20525298.742
       239.000         211.000
   3692585.31649   2873362.68546  23769736.155    23769736.344    23769746.081
       222.000         166.000
  -7397033.38949  -5746579.64347  21062431.486    21062431.329    21062439.273
       239.000         204.000
 00  5 25 14 26 29.9980000  0  7G24G 2G 5G 4G 7G26G 9
  -7144056.92449  -5541250.53446  22602906.758    22602906.837    22602917.001
       219.000         166.000
    285944.04249    224875.77847  21418377.922    21418377.344    21418385.672
       232.000         197.000
  -4880678.62648  -3791403.93245  23875083.712    23875083.802    23875093.242
       191.000         132.000
  -8473063.62849  -6585854.10347  20709734.870    20709735.081    20709743.362
       238.000         202.000
    153792.08049    123260.18147  20528555.907    20528555.392    20528563.134
       239.000         211.000
   3742240.56949   2912054.95946  23779185.209    23779185.442    23779195.463
       217.000         165.000
  -7474732.60449  -5807124.49147  21047645.803    21047645.688    21047653.521
       238.000         204.000
 00  5 25 14 26 59.9980000  0  7G24G 2G 5G 4G 7G26G 9
  -7276775.86049  -5644667.80046  22577651.189    22577651.158    22577661.387
       224.000         167.000
    303423.88849    238496.38347  21421704.239    21421703.682    21421712.008
       232.000         196.000
  -4993676.77348  -3879454.42044  23853581.058    23853580.854    23853590.014
       194.000         130.000
  -8566460.46049  -6658630.81247  20691962.086    20691962.264    20691970.441
       239.000         202.000
    171209.24949    136831.98447  20531870.372    20531869.809    20531877.541
       240.000         211.000
   3792023.89449   2950847.02146  23788658.543    23788658.870    23788669.200
       220.000         164.000
  -7551903.63949  -5867257.75447  21032960.674    21032960.563    21032968.357
       240.000         205.000
 00  5 25 14 27 29.9980000  0  7G24G 2G 5G 4G 7G26G 9
  -7409294.07849  -5747928.69346  22552433.805    22552433.670    22552443.953
       220.000         168.000
    321217.39049    252361.40047  21425090.245    21425089.680    21425098.037
       232.000         196.000
  -5106638.37148  -3967476.40645  23832085.049    23832084.394    23832094.498
       192.000         133.000
  -8659319.78049  -6730988.69647  20674291.453    20674291.651    20674299.822
       238.000         202.000
    188897.66049    150615.14247  20535236.370    20535235.830    20535243.540
       239.000         211.000
   3841942.07749   2989744.16346  23798157.847    23798158.076    23798168.671
       220.000         164.000
  -7628535.18949  -5926970.65147  21018378.206    21018378.074    21018385.849
       239.000         204.000
 00  5 25 14 27 59.9980000  0  7G24G 2G 5G 4G 7G26G 9
  -7541614.33849  -5851035.32446  22527253.942    22527253.843    22527264.397
       219.000         169.000
    339319.46849    266466.87747  21428534.934    21428534.409    21428542.839
       232.000         197.000
  -5219568.25249  -4055473.71745  23810595.188    23810594.701    23810604.798
       196.000         136.000
  -8751644.83549  -6802930.26047  20656722.459    20656722.700    20656730.902
       237.000         202.000
    206850.51249    164604.34947  20538652.712    20538652.134    20538659.896
       239.000         211.000
   3891986.70849   3028739.85245  23807681.283    23807681.439    23807692.027
       218.000         159.000
  -7704630.65549  -5986265.82047  21003897.668    21003897.568    21003905.318
       239.000         204.000
 00  5 25 14 28 29.9980000  0  7G24G 2G 5G 4G 7G26G 9
  -7673743.88749  -5953993.35046  22502110.364    22502110.282    22502120.935
       220.000         170.000
    357720.44949    280805.27247  21432036.559    21432036.043    21432044.562
       232.000         196.000
  -5332475.93649  -4143453.71745  23789109.831    23789109.212    23789119.058
       197.000         136.000
  -8843443.22149  -6874461.43247  20639253.772    20639254.011    20639262.227
       237.000         203.000
    225056.19549    178790.56947  20542117.129    20542116.597    20542124.310
       239.000         211.000
   3942144.81949   3067823.95945  23817226.132    23817226.338    23817236.804
       219.000         156.000
  -7780198.37249  -6045149.74847  20989517.685    20989517.509    20989525.211
       239.000         204.000
 00  5 25 14 28 59.9980000  0  7G24G 2G 5G 4G 7G26G 9
  -7805679.48649  -6056800.25246  22477003.661    22477003.604    22477014.410
       223.000         170.000
    376421.32649    295377.33547  21435595.256    21435594.772    21435603.302
       233.000         197.000
  -5445360.31149  -4231415.54645  23767628.443    23767628.016    23767638.000
       198.000         139.000
  -8934712.45649  -6945580.28047  20621885.799    20621886.040    20621894.249
       238.000         203.000
    243513.52749    193172.87747  20545629.464    20545628.919    20545636.609
       239.000         211.000
   3992413.95449   3106994.58345  23826792.209    23826792.352    23826802.749
       223.000         158.000
  -7855236.07749  -6103620.68547  20975238.469    20975238.334    20975245.937
       240.000         204.000
 00  5 25 14 29 29.9980000  0  7G24G 2G 5G 4G 7G26G 9
  -7937392.90949  -6159434.04846  22451939.568    22451939.376    22451950.058
       218.000         170.000
    395447.82449    310203.13247  21439215.946    21439215.469    21439223.989
       232.000         196.000
  -5558195.45549  -4319339.01845  23746156.845    23746156.395    23746166.451
       201.000         143.000
  -9025424.65149  -7016265.07347  20604623.872    20604624.086    20604632.188
       238.000         203.000
    262246.57649    207770.02847  20549194.227    20549193.708    20549201.348
       240.000         211.000
   4042816.50549   3146269.18045  23836383.729    23836383.824    23836394.157
       222.000         159.000
  -7929716.81949  -6161657.62447  20961065.296    20961065.149    20961072.632
       240.000         204.000
 00  5 25 14 29 59.9980000  0  7G24G 2G 5G 4G 7G26G 9
  -8068890.92549  -6261899.96746  22426916.173    22426915.945    22426926.671
       221.000         169.000
    414790.88449    325275.59747  21442896.947    21442896.384    21442904.853
       233.000         195.000
  -5670990.05149  -4407230.89445  23724692.754    23724692.209    23724702.390
       199.000         141.000
  -9115586.93549  -7086521.36447  20587466.511    20587466.731    20587474.792
       237.000         202.000
    281244.33849    222573.44747  20552809.389    20552808.858    20552816.514
       240.000         211.000
   4093340.24549   3185638.19045  23845998.287    23845998.393    23846008.512
       221.000         158.000
  -8003648.27649  -6219266.54847  20946996.672    20946996.509    20947003.923
       240.000         205.000
 00  5 25 14 30 29.9980000  0  7G24G 2G 5G 4G 7G26G 9
  -8200157.10249  -6364185.22146  22401936.898    22401936.724    22401947.456
       220.000         170.000
    434464.38649    340605.55447  21446640.685    21446640.186    21446648.634
       232.000         196.000
  -5783729.99249  -4495080.19545  23703238.730    23703238.342    23703249.000
       198.000         142.000
  -9205183.44049  -7156336.78247  20570416.824    20570417.025    20570425.096
       238.000         203.000
    300518.92149    237592.58047  20556477.230    20556476.702    20556484.362
       240.000         210.000
   4143995.79349   3225109.91945  23855637.813    23855637.950    23855648.068
       218.000         156.000
  -8077015.04749  -6276435.45447  20933035.460    20933035.316    20933042.691
       240.000         205.000
 00  5 25 14 30 59.9980000  0  7G24G 2G 5G 4G 7G26G 9
  -8331179.55749  -6466280.56746  22377004.077    22377003.937    22377014.672
       221.000         169.000
    454478.18149    356200.67047  21450449.262    21450448.730    21450457.189
       231.000         195.000
  -5896405.41849  -4582879.21245  23681797.109    23681796.722    23681807.691
       203.000         143.000
  -9294202.91949  -7225702.56947  20553476.978    20553477.188    20553485.249
       238.000         203.000
    320078.14949    252833.50847  20560199.263    20560198.730    20560206.359
       239.000         210.000
   4194789.51649   3264689.28645  23865303.579    23865303.752    23865313.742
       217.000         156.000
  -8149806.10149  -6333155.74947  20919183.833    20919183.672    20919191.053
       240.000         206.000
 00  5 25 14 31 29.9980000  0  7G24G 2G 5G 4G 7G26G 9
  -8461985.42849  -6568207.16346  22352112.478    22352112.299    22352122.992
       223.000         170.000
    474802.46949    372037.72447  21454316.886    21454316.390    21454324.781
       233.000         195.000
  -6009045.73849  -4670650.87045  23660362.583    23660362.051    23660372.951
       205.000         146.000
  -9382673.10849  -7294640.34747  20536641.668    20536641.882    20536649.892
       239.000         203.000
    339890.48649    268271.66947  20563969.460    20563968.936    20563976.563
       240.000         210.000
   4245688.35649   3304350.60945  23874989.320    23874989.412    23874999.625
       215.000         155.000
  -8222050.00149  -6389449.69447  20905436.277    20905436.094    20905443.551
       240.000         206.000
 00  5 25 14 31 59.9980000  0  7G24G 2G 5G 4G 7G26G 9
  -8592546.53149  -6669943.01746  22327267.557    22327267.332    22327278.115
       221.000         171.000
    495462.95349    388136.76247  21458248.430    21458247.946    21458256.357
       232.000         195.000
  -6121624.82149  -4758374.82245  23638939.715    23638939.108    23638949.738
       208.000         149.000
  -9470566.22449  -7363128.46647  20519916.125    20519916.360    20519924.347
       238.000         203.000
    359979.89049    283925.72347  20567792.334    20567791.811    20567799.492
       240.000         210.000
   4296714.97549   3344111.49145  23884699.348    23884699.494    23884709.932
       218.000         156.000
  -8293719.54249  -6445296.08847  20891797.966    20891797.804    20891805.325
       240.000         206.000
 00  5 25 14 32 29.9980000  0  7G24G 2G 5G 4G 7G26G 9
  -8722876.68749  -6771498.91446  22302466.426    22302466.352    22302477.152
       222.000         171.000
    516443.59749    404485.26747  21462240.977    21462240.450    21462248.910
       232.000         196.000
  -6234158.64949  -4846063.52045  23617525.400    23617524.856    23617535.151
       212.000         151.000
  -9557896.96949  -7431178.36247  20503297.567    20503297.833    20503305.790
       237.000         203.000
    380328.31449    299781.60647  20571664.584    20571664.041    20571671.655
       240.000         209.000
   4347849.75049   3383956.62645  23894430.122    23894430.259    23894440.846
       220.000         159.000
  -8364829.62049  -6500706.53247  20878266.147    20878265.984    20878273.555
       239.000         206.000
 00  5 25 14 32 59.9970000  0  7G24G 2G 5G 4G 7G26G 9
  -8852962.27649  -6872864.24246  22277711.966    22277711.867    22277722.570
       225.000         174.000
    537750.42349    421087.94547  21466295.570    21466295.038    21466303.577
       231.000         197.000
  -6346636.14949  -4933708.31845  23596121.797    23596121.232    23596131.356
       211.000         151.000
  -9644653.58349  -7498780.89147  20486788.273    20486788.538    20486796.528
       237.000         202.000
    400940.02849    315842.65447  20575586.849    20575586.337    20575593.954
       240.000         209.000
   4399094.79149   3423887.70545  23904181.797    23904182.024    23904192.585
       217.000         158.000
  -8435369.65049  -6555672.78547  20864842.820    20864842.667    20864850.267
       240.000         205.000
 00  5 25 14 33 29.9970000  0  7G24G 2G 5G 4G 7G26G 9
  -8982828.12349  -6974058.31246  22252999.471    22252999.294    22253009.864
       225.000         175.000
    559366.32249    437931.45247  21470408.957    21470408.467    21470417.031
       232.000         196.000
  -6459083.05849  -5021329.27345  23574723.749    23574723.330    23574733.438
       207.000         149.000
  -9730858.54749  -7565953.56247  20470383.957    20470384.219    20470392.218
       237.000         202.000
    421796.18849    332094.18047  20579555.673    20579555.153    20579562.807
       240.000         209.000
   4450431.50649   3463890.20345  23913950.661    23913951.040    23913961.884
       215.000         160.000
  -8505361.49949  -6610211.88747  20851523.816    20851523.657    20851531.264
       240.000         205.000
 00  5 25 14 33 59.9970000  0  7G24G 2G 5G 4G 7G26G 9
  -9112436.78649  -7075051.99346  22228335.690    22228335.596    22228346.174
       225.000         175.000
    581321.37649    455039.24847  21474586.948    21474586.409    21474594.943
       233.000         195.000
  -6571464.49349  -5108899.20545  23553338.294    23553337.786    23553347.761
       207.000         146.000
  -9816476.54149  -7632668.85647  20454091.375    20454091.628    20454099.627
       237.000         203.000
    442924.94749    348558.12347  20583576.373    20583575.883    20583583.485
       241.000         209.000
   4501885.70149   3503984.22345  23923742.238    23923742.523    23923753.572
       214.000         159.000
  -8574770.84749  -6664297.09547  20838315.618    20838315.467    20838323.071
       239.000         205.000
 00  5 25 14 34 29.9970000  0  7G24G 2G 5G 4G 7G26G 9
  -9241772.25349  -7175832.79846  22203724.029    22203723.948    22203734.447
       226.000         177.000
    603629.04749    472421.79847  21478832.044    21478831.433    21478840.026
       232.000         195.000
  -6683766.52849  -5196407.28245  23531967.999    23531967.424    23531977.542
       204.000         143.000
  -9901492.29549  -7698914.86447  20437913.411    20437913.671    20437921.643
       238.000         202.000
    464338.26149    365243.78947  20587651.267    20587650.750    20587658.327
       241.000         209.000
   4553467.91649   3544178.03245  23933558.278    23933558.499    23933569.473
       219.000         162.000
  -8643582.84549  -6717916.83447  20825221.133    20825220.965    20825228.557
       239.000         205.000
 00  5 25 14 34 59.9970000  0  7G24G 2G 5G 4G 7G26G 9
  -9370870.94949  -7276429.09146  22179157.424    22179157.260    22179167.892
       224.000         177.000
    626250.30749    490048.69847  21483136.621    21483136.100    21483144.730
       230.000         195.000
  -6796027.69949  -5283883.52745  23510605.232    23510604.670    23510615.120
       204.000         141.000
  -9985942.77849  -7764720.40647  20421842.965    20421843.242    20421851.239
       237.000         202.000
    485995.32149    382119.39647  20591772.494    20591771.962    20591779.567
       241.000         209.000
   4605135.89549   3584438.66446  23943390.448    23943390.697    23943401.762
       218.000         163.000
  -8711835.17349  -6771100.46847  20812233.127    20812232.977    20812240.593
       239.000         205.000
 00  5 25 14 35 29.9970000  0  7G24G 2G 5G 4G 7G26G 9
  -9499704.45049  -7376818.74946  22154641.113    22154640.969    22154651.686
       224.000         177.000
    649211.44549    507940.43847  21487505.937    21487505.493    21487514.135
       232.000         194.000
  -6908221.56149  -5371307.32445  23489255.552    23489254.805    23489265.150
       206.000         139.000
 -10069800.16649  -7830063.81047  20405885.421    20405885.665    20405893.714
       237.000         202.000
    507920.51149    399203.93947  20595944.725    20595944.206    20595951.801
       240.000         208.000
   4656912.60949   3624784.02446  23953243.310    23953243.617    23953254.565
       219.000         163.000
  -8779500.48349  -6823826.68147  20799356.782    20799356.677    20799364.353
       240.000         206.000
 00  5 25 14 35 59.9970000  0  7G24G 2G 5G 4G 7G26G 9
  -9628270.15849  -7476999.72146  22130175.772    22130175.626    22130186.430
       225.000         177.000
    672512.22149    526096.82847  21491940.090    21491939.589    21491948.143
       233.000         195.000
  -7020348.02349  -5458678.61845  23467918.633    23467917.950    23467927.903
       207.000         139.000
 -10153062.83249  -7894943.78447  20390041.033    20390041.295    20390049.311
       237.000         202.000
    530112.03049    416496.00547  20600167.636    20600167.115    20600174.694
       241.000         208.000
   4708794.78949   3665211.53146  23963116.403    23963116.659    23963127.629
       220.000         163.000
  -8846577.53649  -6876094.51647  20786592.479    20786592.351    20786600.051
       241.000         206.000
 00  5 25 14 36 29.9970000  0  7G24G 2G 5G 4G 7G26G 9
  -9756551.50149  -7576959.13146  22105764.477    22105764.362    22105775.163
       225.000         175.000
    696167.01249    544529.08347  21496441.632    21496441.069    21496449.560
       233.000         195.000
  -7132392.12249  -5545985.71945  23446597.411    23446596.893    23446606.435
       203.000         139.000
 -10235714.69749  -7959347.81447  20374312.947    20374313.197    20374321.132
       237.000         202.000
    552582.39949    434005.36147  20604443.656    20604443.128    20604450.674
       240.000         208.000
   4760793.58549   3705729.94145  23973011.688    23973011.829    23973022.849
       218.000         161.000
  -8913050.88149  -6927891.93347  20773943.073    20773942.941    20773950.611
       241.000         206.000
 00  5 25 14 36 59.9970000  0  7G24G 2G 5G 4G 7G26G 9
  -9884540.01649  -7676690.36646  22081408.922    22081408.921    22081419.547
       225.000         176.000
    720181.88149    563241.90847  21501011.550    21501011.001    21501019.565
       232.000         196.000
  -7244347.44049  -5633223.59745  23425292.983    23425292.518    23425301.848
       200.000         138.000
 -10317748.23949  -8023270.03247  20358702.428    20358702.682    20358710.595
       237.000         202.000
    575336.02749    451735.43247  20608773.571    20608773.070    20608780.552
       240.000         208.000
   4812911.81249   3746341.41745  23982929.713    23982929.727    23982940.869
       218.000         162.000
  -8978913.20549  -6979213.22447  20761409.910    20761409.776    20761417.417
       240.000         206.000
 00  5 25 14 37 29.9970000  0  7G24G 2G 5G 4G 7G26G 9
 -10012227.35849  -7776186.91646  22057110.774    22057110.782    22057121.441
       226.000         177.000
    744562.54649    582239.76947  21505651.097    21505650.548    21505659.166
       232.000         196.000
  -7356207.69649  -5720387.35245  23404006.856    23404006.475    23404015.290
       203.000         139.000
 -10399155.68449  -8086704.38347  20343211.068    20343211.352    20343219.250
       238.000         202.000
    598376.79449    469689.24847  20613158.084    20613157.603    20613165.112
       240.000         207.000
   4865152.14349   3787048.04345  23992870.773    23992870.814    23992882.113
       217.000         161.000
  -9044157.51049  -7030052.94247  20748994.378    20748994.252    20749001.893
       240.000         207.000
 00  5 25 14 37 59.9970000  0  7G24G 2G 5G 4G 7G26G 9
 -10139630.94649  -7875462.36146  22032866.657    22032866.598    22032877.336
       225.000         177.000
    769289.24349    601507.28147  21510356.523    21510355.984    21510364.566
       233.000         195.000
  -7467992.33749  -5807492.20845  23382734.828    23382734.489    23382743.405
       205.000         142.000
 -10479955.40549  -8149665.18747  20327835.390    20327835.641    20327843.514
       237.000         201.000
    621683.34249    487850.16447  20617593.187    20617592.692    20617600.235
       240.000         207.000
   4917491.58849   3827831.90345  24002830.751    24002830.832    24002841.836
       219.000         159.000
  -9108802.50049  -7080425.65747  20736692.791    20736692.687    20736700.374
       240.000         206.000
 00  5 25 14 38 29.9970000  0  7G24G 2G 5G 4G 7G26G 9
 -10266742.67349  -7974510.38046  22008678.076    22008677.949    22008688.835
       224.000         178.000
    794367.64649    621048.84647  21515128.811    21515128.277    21515136.873
       231.000         194.000
  -7579695.23849  -5894533.39545  23361478.331    23361478.165    23361487.150
       208.000         145.000
 -10560139.92749  -8212146.62647  20312576.738    20312577.008    20312584.946
       237.000         202.000
    645259.53849    506221.20647  20622079.634    20622079.117    20622086.675
       240.000         207.000
   4969932.54849   3868694.83245  24012810.105    24012810.231    24012821.191
       217.000         160.000
  -9172841.29749  -7130326.01747  20724506.568    20724506.484    20724514.209
       239.000         206.000
 00  5 25 14 38 59.9970000  0  7G24G 2G 5G 4G 7G26G 9
 -10393546.08849  -8073318.16446  21984548.112    21984548.033    21984559.003
       224.000         179.000
    819811.87949    640875.45847  21519970.698    21519970.157    21519978.728
       231.000         193.000
  -7691301.69949  -5981499.44245  23340240.304    23340240.000    23340249.041
       210.000         148.000
 -10639693.69249  -8274136.54747  20297438.134    20297438.404    20297446.420
       236.000         202.000
    669117.97749    524812.16447  20626619.722    20626619.218    20626626.806
       239.000         207.000
   5022486.19449   3909645.60645  24022810.902    24022811.027    24022821.979
       217.000         160.000
  -9236258.53549  -7179742.04747  20712438.659    20712438.543    20712446.318
       240.000         206.000
 00  5 25 14 39 29.9970000  0  7G24G 2G 5G 4G 7G26G 9
 -10520028.97249  -8171876.20146  21960479.183    21960479.102    21960490.032
       227.000         178.000
    845631.51749    660994.58347  21524884.052    21524883.561    21524892.052
       232.000         193.000
  -7802801.59049  -6068382.46345  23319022.530    23319022.149    23319031.267
       210.000         151.000
 -10718605.28549  -8335626.08247  20282421.827    20282422.042    20282430.035
       237.000         202.000
    693266.48449    543629.15847  20631215.045    20631214.530    20631222.166
       239.000         206.000
   5075159.03249   3950689.24545  24032834.271    24032834.451    24032845.546
       217.000         158.000
  -9299043.32449  -7228665.26647  20700491.117    20700490.984    20700498.749
       240.000         206.000
 00  5 25 14 39 59.9970000  0  7G24G 2G 5G 4G 7G26G 9
 -10646212.79349  -8270201.18846  21936467.263    21936467.088    21936477.980
       225.000         179.000
    871802.50549    681387.51047  21529864.273    21529863.786    21529872.222
       230.000         193.000
  -7914218.30849  -6155200.66345  23297820.453    23297820.192    23297829.549
       211.000         154.000
 -10796897.01149  -8396632.61147  20267523.360    20267523.611    20267531.625
       237.000         202.000
    717679.45049    562652.21847  20635860.646    20635860.156    20635867.833
       239.000         207.000
   5127923.82149   3991804.53545  24042875.303    24042875.416    24042886.346
       214.000         156.000
  -9361218.77849  -7277113.68347  20688659.524    20688659.419    20688667.127
       241.000         207.000
 00  5 25 14 40 29.9970000  0  7G24G 2G 5G 4G 7G26G 9
 -10772103.75849  -8368297.98746  21912510.950    21912510.849    21912521.676
       226.000         180.000
    898316.15649    702047.43647  21534909.701    21534909.139    21534917.674
       229.000         193.000
  -8025560.27149  -6241960.61445  23276632.847    23276632.523    23276642.082
       213.000         156.000
 -10874576.18249  -8457161.82047  20252741.509    20252741.753    20252749.751
       236.000         201.000
    742346.49149    581873.25747  20640554.677    20640554.143    20640561.860
       238.000         207.000
   5180768.93449   4032982.41245  24052931.456    24052931.586    24052942.476
       213.000         158.000
  -9422792.50249  -7325093.21847  20676942.494    20676942.392    20676949.988
       240.000         207.000
 00  5 25 14 40 59.9970000  0  7G24G 2G 5G 4G 7G26G 9
 -10897695.02849  -8466161.24746  21888611.879    21888611.724    21888622.432
       228.000         180.000
    925176.96049    722977.86847  21540021.139    21540020.565    21540029.191
       231.000         194.000
  -8136822.28449  -6328658.26745  23255460.550    23255460.179    23255469.681
       212.000         155.000
 -10951636.55049  -8517208.84847  20238077.338    20238077.643    20238085.565
       237.000         202.000
    767270.50749    601294.53647  20645297.552    20645297.046    20645304.789
       239.000         207.000
   5233695.76549   4074223.93945  24063003.149    24063003.299    24063014.326
       216.000         161.000
  -9483758.80449  -7372599.43847  20665341.039    20665340.946    20665348.471
       240.000         207.000
 00  5 25 14 41 29.9970000  0  7G24G 2G 5G 4G 7G26G 9
 -11022961.88549  -8563771.73746  21864774.475    21864774.272    21864784.882
       228.000         181.000
    952407.06549    744196.06747  21545202.867    21545202.312    21545210.994
       228.000         193.000
  -8247981.78449  -6415276.03245  23234307.393    23234307.174    23234316.722
       213.000         155.000
 -11028054.44449  -8576755.24547  20223535.512    20223535.808    20223543.770
       237.000         203.000
    792472.11549    620932.13047  20650093.312    20650092.769    20650100.562
       238.000         207.000
   5286723.26149   4115543.90845  24073093.986    24073094.134    24073105.209
       214.000         159.000
  -9544094.32349  -7419614.13547  20653859.560    20653859.481    20653867.062
       240.000         208.000
 00  5 25 14 41 59.9970000  0  7G24G 2G 5G 4G 7G26G 9
 -11147913.85149  -8661136.84746  21840996.895    21840996.693    21841007.315
       227.000         181.000
    979994.49049    765692.70147  21550452.585    21550452.087    21550460.869
       230.000         193.000
  -8359050.10849  -6501822.74045  23213171.699    23213171.448    23213181.240
       213.000         155.000
 -11103840.28649  -8635809.14647  20209113.939    20209114.245    20209122.201
       237.000         203.000
    817937.58149    640775.31647  20654939.237    20654938.704    20654946.551
       238.000         207.000
   5339836.45149   4156930.67845  24083201.125    24083201.401    24083212.302
       216.000         158.000
  -9603809.95149  -7466145.80047  20642496.042    20642495.967    20642503.635
       240.000         208.000
 00  5 25 14 42 29.9970000  0  7G24G 2G 5G 4G 7G26G 9
 -11272535.66849  -8758244.69146  21817282.070    21817281.933    21817292.523
       229.000         182.000
   1007951.96349    787477.68347  21555772.797    21555772.204    21555781.107
       227.000         191.000
  -8470013.72549  -6588287.85845  23192056.033    23192055.677    23192065.550
       213.000         155.000
 -11178979.77149  -8694359.38847  20194815.388    20194815.675    20194823.633
       237.000         203.000
    843678.07749    660832.80947  20659837.530    20659837.013    20659844.858
       239.000         208.000
   5393045.09049   4198391.81245  24093326.549    24093326.719    24093337.642
       213.000         157.000
  -9662891.56749  -7512183.42847  20631253.139    20631253.103    20631260.822
       240.000         208.000
 00  5 25 14 42 59.9970000  0  7G24G 2G 5G 4G 7G26G 9
 -11396838.19949  -8855103.76046  21793628.097    21793627.861    21793638.378
       227.000         182.000
   1036266.00349    809540.51547  21561160.695    21561160.172    21561169.100
       229.000         190.000
  -8580885.60449  -6674681.49445  23170957.905    23170957.657    23170967.423
       211.000         152.000
 -11253484.59249  -8752415.08247  20180637.617    20180637.907    20180645.849
       237.000         203.000
    869678.76949    681093.05147  20664785.379    20664784.809    20664792.679
       239.000         208.000
   5446332.85249   4239914.60645  24103466.951    24103467.124    24103478.067
       213.000         153.000
  -9721351.51749  -7557736.64147  20620128.583    20620128.520    20620136.250
       240.000         208.000
 00  5 25 14 43 29.9970000  0  7G24G 2G 5G 4G 7G26G 9
 -11520785.26349  -8951685.82346  21770041.641    21770041.441    21770051.959
       227.000         182.000
   1064970.48149    831907.56447  21566622.998    21566622.562    21566631.407
       230.000         190.000
  -8691631.37549  -6760976.87045  23149883.628    23149883.441    23149893.071
       211.000         149.000
 -11327319.67249  -8809948.90847  20166587.261    20166587.547    20166595.518
       237.000         203.000
    895971.75249    701581.04947  20669788.728    20669788.195    20669796.143
       238.000         208.000
   5499730.32449   4281522.87845  24113628.156    24113628.377    24113639.259
       213.000         156.000
  -9779155.34849  -7602778.60247  20609128.904    20609128.846    20609136.525
       240.000         208.000
 00  5 25 14 43 59.9970000  0  8G24G 2G16G 5G 4G 7G26G 9
 -11644423.13149  -9048026.98546  21746514.018    21746513.869    21746524.362
       228.000         182.000
   1094016.34449    854540.62747  21572150.387    21572149.861    21572158.667
       229.000         189.000
  -2145983.95759  -1656038.37255  24374836.570    24374836.270    24374848.592
       200.000         139.000
  -8802299.34949  -6847211.65945  23128824.293    23128823.996    23128833.417
       209.000         146.000
 -11400532.38949  -8866997.77647  20152655.378    20152655.650    20152663.574
       237.000         203.000
    922506.45349    722257.41147  20674838.127    20674837.581    20674845.596
       239.000         209.000
   5553185.65949   4323176.22745  24123800.559    24123800.705    24123811.770
       215.000         157.000
  -9836350.82749  -7647346.51447  20598244.973    20598244.894    20598252.558
       241.000         208.000
 00  5 25 14 44 29.9970000  0  8G24G 2G16G 5G 4G 7G26G 9
 -11767731.59249  -9144111.43546  21723049.079    21723048.997    21723059.493
       227.000         181.000
   1123421.71949    877453.83547  21577745.991    21577745.528    21577754.439
       229.000         190.000
  -2225634.30349  -1718103.37545  24359679.498    24359679.097    24359691.836
       203.000         137.000
  -8912870.78749  -6933371.19045  23107783.117    23107782.703    23107792.005
       206.000         146.000
 -11473103.25249  -8923546.48547  20138845.603    20138845.887    20138853.822
       237.000         204.000
    949299.51249    743135.08147  20679936.716    20679936.167    20679944.217
       239.000         209.000
   5606713.74949   4364886.27245  24133986.664    24133986.857    24133997.995
       216.000         158.000
  -9892918.69449  -7691425.38147  20587480.434    20587480.359    20587488.037
       240.000         209.000
 00  5 25 14 44 59.9970000  0  8G24G 2G16G 5G 4G 7G26G 9
 -11890700.99849  -9239931.70946  21699648.790    21699648.616    21699659.132
       228.000         182.000
   1153193.42449    900652.50247  21583411.507    21583411.006    21583419.882
       229.000         191.000
  -2304913.17449  -1779878.95245  24344593.134    24344592.964    24344605.689
       201.000         135.000
  -9023338.12149  -7019449.59945  23086761.901    23086761.423    23086770.648
       207.000         148.000
 -11545023.86149  -8979588.50947  20125159.611    20125159.897    20125167.791
       237.000         204.000
    976356.25949    764218.22547  20685085.483    20685084.961    20685092.978
       239.000         209.000
   5660318.72749   4406656.23045  24144187.547    24144187.728    24144198.818
       217.000         161.000
  -9948850.98449  -7735008.99647  20576836.923    20576836.820    20576844.506
       240.000         209.000
 00  5 25 14 45 29.9970000  0  8G24G 2G16G 5G 4G 7G26G 9
 -12013335.41649  -9335490.95346  21676312.161    21676312.011    21676322.445
       228.000         180.000
   1183325.10849    924131.67447  21589145.515    21589145.013    21589153.838
       228.000         190.000
  -2383824.09349  -1841367.78645  24329576.609    24329576.438    24329589.244
       196.000         136.000
  -9133707.07249  -7105451.33445  23065759.379    23065758.894    23065768.037
       205.000         148.000
 -11616299.07649  -9035127.63447  20111596.383    20111596.663    20111604.609
       238.000         205.000
   1003668.81149    785500.70347  20690282.905    20690282.424    20690290.408
       240.000         209.000
   5713991.13849   4448478.69945  24154401.155    24154401.310    24154412.726
       217.000         162.000
 -10004153.01149  -7778101.49747  20566313.316    20566313.215    20566320.968
       240.000         209.000
 00  5 25 14 45 59.9970000  0  8G24G 2G16G 5G 4G 7G26G 9
 -12135612.44549  -9430771.71046  21653043.531    21653043.383    21653053.775
       228.000         181.000
   1213836.61649    947906.78147  21594951.702    21594951.218    21594960.085
       229.000         189.000
  -2462344.88149  -1902552.62645  24314634.315    24314634.100    24314647.190
       198.000         132.000
  -9243957.17349  -7191360.44545  23044779.318    23044778.921    23044788.011
       207.000         147.000
 -11686907.84949  -9090147.45047  20098159.991    20098160.292    20098168.258
       238.000         205.000
   1031255.26449    806996.60947  20695532.485    20695532.023    20695539.963
       240.000         209.000
   5767747.59449   4490366.70345  24164630.832    24164630.931    24164642.441
       216.000         160.000
 -10058804.33949  -7820686.95847  20555913.586    20555913.479    20555921.186
       241.000         209.000
 00  5 25 14 46 29.9970000  0  8G24G 2G16G 5G 4G 7G26G 9
 -12257552.81449  -9525790.12846  21629838.988    21629838.811    21629849.232
       225.000         181.000
   1244704.56649    971959.66847  21600825.655    21600825.178    21600834.143
       226.000         188.000
  -2540496.20449  -1963449.67045  24299762.550    24299761.948    24299774.994
       200.000         133.000
  -9354110.85849  -7277194.45145  23023817.580    23023817.354    23023826.626
       209.000         149.000
 -11756871.98249  -9144664.94447  20084846.349    20084846.614    20084854.543
       239.000         205.000
   1059090.97149    828686.73547  20700829.498    20700829.043    20700836.981
       240.000         209.000
   5821562.12549   4532299.96345  24174871.441    24174871.628    24174883.121
       216.000         157.000
 -10112827.14249  -7862782.66047  20545633.389    20545633.315    20545640.980
       240.000         209.000
 00  5 25 14 46 59.9970000  0  8G24G 2G16G 5G 4G 7G26G 9
 -12379150.50249  -9620541.51146  21606699.508    21606699.472    21606709.865
       227.000         181.000
   1275932.57449    996293.09747  21606768.045    21606767.628    21606776.746
       226.000         188.000
  -2618271.58549  -2024053.68945  24284962.271    24284961.902    24284974.665
       204.000         138.000
  -9464163.96949  -7362950.10045  23002875.249    23002874.933    23002884.122
       209.000         150.000
 -11826186.49349  -9198676.24547  20071656.274    20071656.547    20071664.386
       239.000         205.000
   1087178.03849    850572.72647  20706174.432    20706173.915    20706181.820
       240.000         209.000
   5875435.25049   4574278.86445  24185123.209    24185123.441    24185134.867
       215.000         155.000
 -10166216.70249  -7904384.92447  20535473.714    20535473.650    20535481.292
       240.000         209.000
 00  5 25 14 47 29.9970000  0  8G24G 2G16G 5G 4G 7G26G 9
 -12500412.50349  -9715031.34346  21583624.087    21583624.010    21583634.339
       229.000         181.000
   1307510.80749   1020899.42847  21612777.244    21612776.820    21612785.993
       229.000         189.000
  -2695678.09949  -2084370.25045  24270232.336    24270231.839    24270244.171
       205.000         142.000
  -9574125.39749  -7448634.29745  22981950.507    22981950.019    22981959.203
       211.000         150.000
 -11894859.52349  -9252187.68847  20058588.256    20058588.514    20058596.349
       238.000         205.000
   1115505.34449    872645.91447  20711565.031    20711564.501    20711572.364
       240.000         209.000
   5929354.64749   4616293.81445  24195383.929    24195384.160    24195395.403
       210.000         150.000
 -10218981.49549  -7945500.35447  20525432.929    20525432.853    20525440.526
       240.000         208.000
 00  5 25 14 47 59.9970000  0  8G24G 2G16G 5G 4G 7G26G 9
 -12621334.46749  -9809256.20546  21560613.364    21560613.220    21560623.600
       227.000         182.000
   1339441.30549   1045780.24547  21618853.747    21618853.175    21618862.266
       228.000         190.000
  -2772711.09349  -2144395.82345  24255573.264    24255572.665    24255585.295
       199.000         141.000
  -9683992.22949  -7534244.77445  22961043.562    22961043.013    22961052.149
       207.000         149.000
 -11962887.75849  -9305196.69647  20045642.909    20045643.155    20045650.994
       238.000         205.000
   1144073.48349    894906.75747  20717001.431    20717000.907    20717008.710
       240.000         208.000
   5983319.30049   4658344.04245  24205653.152    24205653.470    24205664.769
       209.000         150.000
 -10271118.98249  -7986126.97947  20515511.445    20515511.364    20515519.068
       239.000         208.000
 00  5 25 14 48 29.9970000  0  8G24G 2G16G 5G 4G 7G26G 9
 -12741906.49649  -9903208.39246  21537669.141    21537669.027    21537679.454
       228.000         182.000
   1371731.26849   1070941.17647  21624998.433    21624997.876    21625006.963
       229.000         190.000
  -2849360.71449  -2204122.66845  24240987.235    24240986.691    24240999.178
       203.000         144.000
  -9793756.60349  -7619775.41345  22940156.055    22940155.555    22940164.727
       207.000         147.000
 -12030262.75549  -9357696.68447  20032821.887    20032822.158    20032829.947
       239.000         206.000
   1172888.16549    917359.72847  20722484.678    20722484.191    20722491.919
       241.000         208.000
   6037333.30549   4700432.71145  24215931.900    24215932.091    24215943.590
       208.000         148.000
 -10322620.83849  -8026258.30647  20505710.947    20505710.896    20505718.593
       240.000         208.000
 00  5 25 14 48 59.9970000  0  8G24G 2G16G 5G 4G 7G26G 9
 -12862135.80149  -9996893.50746  21514790.172    21514790.131    21514800.439
       230.000         183.000
   1404371.40249   1096374.96347  21631209.679    21631209.172    21631218.360
       227.000         188.000
  -2925633.77049  -2263556.10945  24226473.050    24226472.381    24226484.921
       204.000         149.000
  -9903427.27949  -7705233.04845  22919286.325    22919285.995    22919295.103
       205.000         149.000
 -12096992.54249  -9409693.90747  20020123.646    20020123.907    20020131.738
       238.000         206.000
   1201938.39849    939996.23947  20728012.803    20728012.323    20728019.958
       241.000         207.000
   6091384.48549   4742550.37145  24226217.480    24226217.819    24226229.101
       209.000         146.000
 -10373495.67449  -8065901.03547  20496029.829    20496029.745    20496037.407
       240.000         207.000
 00  5 25 14 49 29.9970000  0  8G24G 2G16G 5G 4G 7G26G 9
 -12982019.54049 -10090309.37246  21491977.128    21491977.016    21491987.120
       229.000         183.000
   1437361.72349   1122081.61946  21637487.450    21637487.036    21637496.348
       228.000         187.000
  -3001527.43549  -2322693.92745  24212030.766    24212030.227    24212042.961
       207.000         150.000
 -10013003.42349  -7790617.00645  22898434.616    22898434.254    22898443.408
       209.000         151.000
 -12163075.71649  -9461187.27847  20007548.309    20007548.625    20007556.516
       238.000         205.000
   1231223.06449    962815.41547  20733585.534    20733585.005    20733592.639
       240.000         207.000
   6145470.13549   4784694.86445  24236509.905    24236510.123    24236521.513
       209.000         144.000
 -10423742.22849  -8105054.20647  20486468.230    20486468.167    20486475.774
       240.000         207.000
 00  5 25 14 49 59.9970000  0  8G24G 2G16G 5G 4G 7G26G 9
 -13101555.72749 -10183454.38346  21469230.107    21469230.002    21469239.935
       232.000         183.000
   1470701.73849   1148060.77046  21643831.890    21643831.397    21643840.831
       225.000         187.000
  -3077039.53349  -2381534.41645  24197661.061    24197660.579    24197673.395
       198.000         146.000
 -10122484.50349  -7875926.91045  22877601.077    22877600.686    22877609.977
       207.000         153.000
 -12228511.35449  -9512176.07947  19995096.310    19995096.591    19995104.488
       238.000         205.000
   1260740.12749    985815.68747  20739202.432    20739201.937    20739209.568
       239.000         206.000
   6199586.78649   4826863.57145  24246808.047    24246808.189    24246819.982
       212.000         149.000
 -10473360.33049  -8143717.67747  20477026.235    20477026.189    20477033.668
       240.000         207.000
 00  5 25 14 50 29.9970000  0  8G24G 2G16G 5G 4G 7G26G 9
 -13220742.51649 -10276327.16346  21446549.570    21446549.467    21446559.334
       230.000         184.000
   1504390.73349   1174311.83346  21650242.648    21650242.199    21650251.710
       226.000         187.000
  -3152167.81549  -2440075.84845  24183364.409    24183364.007    24183376.943
       198.000         144.000
 -10231870.33149  -7961162.58745  22856785.469    22856785.060    22856794.698
       205.000         154.000
 -12293298.83349  -9562659.81747  19982767.656    19982767.939    19982775.800
       239.000         205.000
   1290487.63249   1008995.52847  20744863.223    20744862.745    20744870.387
       240.000         207.000
   6253731.01749   4869053.75245  24257111.303    24257111.599    24257123.591
       210.000         147.000
 -10522349.50949  -8181891.07947  20467704.001    20467703.922    20467711.289
       240.000         207.000
 00  5 25 14 50 59.9970000  0  8G24G 2G16G 5G 4G 7G26G 9
 -13339574.61949 -10368923.56246  21423936.587    21423936.490    21423946.341
       231.000         185.000
   1538431.46449   1200836.98847  21656720.654    21656720.160    21656729.483
       227.000         188.000
  -3226907.45349  -2498314.36945  24169141.783    24169141.370    24169154.318
       198.000         143.000
 -10341157.43749  -8046321.33145  22835988.642    22835988.288    22835998.082
       206.000         153.000
 -12357434.38649  -9612635.56647  19970563.141    19970563.389    19970571.198
       238.000         205.000
   1320466.85349   1032355.92647  20750568.158    20750567.636    20750575.336
       239.000         207.000
   6307902.73349   4911265.35745  24267419.811    24267420.151    24267432.421
       212.000         147.000
 -10570706.02849  -8219571.49447  20458502.031    20458501.969    20458509.359
       240.000         208.000
 00  5 25 14 51 29.9970000  0  8G24G 2G16G 5G 4G 7G26G 9
 -13458053.58849 -10461244.77846  21401390.756    21401390.675    21401400.643
       232.000         187.000
   1572819.68049   1227632.90146  21663264.615    21663264.122    21663273.373
       225.000         187.000
  -3301259.25949  -2556250.74145  24154992.935    24154992.606    24155005.557
       203.000         147.000
 -10450348.83449  -8131405.49645  22815210.132    22815209.601    22815219.540
       207.000         153.000
 -12420920.74349  -9662105.44647  19958482.070    19958482.336    19958490.156
       238.000         206.000
   1350672.37649   1055892.66047  20756316.037    20756315.531    20756323.331
       239.000         207.000
   6362094.95449   4953492.92745  24277732.345    24277732.737    24277745.067
       213.000         146.000
 -10618433.52449  -8256761.75947  20449419.763    20449419.695    20449427.188
       240.000         208.000
 00  5 25 14 51 59.9970000  0  8G24G 2G16G 5G 4G 7G26G 9
 -13576165.36549 -10553279.89147  21378914.871    21378914.814    21378924.820
       229.000         188.000
   1607566.83449   1254708.51146  21669876.791    21669876.277    21669885.586
       226.000         186.000
  -3375209.54349  -2613874.18345  24140920.700    24140920.334    24140933.127
       205.000         148.000
 -10559432.14449  -8216405.45645  22794452.159    22794451.699    22794461.629
       208.000         153.000
 -12483745.13149  -9711059.51247  19946526.995    19946527.263    19946535.113
       238.000         206.000
   1381114.36049   1079613.64747  20762108.970    20762108.457    20762116.318
       239.000         206.000
   6416316.48149   4995743.35545  24288050.399    24288050.695    24288063.168
       211.000         146.000
 -10665519.73949  -8293452.32747  20440459.528    20440459.458    20440467.096
       240.000         209.000
 00  5 25 14 52 29.9970000  0  8G24G 2G16G 5G 4G 7G26G 9
 -13693914.18249 -10645032.15646  21356508.108    21356508.012    21356518.008
       231.000         187.000
   1642666.45649   1282058.75346  21676556.065    21676555.493    21676564.856
       224.000         184.000
  -3448761.94049  -2671187.58045  24126924.053    24126923.660    24126936.386
       204.000         150.000
 -10668413.14849  -8301325.67145  22773713.644    22773713.261    22773723.193
       207.000         152.000
 -12545912.92249  -9759501.93847  19934696.844    19934697.133    19934705.008
       238.000         206.000
   1411784.94949   1103512.77647  20767945.435    20767944.944    20767952.784
       239.000         205.000
   6470557.86549   5038009.25245  24298372.254    24298372.552    24298385.025
       213.000         151.000
 -10711970.21849  -8329647.52247  20431620.345    20431620.276    20431627.949
       241.000         209.000
 00  5 25 14 52 59.9970000  0  8G24G 2G16G 5G 4G 7G26G 9
 -13811307.80049 -10736507.65246  21334168.893    21334168.727    21334178.716
       231.000         187.000
   1678108.01349   1309675.45446  21683300.426    21683299.852    21683309.240
       225.000         185.000
  -3521924.35949  -2728197.10345  24113001.680    24113001.208    24113013.982
       203.000         149.000
 -10777301.35349  -8386173.59145  22752992.637    22752992.392    22753002.460
       209.000         153.000
 -12607433.22349  -9807439.82047  19922989.954    19922990.246    19922998.087
       239.000         206.000
   1442672.34049   1127580.84647  20773823.089    20773822.611    20773830.474
       239.000         204.000
   6524806.00149   5080280.38945  24308695.572    24308695.784    24308708.158
       215.000         153.000
 -10757794.57049  -8365354.82247  20422900.305    20422900.243    20422907.891
       240.000         209.000
 00  5 25 14 53 29.9970000  0  8G24G 2G16G 5G 4G 7G26G 9
 -13928339.35849 -10827701.02847  21311898.405    21311898.285    21311908.341
       230.000         189.000
   1713895.75549   1337561.88246  21690110.661    21690110.087    21690119.546
       227.000         186.000
  -3594689.69449  -2784897.24145  24099154.639    24099154.287    24099167.275
       206.000         151.000
 -10886091.67649  -8470945.22845  22732290.516    22732290.238    22732300.196
       213.000         156.000
 -12668300.45949  -9854868.82447  19911407.320    19911407.611    19911415.387
       239.000         206.000
   1473779.56549   1151820.21147  20779742.665    20779742.110    20779750.016
       238.000         204.000
   6579062.34949   5122557.94345  24319020.471    24319020.674    24319032.684
       213.000         155.000
 -10802987.70649  -8400570.26447  20414300.396    20414300.340    20414307.928
       241.000         209.000
 00  5 25 14 53 59.9970000  0  8G24G 2G16G 5G 4G 7G26G 9
 -14045006.17849 -10918610.16847  21289697.352    21289697.279    21289707.385
       231.000         190.000
   1750029.93749   1365718.28146  21696986.904    21696986.323    21696995.716
       226.000         186.000
  -3667055.07449  -2841285.69045  24085383.907    24085383.510    24085396.467
       208.000         151.000
 -10994782.80549  -8555639.59745  22711607.358    22711607.022    22711616.766
       214.000         157.000
 -12728513.62749  -9901788.16047  19899949.098    19899949.393    19899957.129
       238.000         205.000
   1505105.50149   1176229.99747  20785703.732    20785703.273    20785711.160
       239.000         205.000
   6633324.46749   5164839.96745  24329346.031    24329346.346    24329358.386
       213.000         156.000
 -10847548.64749  -8435293.08647  20405820.724    20405820.636    20405828.248
       239.000         208.000
 00  5 25 14 54 29.9970000  0  8G24G 2G16G 5G 4G 7G26G 9
 -14161301.20849 -11009229.61547  21267567.154    21267567.082    21267577.195
       231.000         190.000
   1786514.83549   1394147.94446  21703929.852    21703929.250    21703938.696
       227.000         186.000
  -3739013.99749  -2897357.40845  24071690.540    24071690.035    24071703.065
       213.000         153.000
 -11103369.54249  -8640252.59445  22690944.133    22690943.776    22690953.385
       213.000         157.000
 -12788066.98649  -9948193.36847  19888616.423    19888616.731    19888624.504
       238.000         205.000
   1536653.25249   1200812.63147  20791707.093    20791706.602    20791714.535
       239.000         204.000
   6687593.88049   5207127.67545  24339673.259    24339673.657    24339685.474
       212.000         157.000
 -10891472.12549  -8469519.18347  20397462.356    20397462.279    20397469.927
       240.000         209.000
 00  5 25 14 54 59.9970000  0  8G24G 2G16G 5G 4G 7G26G 9
 -14277220.44449 -11099556.23847  21245508.519    21245508.420    21245518.450
       232.000         190.000
   1823352.21649   1422852.25946  21710939.856    21710939.297    21710948.763
       228.000         186.000
  -3810561.59549  -2953108.64445  24058075.574    24058074.975    24058087.735
       214.000         153.000
 -11211849.07749  -8724782.05645  22670301.177    22670300.888    22670310.510
       216.000         159.000
 -12846957.60749  -9994082.15647  19877409.888    19877410.226    19877417.978
       239.000         206.000
   1568423.21349   1225568.40847  20797752.767    20797752.271    20797760.155
       238.000         203.000
   6741869.62349   5249420.32845  24350001.801    24350002.164    24350013.921
       211.000         158.000
 -10934755.33049  -8503246.37547  20389225.879    20389225.788    20389233.417
       240.000         209.000
 00  5 25 14 55 29.9970000  0  8G24G 2G16G 5G 4G 7G26G 9
 -14392784.77249 -11189606.29447  21223517.331    21223517.190    21223527.268
       230.000         189.000
   1860518.54049   1451812.91246  21718012.496    21718011.968    21718021.402
       226.000         186.000
  -3881718.67649  -3008555.56045  24044534.695    24044534.235    24044546.838
       210.000         155.000
 -11320243.90649  -8809245.53845  22649674.464    22649674.133    22649683.758
       216.000         159.000
 -12905208.06849 -10039472.11447  19866325.239    19866325.523    19866333.306
       238.000         206.000
   1600390.55649   1250477.99247  20803835.938    20803835.495    20803843.320
       237.000         203.000
   6796125.44249   5291697.46645  24360326.342    24360326.705    24360338.642
       213.000         159.000
 -10977421.49049  -8536492.74547  20381106.825    20381106.747    20381114.346
       240.000         209.000
 00  5 25 14 55 59.9970000  0  8G24G 2G16G 5G 4G 7G26G 9
 -14507975.75449 -11279365.44547  21201597.147    21201597.047    21201607.135
       231.000         190.000
   1898029.55149   1481042.13146  21725150.659    21725150.172    21725159.610
       228.000         185.000
  -3952467.05649  -3063684.05845  24031071.532    24031071.150    24031083.778
       210.000         157.000
 -11428537.20949  -8893629.91745  22629066.900    22629066.618    22629076.025
       214.000         160.000
 -12962801.33449 -10084349.97847  19855365.595    19855365.899    19855373.644
       239.000         205.000
   1632570.12849   1275552.95447  20809959.568    20809959.120    20809966.913
       239.000         204.000
   6850374.63349   5333969.42045  24370649.794    24370650.110    24370662.273
       211.000         158.000
 -11019453.89949  -8569245.29047  20373108.357    20373108.277    20373115.912
       240.000         209.000
 00  5 25 14 56 29.9970000  0  8G24G 2G16G 5G 4G 7G26G 9
 -14622797.29949 -11368836.71847  21179747.364    21179747.214    21179757.331
       231.000         190.000
   1935878.68949   1510534.84946  21732353.293    21732352.773    21732362.187
       228.000         187.000
  -4022810.55349  -3118497.09645  24017685.586    24017685.173    24017697.785
       211.000         159.000
 -11536734.72649  -8977939.62045  22608477.664    22608477.268    22608486.726
       214.000         161.000
 -13019742.86749 -10128719.99247  19844530.000    19844530.286    19844537.999
       238.000         205.000
   1664954.15349   1300787.21947  20816122.069    20816121.646    20816129.466
       238.000         204.000
   6904607.92249   5376229.00645  24380970.188    24380970.461    24380982.798
       211.000         158.000
 -11060858.37649  -8601508.52747  20365229.333    20365229.251    20365236.954
       240.000         209.000
 00  5 25 14 56 59.9970000  0  8G24G 2G16G 5G 4G 7G26G 9
 -14737217.20349 -11457995.02847  21157973.886    21157973.706    21157983.964
       230.000         191.000
   1974095.69049   1540314.20746  21739625.975    21739625.440    21739634.817
       228.000         187.000
  -4092716.33549  -3172968.99245  24004382.971    24004382.583    24004394.936
       210.000         158.000
 -11644805.32549  -9062150.43845  22587912.496    22587912.132    22587921.694
       215.000         161.000
 -13076001.88949 -10172558.18147  19833824.194    19833824.475    19833832.209
       237.000         204.000
   1697571.05249   1326202.95347  20822328.956    20822328.491    20822336.281
       238.000         203.000
   6958852.41949   5418497.31145  24391292.740    24391293.012    24391305.482
       207.000         156.000
 -11101604.21649  -8633258.54347  20357475.703    20357475.581    20357483.276
       239.000         208.000
 00  5 25 14 57 29.9970000  0  8G24G 2G16G 5G 4G 7G26G 9
 -14851210.14349 -11546820.63847  21136281.593    21136281.485    21136291.850
       231.000         191.000
   2012703.29949   1570397.92346  21746972.956    21746972.394    21746981.758
       229.000         186.000
  -4162159.49849  -3227080.41645  23991168.316    23991167.891    23991180.285
       209.000         157.000
 -11752725.09749  -9146243.72545  22567376.090    22567375.679    22567385.228
       218.000         162.000
 -13131554.44949 -10215845.89047  19823252.866    19823253.177    19823260.891
       238.000         205.000
   1730442.55449   1351817.08947  20828584.205    20828583.731    20828591.487
       237.000         202.000
   7013128.43349   5460790.17745  24401621.098    24401621.389    24401634.170
       207.000         155.000
 -11141668.12549  -8664477.18747  20349851.787    20349851.688    20349859.382
       240.000         208.000
 00  5 25 14 57 59.9970000  0  8G24G 2G16G 5G 4G 7G26G 9
 -14964817.11849 -11635345.49447  21114662.865    21114662.740    21114673.095
       231.000         191.000
   2051657.82749   1600752.00246  21754385.919    21754385.324    21754394.704
       227.000         186.000
  -4231180.52249  -3280862.96845  23978033.682    23978033.335    23978045.876
       213.000         159.000
 -11860536.66249  -9230252.71146  22546860.231    22546859.839    22546869.273
       217.000         165.000
 -13186442.97449 -10258616.15547  19812807.985    19812808.280    19812815.918
       239.000         205.000
   1763523.94049   1377594.76347  20834879.286    20834878.876    20834886.657
       236.000         201.000
   7067389.59249   5503071.47245  24411946.685    24411947.130    24411960.003
       201.000         151.000
 -11181093.09549  -8695197.95847  20342349.495    20342349.400    20342357.061
       240.000         208.000
 00  5 25 14 58 29.9970000  0  8G24G 2G16G 5G 4G 7G26G 9
 -15078060.86449 -11723587.31847  21093113.197    21093113.089    21093123.363
       231.000         191.000
   2090934.09049   1631356.72946  21761860.037    21761859.485    21761868.873
       229.000         184.000
  -4299802.62249  -3334334.58145  23964975.348    23964974.848    23964987.319
       214.000         161.000
 -11968264.35449  -9314196.33546  22526360.320    22526359.888    22526369.311
       220.000         167.000
 -13240692.02849 -10300888.13947  19802484.772    19802485.069    19802492.641
       238.000         205.000
   1796788.46649   1403515.13747  20841209.360    20841208.919    20841216.755
       237.000         202.000
   7121607.88149   5545319.32745  24422264.075    24422264.548    24422277.591
       200.000         149.000
 -11219903.82949  -8725440.10147  20334964.087    20334964.017    20334971.631
       240.000         208.000
 00  5 25 14 58 59.9970000  0  8G24G 2G16G 5G 4G 7G26G 9
 -15190942.18649 -11811546.72247  21071632.638    21071632.510    21071642.630
       233.000         192.000
   2130528.80549   1662209.63146  21769394.847    21769394.247    21769403.541
       227.000         184.000
  -4368026.04149  -3387495.60045  23951992.900    23951992.411    23952004.613
       214.000         160.000
 -12075909.90449  -9398075.95346  22505876.024    22505875.633    22505884.975
       220.000         168.000
 -13294303.92449 -10342663.63747  19792282.702    19792283.035    19792290.646
       237.000         204.000
   1830231.99049   1429575.00247  20847573.555    20847573.097    20847580.896
       237.000         203.000
   7175777.70649   5587529.44345  24432572.225    24432572.524    24432585.718
       198.000         147.000
 -11258102.74849  -8755205.50847  20327695.066    20327695.008    20327702.607
       240.000         208.000
 00  5 25 14 59 29.9970000  0  8G24G 2G16G 5G 4G 7G26G 9
 -15303435.46349 -11899203.76847  21050225.858    21050225.715    21050235.740
       233.000         192.000
   2170465.08849   1693328.69546  21776994.467    21776993.870    21777003.249
       224.000         183.000
  -4435825.15349  -3440325.94445  23939091.039    23939090.683    23939102.680
       213.000         159.000
 -12183449.51549  -9481873.02646  22485411.848    22485411.530    22485420.691
       224.000         169.000
 -13347254.23349 -10383923.61647  19782206.531    19782206.873    19782214.551
       236.000         204.000
   1863876.22349   1455791.25247  20853975.856    20853975.448    20853983.268
       238.000         203.000
   7229919.29849   5629717.55145  24442875.288    24442875.431    24442888.601
       203.000         151.000
 -11295666.32149  -8784475.84247  20320546.939    20320546.894    20320554.505
       240.000         208.000
 00  5 25 14 59 59.9970000  0  8G24G 2G16G 5G 4G 7G26G 9
 -15415564.55249 -11986577.02147  21028888.392    21028888.254    21028898.181
       234.000         193.000
   2210716.49949   1724693.29246  21784654.087    21784653.517    21784662.917
       225.000         183.000
  -4503223.75249  -3492844.26445  23926265.235    23926265.036    23926277.125
       212.000         158.000
 -12290908.34849  -9565607.13646  22464963.202    22464962.808    22464971.887
       224.000         169.000
 -13399568.61649 -10424688.05947  19772251.422    19772251.772    19772259.446
       237.000         204.000
   1897693.85449   1482142.61447  20860411.276    20860410.784    20860418.631
       239.000         203.000
   7284003.93749   5671861.27845  24453167.523    24453167.807    24453180.628
       204.000         149.000
 -11332620.18249  -8813271.06947  20313514.865    20313514.815    20313522.428
       240.000         208.000
 00  5 25 15  0 29.9970000  0  8G24G 2G16G 5G 4G 7G26G 9
 -15527322.44149 -12073661.05147  21007621.599    21007621.467    21007631.327
       234.000         194.000
   2251287.33049   1756306.78646  21792374.566    21792374.015    21792383.388
       227.000         183.000
  -4570214.91949  -3545045.08845  23913517.234    23913516.959    23913528.896
       212.000         159.000
 -12398280.86249  -9649273.98846  22444530.928    22444530.504    22444539.553
       221.000         168.000
 -13451241.79549 -10464952.85847  19762418.375    19762418.716    19762426.319
       237.000         203.000
   1931688.10349   1508631.60447  20866880.185    20866879.719    20866887.611
       237.000         204.000
   7338033.26149   5713961.93145  24463448.999    24463449.374    24463461.873
       202.000         149.000
 -11368959.36249  -8841587.32947  20306599.803    20306599.742    20306607.370
       239.000         209.000
 00  5 25 15  0 59.9970000  0  8G24G 2G16G 5G 4G 7G26G 9
 -15638691.53049 -12160442.11547  20986428.825    20986428.656    20986438.482
       234.000         193.000
   2292192.60849   1788180.89746  21800158.646    21800158.174    21800167.530
       228.000         184.000
  -4636780.75749  -3596914.48645  23900850.010    23900849.668    23900861.796
       217.000         161.000
 -12505550.70349  -9732860.83646  22424117.945    22424117.606    22424126.822
       221.000         168.000
 -13502257.62349 -10504705.44047  19752710.409    19752710.748    19752718.235
       237.000         203.000
   1965872.99649   1535269.14647  20873385.387    20873384.915    20873392.861
       238.000         204.000
   7392020.04449   5756029.40645  24473722.566    24473722.751    24473735.462
       204.000         151.000
 -11404667.89049  -8869412.16647  20299804.699    20299804.651    20299812.342
       240.000         209.000
 00  5 25 15  1 29.9970000  0  8G24G 2G16G 5G 4G 7G26G 9
 -15749683.65349 -12246929.41947  20965307.661    20965307.483    20965317.354
       235.000         193.000
   2333417.95249   1820304.40746  21808003.755    21808003.273    21808012.542
       227.000         183.000
  -4702933.22749  -3648461.75045  23888261.873    23888261.423    23888273.364
       216.000         162.000
 -12612731.23949  -9816378.11046  22403722.050    22403721.724    22403731.090
       221.000         168.000
 -13552629.80349 -10543956.49547  19743124.951    19743125.245    19743132.701
       237.000         203.000
   2000233.05049   1562043.17447  20879924.017    20879923.464    20879931.427
       239.000         204.000
   7445947.09949   5798050.36245  24483984.669    24483984.716    24483997.602
       200.000         148.000
 -11439759.83149  -8896756.55947  20293126.968    20293126.875    20293134.585
       240.000         208.000
 00  5 25 15  1 59.9970000  0  8G24G 2G16G 5G 4G 7G26G 9
 -15860288.93749 -12333115.31447  20944260.077    20944259.953    20944269.792
       233.000         193.000
   2374970.67049   1852683.01346  21815911.130    21815910.644    21815919.912
       226.000         183.000
  -4768662.09249  -3699678.92545  23875753.922    23875753.511    23875765.452
       210.000         158.000
 -12719813.74449  -9899818.97746  22383344.937    22383344.582    22383353.880
       222.000         168.000
 -13602349.64349 -10582699.23747  19733663.533    19733663.869    19733671.344
       237.000         204.000
   2034774.71649   1588958.72547  20886497.081    20886496.579    20886504.564
       238.000         204.000
   7499819.42449   5840028.67845  24494236.062    24494236.342    24494249.178
       205.000         147.000
 -11474227.16849  -8923614.24547  20286568.076    20286567.974    20286575.638
       240.000         208.000
 00  5 25 15  2 29.9970000  0  8G24G 2G16G 5G 4G 7G26G 9
 -15970500.19849 -12418994.15847  20923287.447    20923287.403    20923297.244
       234.000         193.000
   2416855.25449   1885320.21246  21823881.577    21823881.086    21823890.493
       226.000         182.000
  -4833960.48249  -3750560.73045  23863327.997    23863327.602    23863339.518
       215.000         161.000
 -12826792.18449  -9983178.75546  22362987.639    22362987.286    22362996.420
       222.000         168.000
 -13651412.03549 -10620929.66547  19724327.336    19724327.665    19724335.070
       238.000         204.000
   2069501.46649   1616018.50047  20893105.399    20893104.872    20893112.884
       238.000         203.000
   7553639.27649   5881966.09945  24504477.692    24504478.027    24504490.819
       199.000         146.000
 -11508064.67849  -8949981.15247  20280129.051    20280128.944    20280136.565
       240.000         208.000
 00  5 25 15  2 59.9970000  0  8G24G 2G16G 5G 4G 7G26G 9
 -16080319.13049 -12504567.29847  20902389.647    20902389.556    20902399.373
       235.000         194.000
   2459067.55849   1918212.80046  21831914.365    21831913.892    21831923.341
       221.000         180.000
  -4898829.70449  -3801108.07345  23850983.794    23850983.308    23850995.236
       216.000         161.000
 -12933669.65149 -10066459.86346  22342649.673    22342649.221    22342658.177
       222.000         168.000
 -13699820.31849 -10658650.39847  19715115.645    19715115.915    19715123.213
       237.000         203.000
   2104408.09549   1643218.44047  20899747.968    20899747.448    20899755.409
       238.000         204.000
   7607399.98249   5923857.38845  24514708.227    24514708.476    24514721.469
       204.000         147.000
 -11541276.18649  -8975860.27047  20273809.129    20273809.050    20273816.681
       239.000         208.000
 00  5 25 15  3 29.9970000  0  8G24G 2G16G 5G 4G 7G26G 9
 -16189756.38549 -12589843.03247  20881564.423    20881564.328    20881574.136
       235.000         193.000
   2501594.44849   1951350.49446  21840007.085    21840006.639    21840015.940
       225.000         179.000
  -4963280.26749  -3851329.17545  23838719.147    23838718.796    23838730.541
       214.000         161.000
 -13040458.00849 -10149671.53146  22322328.546    22322327.985    22322337.007
       221.000         169.000
 -13747586.71849 -10695870.95647  19706026.028    19706026.266    19706033.515
       237.000         202.000
   2139480.39949   1670547.47647  20906422.016    20906421.534    20906429.473
       237.000         203.000
   7661085.87649   5965690.39145  24524924.612    24524924.798    24524937.723
       200.000         143.000
 -11573874.19949  -9001261.33647  20267605.920    20267605.854    20267613.514
       239.000         208.000
 00  5 25 15  3 59.9970000  0  7G24G 2G16G 5G 4G 7G 9
 -16298804.02249 -12674815.17847  20860813.308    20860813.216    20860823.018
       234.000         193.000
   2544441.15949   1984737.40046  21848160.581    21848160.229    21848169.589
       226.000         182.000
  -5027304.65349  -3901218.24545  23826535.342    23826535.104    23826547.023
       212.000         160.000
 -13147150.70449 -10232808.65946  22302025.472    22302025.020    22302033.932
       223.000         170.000
 -13794705.00949 -10732586.51947  19697059.658    19697059.912    19697067.171
       236.000         202.000
   2174722.65249   1698008.93947  20913128.426    20913127.961    20913135.874
       237.000         204.000
 -11605852.97749  -9026179.88747  20261520.587    20261520.537    20261528.190
       240.000         208.000
 00  5 25 15  4 29.9970000  0  7G24G 2G16G 5G 4G 7G 9
 -16407461.49349 -12759483.29547  20840136.429    20840136.348    20840146.130
       233.000         193.000
   2587605.63949   2018371.93246  21856374.788    21856374.295    21856383.778
       225.000         181.000
  -5090901.93649  -3950774.50045  23814433.272    23814432.947    23814444.727
       212.000         160.000
 -13253748.54049 -10315871.88646  22281740.485    22281740.072    22281748.915
       220.000         169.000
 -13841176.43749 -10768798.03447  19688216.368    19688216.653    19688224.013
       236.000         203.000
   2210132.03849   1725600.63747  20919866.585    20919866.095    20919874.104
       238.000         203.000
 -11637213.97049  -9050617.04647  20255552.870    20255552.788    20255560.441
       240.000         209.000
 00  5 25 15  4 59.9970000  0  7G24G 2G16G 5G 4G 7G 9
 -16515728.68549 -12843847.29647  20819533.786    20819533.717    20819543.488
       233.000         193.000
   2631085.62349   2052252.30346  21864648.830    21864648.336    21864657.953
       226.000         181.000
  -5154071.90549  -3999997.74046  23802412.394    23802412.076    23802423.849
       215.000         163.000
 -13360252.51049 -10398861.95046  22261473.356    22261473.005    22261481.846
       221.000         170.000
 -13887002.52449 -10804506.67447  19679495.987    19679496.264    19679503.643
       236.000         203.000
   2245705.23349   1753319.97847  20926635.909    20926635.437    20926643.504
       237.000         203.000
 -11667958.98149  -9074574.21747  20249702.284    20249702.208    20249709.864
       239.000         208.000
 00  5 25 15  5 29.9970000  0  7G24G 2G16G 5G 4G 7G 9
 -16623585.91749 -12927891.83447  20799009.169    20799009.118    20799018.844
       235.000         193.000
   2674897.89049   2086391.60446  21872986.058    21872985.583    21872995.264
       222.000         179.000
  -5216794.91449  -4048872.66645  23790476.570    23790476.181    23790487.890
       213.000         162.000
 -13466644.21949 -10481764.54746  22241227.716    22241227.330    22241236.220
       221.000         171.000
 -13932165.72749 -10839698.77947  19670901.715    19670902.023    19670909.390
       236.000         203.000
   2281458.15749   1781179.36347  20933439.479    20933439.035    20933447.122
       238.000         204.000
 -11698070.77949  -9098037.97547  20243972.147    20243972.085    20243979.748
       239.000         208.000
 00  5 25 15  5 59.9960000  0  7G24G 2G16G 5G 4G 7G 9
 -16731025.96849 -13011611.31747  20778563.971    20778563.914    20778573.626
       233.000         193.000
   2719042.43449   2120789.80346  21881386.370    21881385.967    21881395.888
       225.000         180.000
  -5279065.17249  -4097394.86245  23778626.756    23778626.405    23778638.225
       212.000         161.000
 -13572917.55449 -10564574.90346  22221004.685    22221004.221    22221013.178
       222.000         170.000
 -13976662.36849 -10874371.49147  19662434.307    19662434.594    19662441.987
       235.000         203.000
   2317390.08849   1809178.23347  20940277.214    20940276.733    20940284.783
       239.000         204.000
 -11727546.56249  -9121006.14047  20238363.032    20238363.016    20238370.721
       239.000         208.000
 00  5 25 15  6 29.9960000  0  7G24G 2G16G 5G 4G 7G 9
 -16838069.30949 -13095021.66947  20758194.174    20758194.146    20758203.936
       233.000         193.000
   2763506.11749   2155436.68446  21889847.677    21889847.247    21889857.188
       224.000         179.000
  -5340900.54249  -4145578.15445  23766859.777    23766859.407    23766871.308
       210.000         158.000
 -13679094.13649 -10647309.88146  22200799.946    22200799.538    22200808.486
       223.000         172.000
 -14020510.68649 -10908539.01947  19654090.153    19654090.464    19654097.951
       235.000         202.000
   2353486.42049   1837305.21547  20947146.201    20947145.712    20947153.750
       238.000         203.000
 -11756403.66249  -9143492.21447  20232871.796    20232871.753    20232879.424
       239.000         209.000
 00  5 25 15  6 59.9960000  0  7G24G 2G16G 5G 4G 7G 9
 -16944709.11249 -13178117.55747  20737901.254    20737901.228    20737911.115
       235.000         194.000
   2808288.16149   2190331.64246  21898369.617    21898369.147    21898378.915
       224.000         179.000
  -5402295.06149  -4193417.92145  23755176.534    23755176.170    23755188.198
       215.000         160.000
 -13785168.25649 -10729964.99346  22180614.760    22180614.292    22180623.278
       221.000         173.000
 -14063707.67749 -10942199.02247  19645870.046    19645870.330    19645877.822
       235.000         202.000
   2389745.90849   1865559.35647  20954046.221    20954045.716    20954053.747
       237.000         203.000
 -11784640.14649  -9165494.68147  20227498.619    20227498.541    20227506.229
       240.000         209.000
 00  5 25 15  7 29.9960000  0  7G24G 2G16G 5G 4G 7G 9
 -17050952.59549 -13260904.64747  20717683.789    20717683.759    20717693.741
       235.000         195.000
   2853378.63349   2225466.94446  21906950.125    21906949.742    21906959.375
       224.000         177.000
  -5463256.09449  -4240919.92345  23743575.960    23743575.549    23743587.534
       210.000         158.000
 -13891148.28449 -10812546.79246  22160447.228    22160446.832    22160455.918
       219.000         173.000
 -14106262.29049 -10975358.47147  19637772.180    19637772.472    19637779.972
       236.000         203.000
   2426157.95549   1893932.34747  20960975.201    20960974.722    20960982.759
       238.000         203.000
 -11812265.24949  -9187020.75747  20222241.759    20222241.696    20222249.394
       240.000         209.000
 00  5 25 15  7 59.9960000  0  7G24G 2G16G 5G 4G 7G 9
 -17156800.54949 -13343383.54147  20697541.580    20697541.564    20697551.521
       235.000         194.000
   2898774.30249   2260840.02046  21915588.772    21915588.391    21915597.987
       223.000         181.000
  -5523784.56649  -4288084.86745  23732057.507    23732057.177    23732069.120
       212.000         160.000
 -13997036.07449 -10895056.72346  22140297.337    22140297.015    22140306.094
       220.000         173.000
 -14148177.50749 -11008019.68847  19629795.989    19629796.296    19629803.787
       236.000         203.000
   2462718.30149   1922420.88347  20967932.432    20967931.937    20967940.012
       237.000         203.000
 -11839281.88949  -9208072.70647  20217100.673    20217100.598    20217108.342
       239.000         209.000
 00  5 25 15  8 29.9960000  0  7G24G 2G16G 5G 4G 7G 9
 -17262281.58249 -13425576.51547  20677469.192    20677469.126    20677479.095
       235.000         195.000
   2944444.17249   2296426.76946  21924279.723    21924279.250    21924288.917
       222.000         179.000
  -5583908.90449  -4334934.85645  23720616.274    23720616.025    23720627.774
       213.000         162.000
 -14102861.39049 -10977517.95546  22120159.522    22120159.123    22120168.097
       222.000         175.000
 -14189483.26549 -11040206.00347  19621935.764    19621936.062    19621943.581
       235.000         203.000
   2499395.02549   1951000.12147  20974911.805    20974911.283    20974919.381
       238.000         202.000
 -11865720.66449  -9228674.37247  20212069.525    20212069.492    20212077.257
       240.000         209.000
 00  5 25 15  8 59.9960000  0  7G24G 2G16G 5G 4G 7G 9
 -17367378.38349 -13507470.08247  20657469.919    20657469.870    20657479.800
       234.000         195.000
   2990402.99249   2332238.68346  21933025.402    21933025.047    21933034.802
       222.000         179.000
  -5643611.79849  -4381456.47345  23709255.217    23709254.869    23709266.701
       212.000         162.000
 -14208607.96049 -11059917.83746  22100036.720    22100036.272    22100045.131
       222.000         176.000
 -14230164.53149 -11071905.69847  19614194.357    19614194.695    19614202.243
       236.000         203.000
   2536202.19049   1979681.00447  20981916.030    20981915.485    20981923.611
       237.000         201.000
 -11891566.65649  -9248814.12747  20207151.241    20207151.178    20207158.980
       240.000         209.000
 00  5 25 15  9 29.9960000  0  7G24G 2G16G 5G 4G 7G 9
 -17472111.89749 -13589080.56447  20637539.888    20637539.764    20637549.564
       235.000         195.000
   3036627.04949   2368257.26446  21941821.579    21941821.292    21941831.189
       222.000         179.000
  -5702914.27049  -4427666.09145  23697970.261    23697969.912    23697981.804
       208.000         160.000
 -14314297.75249 -11142273.46846  22079924.688    22079924.134    22079933.028
       221.000         175.000
 -14270244.30849 -11103136.70147  19606567.501    19606567.806    19606575.285
       236.000         203.000
   2573115.25249   2008444.38547  20988940.354    20988939.793    20988947.978
       235.000         201.000
 -11916842.90049  -9268509.92847  20202341.395    20202341.329    20202349.130
       240.000         210.000
 00  5 25 15  9 59.9960000  0  7G24G 2G16G 5G 4G 7G 9
 -17576433.33249 -13670369.96547  20617688.110    20617688.031    20617697.708
       237.000         196.000
   3083162.52849   2404518.53146  21950677.180    21950676.778    21950686.761
       223.000         178.000
  -5761767.37649  -4473525.52045  23686770.819    23686770.577    23686782.282
       212.000         159.000
 -14419882.82149 -11224547.50646  22059832.304    22059831.875    22059840.856
       222.000         173.000
 -14309675.37249 -11133862.21947  19599063.980    19599064.322    19599071.810
       237.000         203.000
   2610179.82449   2037325.83747  20995993.514    20995992.933    20996001.120
       236.000         200.000
 -11941502.67849  -9287725.36947  20197648.832    20197648.772    20197656.512
       241.000         209.000
 00  5 25 15 10 29.9960000  0  7G24G 2G16G 5G 4G 7G 9
 -17680357.62949 -13751349.89047  20597911.916    20597911.836    20597921.516
       235.000         197.000
   3129991.98149   2441008.86746  21959588.520    21959588.163    21959598.240
       222.000         175.000
  -5820186.25549  -4519046.63145  23675654.058    23675653.803    23675665.474
       202.000         155.000
 -14525379.42649 -11306752.60546  22039756.943    22039756.454    22039765.488
       220.000         171.000
 -14348474.87449 -11164095.61247  19591680.708    19591681.046    19591688.517
       237.000         204.000
   2647377.61449   2066311.09747  21003071.953    21003071.406    21003079.624
       236.000         199.000
 -11965563.42749  -9306474.03547  20193070.227    20193070.196    20193077.898
       240.000         209.000
 00  5 25 15 10 59.9960000  0  7G24G 2G16G 5G 4G 7G 9
 -17783893.80249 -13832027.38747  20578209.610    20578209.557    20578219.220
       236.000         197.000
   3177103.91849   2477719.28846  21968553.773    21968553.454    21968563.601
       225.000         179.000
  -5878179.72249  -4564236.27845  23664618.013    23664617.761    23664629.516
       205.000         152.000
 -14630797.27649 -11388896.34646  22019696.461    22019696.052    22019705.101
       221.000         172.000
 -14386653.52549 -11193845.23147  19584415.606    19584415.910    19584423.399
       236.000         204.000
   2684696.35749   2095390.59947  21010173.492    21010172.921    21010181.164
       235.000         199.000
 -11989036.09549  -9324764.44947  20188603.525    20188603.462    20188611.230
       239.000         209.000
 00  5 25 15 11 29.9960000  0  7G24G 2G16G 5G 4G 7G 9
 -17887024.60649 -13912389.02047  20558584.489    20558584.424    20558594.032
       236.000         198.000
   3224512.86949   2514661.13646  21977575.612    21977575.214    21977585.396
       223.000         177.000
  -5935730.66049  -4609081.00845  23653666.611    23653666.279    23653677.723
       207.000         156.000
 -14736120.26149 -11470966.17646  21999654.187    21999653.818    21999662.751
       222.000         173.000
 -14424196.24649 -11223099.31647  19577271.499    19577271.815    19577279.306
       237.000         204.000
   2722150.07149   2124575.27047  21017300.729    21017300.146    21017308.349
       235.000         198.000
 -12011905.81549  -9342585.03347  20184251.520    20184251.490    20184259.341
       240.000         209.000
 00  5 25 15 11 59.9960000  0  7G24G 2G16G 5G 4G 7G 9
 -17989742.92149 -13992429.22347  20539037.867    20539037.811    20539047.373
       237.000         199.000
   3272223.43549   2551838.05046  21986654.609    21986654.245    21986664.486
       220.000         174.000
  -5992832.09549  -4653575.48745  23642800.598    23642800.189    23642811.638
       207.000         154.000
 -14841342.32949 -11552957.35746  21979631.074    21979630.683    21979639.691
       222.000         174.000
 -14461097.83349 -11251853.81547  19570249.435    19570249.747    19570257.189
       237.000         205.000
   2759742.54949   2153868.06747  21024454.303    21024453.756    21024461.889
       233.000         198.000
 -12034167.82549  -9359932.08147  20180015.238    20180015.200    20180023.107
       240.000         209.000
 00  5 25 15 12 29.9960000  0  7G24G 2G16G 5G 4G 7G 9
 -18092043.61149 -14072144.00147  20519570.728    20519570.610    20519580.164
       237.000         199.000
   3320238.27149   2589252.02146  21995791.560    21995791.281    21995801.540
       222.000         176.000
  -6049478.39449  -4697715.32945  23632021.022    23632020.659    23632032.091
       204.000         153.000
 -14946459.12649 -11634866.50046  21959627.949    21959627.558    21959636.589
       221.000         174.000
 -14497355.12749 -11280106.26147  19563349.963    19563350.278    19563357.683
       237.000         205.000
   2797475.82049   2183270.57747  21031634.737    21031634.215    21031642.325
       234.000         198.000
 -12055818.82549  -9376803.01447  20175895.224    20175895.205    20175903.130
       240.000         210.000
 00  5 25 15 12 59.9960000  0  7G24G 2G16G 5G 4G 7G 9
 -18193933.88449 -14151538.98347  20500181.598    20500181.543    20500191.005
       237.000         200.000
   3368547.32749   2626895.28846  22004984.774    22004984.424    22004994.679
       221.000         177.000
  -6105677.29049  -4741506.55245  23621326.661    23621326.124    23621337.819
       199.000         149.000
 -15051478.71949 -11716699.90846  21939643.231    21939642.867    21939652.012
       222.000         175.000
 -14532977.07549 -11307863.63947  19556571.405    19556571.692    19556579.096
       236.000         204.000
   2835339.30049   2212774.54247  21038840.051    21038839.453    21038847.540
       233.000         199.000
 -12076868.84849  -9393205.65947  20171889.648    20171889.593    20171897.422
       240.000         209.000
 00  5 25 15 13 29.9960000  0  7G24G 2G16G 5G 4G 7G 9
 -18295417.54749 -14230617.11847  20480869.941    20480869.888    20480879.283
       238.000         201.000
   3417144.78849   2664763.27646  22014232.740    22014232.354    22014242.708
       218.000         176.000
  -6161432.15949  -4784951.79345  23610716.708    23610716.206    23610727.829
       202.000         149.000
 -15156405.63849 -11798461.09946  21919676.300    21919675.934    21919685.078
       223.000         177.000
 -14567969.83749 -11335130.74547  19549912.437    19549912.744    19549920.226
       236.000         203.000
   2873326.25449   2242374.74547  21046068.689    21046068.210    21046076.302
       233.000         199.000
 -12097323.54049  -9409144.41047  20167997.281    20167997.224    20168005.013
       240.000         209.000
 00  5 25 15 13 59.9960000  0  7G24G 2G16G 5G 4G 7G 9
 -18396497.48249 -14309380.65947  20461635.053    20461634.987    20461644.471
       237.000         201.000
   3466024.85849   2702851.49246  22023534.456    22023534.106    22023544.514
       222.000         175.000
  -6216746.41249  -4828053.71745  23600190.628    23600190.129    23600201.654
       201.000         150.000
 -15261244.01149 -11880153.29746  21899726.202    21899725.830    21899734.974
       223.000         176.000
 -14602338.34549 -11361911.41047  19543372.351    19543372.657    19543380.154
       237.000         204.000
   2911430.36649   2272066.21247  21053319.657    21053319.235    21053327.375
       233.000         198.000
 -12117188.34149  -9424623.49947  20164217.100    20164217.038    20164224.867
       240.000         209.000
 00  5 25 15 14 29.9960000  0  7G24G 2G16G 5G 4G 7G 9
 -18497168.46049 -14387825.53947  20442477.904    20442477.881    20442487.416
       236.000         201.000
   3515190.38849   2741162.14046  22032890.480    22032890.107    22032900.594
       219.000         173.000
  -6271614.42349  -4870807.93045  23589749.381    23589748.948    23589760.649
       204.000         151.000
 -15365989.43749 -11961773.07146  21879793.768    21879793.469    21879802.559
       223.000         176.000
 -14636079.42049 -11388203.16847  19536951.678    19536951.990    19536959.498
       236.000         204.000
   2949653.86149   2301850.71647  21060593.457    21060592.947    21060601.138
       232.000         197.000
 -12136460.27149  -9439640.61247  20160549.761    20160549.726    20160557.567
       239.000         209.000
 00  5 25 15 14 59.9960000  0  7G24G 2G16G 5G 4G 7G 9
 -18597465.15849 -14465978.77247  20423392.067    20423392.047    20423401.540
       238.000         201.000
   3564604.11949   2779666.19646  22042293.696    22042293.268    22042303.918
       219.000         173.000
  -6326070.90549  -4913241.45345  23579386.477    23579386.185    23579397.789
       206.000         155.000
 -15470677.15549 -12043347.88546  21859872.379    21859871.994    21859881.098
       224.000         177.000
 -14669229.76549 -11414034.62447  19530643.386    19530643.708    19530651.240
       235.000         204.000
   2987958.86149   2331698.74347  21067882.650    21067882.175    21067890.367
       231.000         197.000
 -12155176.08049  -9454224.38347  20156988.332    20156988.298    20156996.106
       240.000         210.000
 00  5 25 15 15 29.9960000  0  7G24G 2G16G 5G 4G 7G 9
 -18697306.64049 -14543777.28347  20404392.910    20404392.866    20404402.281
       238.000         201.000
   3614344.41849   2818424.69446  22051759.085    22051758.669    22051769.353
       216.000         173.000
  -6380035.37249  -4955291.53545  23569117.626    23569117.211    23569128.573
       209.000         158.000
 -15575227.14749 -12124815.38346  21839977.068    21839976.707    21839985.874
       224.000         176.000
 -14701710.50449 -11439344.30147  19524462.472    19524462.851    19524470.388
       235.000         204.000
   3026423.22749   2361670.94347  21075202.221    21075201.764    21075209.959
       232.000         197.000
 -12173257.36349  -9468313.71747  20153547.673    20153547.620    20153555.427
       240.000         210.000
 00  5 25 15 15 59.9960000  0  7G24G 2G16G 5G 4G 7G 9
 -18796713.06849 -14621236.79947  20385476.491    20385476.452    20385485.792
       238.000         200.000
   3664388.77649   2857420.12646  22061282.476    22061282.043    22061292.536
       219.000         171.000
  -6433527.70749  -4996973.77145  23558938.581    23558937.994    23558949.363
       207.000         157.000
 -15679660.09249 -12206191.68246  21820104.124    21820103.734    21820112.835
       224.000         177.000
 -14733543.69049 -11464149.39947  19518404.871    19518405.223    19518412.720
       236.000         203.000
   3065023.87049   2391749.32347  21082547.648    21082547.251    21082555.455
       233.000         198.000
 -12190726.42949  -9481926.00347  20150223.465    20150223.397    20150231.184
       240.000         209.000
 00  5 25 15 16 29.9960000  0  7G24G 2G16G 5G 4G 7G 9
 -18895644.14349 -14698325.90947  20366650.504    20366650.426    20366659.764
       237.000         200.000
   3714774.49049   2896681.56246  22070870.645    22070870.267    22070880.769
       219.000         172.000
  -6486507.95649  -5038257.01345  23548856.518    23548856.091    23548867.490
       208.000         154.000
 -15783937.01649 -12287446.40346  21800260.887    21800260.545    21800269.548
       226.000         180.000
 -14764691.52049 -11488420.44647  19512477.668    19512478.011    19512485.411
       236.000         203.000
   3103797.60749   2421962.58847  21089926.102    21089925.684    21089933.902
       232.000         198.000
 -12207545.67949  -9495031.93947  20147022.850    20147022.804    20147030.614
       239.000         209.000
 00  5 25 15 16 59.9960000  0  7G24G 2G16G 5G 4G 7G 9
 -18994147.67549 -14775081.86647  20347905.783    20347905.712    20347915.140
       237.000         200.000
   3765451.61149   2936170.09646  22080514.427    22080514.055    22080524.504
       217.000         173.000
  -6539023.47149  -5079178.13945  23538862.882    23538862.595    23538873.954
       208.000         152.000
 -15888106.03749 -12368617.03246  21780438.283    21780437.936    21780446.837
       226.000         181.000
 -14795203.74549 -11512196.21747  19506671.387    19506671.733    19506679.127
       236.000         203.000
   3142694.03449   2452271.44347  21097327.942    21097327.531    21097335.658
       235.000         198.000
 -12223764.73949  -9507670.19247  20143936.449    20143936.417    20143944.222
       240.000         209.000
 00  5 25 15 17 29.9960000  0  7G24G 2G16G 5G 4G 7G 9
 -19092228.77849 -14851508.66847  20329241.450    20329241.428    20329250.943
       236.000         201.000
   3816412.69449   2975879.85646  22090212.125    22090211.735    22090222.269
       213.000         172.000
  -6591079.62949  -5119741.27845  23528957.021    23528956.635    23528967.852
       213.000         156.000
 -15992173.00749 -12449708.13946  21760635.009    21760634.607    21760643.626
       225.000         181.000
 -14825087.66949 -11535482.41147  19500984.690    19500985.046    19500992.451
       236.000         203.000
   3181704.68849   2482669.31547  21104751.462    21104751.076    21104759.189
       232.000         198.000
 -12239391.56349  -9519846.97147  20140962.837    20140962.778    20140970.515
       240.000         209.000
 00  5 25 15 17 59.9960000  0  7G24G 2G16G 5G 4G 7G 9
 -19189934.14049 -14927642.67547  20310648.757    20310648.705    20310658.198
       237.000         201.000
   3867608.34049   3015772.38646  22099954.252    22099953.942    22099964.590
       215.000         173.000
  -6642723.24949  -5159982.99245  23519129.633    23519129.168    23519140.405
       210.000         155.000
 -16096185.31649 -12530756.65146  21740842.078    21740841.673    21740850.747
       225.000         182.000
 -14854392.12549 -11558317.05947  19495408.315    19495408.645    19495416.040
       236.000         203.000
   3220779.91749   2513117.49447  21112187.375    21112186.923    21112195.018
       234.000         198.000
 -12254475.08749  -9531600.39747  20138092.627    20138092.566    20138100.240
       241.000         210.000
 00  5 25 15 18 29.9960000  0  7G24G 2G16G 5G 4G 7G 9
 -19287193.22449 -15003428.94147  20292140.964    20292140.931    20292150.369
       238.000         201.000
   3919106.53849   3055900.66546  22109754.266    22109753.989    22109764.616
       220.000         175.000
  -6693883.78649  -5199848.30245  23509393.992    23509393.601    23509404.818
       211.000         153.000
 -16200073.04449 -12611708.08946  21721072.812    21721072.460    21721081.547
       228.000         183.000
 -14883048.73149 -11580646.89947  19489955.157    19489955.476    19489962.840
       235.000         203.000
   3259987.44349   2543668.77447  21119648.412    21119647.922    21119656.043
       233.000         198.000
 -12268947.19149  -9542877.38947  20135338.747    20135338.668    20135346.321
       241.000         210.000
 00  5 25 15 18 59.9960000  0  7G24G 2G16G 5G 4G 7G 9
 -19383986.51349 -15078852.23847  20273721.859    20273721.783    20273731.138
       239.000         201.000
   3970924.20049   3096277.88446  22119615.104    22119614.673    22119625.295
       217.000         174.000
  -6744541.80749  -5239321.98745  23499753.894    23499753.678    23499764.574
       211.000         148.000
 -16303817.48949 -12692547.88646  21701330.833    21701330.515    21701339.621
       226.000         183.000
 -14911040.16449 -11602458.40647  19484628.617    19484628.953    19484636.231
       237.000         203.000
   3299343.73749   2574335.96647  21127137.706    21127137.226    21127145.327
       235.000         198.000
 -12282790.65149  -9553664.52847  20132704.442    20132704.373    20132712.068
       239.000         209.000
 00  5 25 15 19 29.9960000  0  7G24G 2G16G 5G 4G 7G 9
 -19480311.37849 -15153910.53547  20255391.798    20255391.743    20255401.058
       238.000         201.000
   4023061.60649   3136904.24346  22129536.561    22129536.148    22129546.790
       217.000         172.000
  -6794694.77549  -5278402.10345  23490210.077    23490209.845    23490220.485
       212.000         148.000
 -16407416.64549 -12773274.47046  21681616.518    21681616.218    21681625.332
       226.000         182.000
 -14938365.78349 -11623751.10447  19479428.782    19479429.096    19479436.309
       237.000         203.000
   3338848.58249   2605118.92647  21134655.330    21134654.835    21134662.891
       231.000         198.000
 -12296005.38449  -9563961.74847  20130189.707    20130189.652    20130197.432
       239.000         208.000
 00  5 25 15 19 59.9960000  0  7G24G 2G16G 5G 4G 7G 9
 -19576156.60249 -15228595.08447  20237152.974    20237152.940    20237162.292
       238.000         201.000
   4075527.24749   3177786.36446  22139520.518    22139520.069    22139530.836
       218.000         173.000
  -6844331.71249  -5317080.22945  23480764.637    23480764.246    23480774.985
       209.000         146.000
 -16510860.14949 -12853879.76646  21661931.844    21661931.581    21661940.567
       227.000         182.000
 -14965017.10349 -11644518.37647  19474357.189    19474357.501    19474364.740
       236.000         202.000
   3378509.93249   2636023.81147  21142202.595    21142202.155    21142210.286
       234.000         198.000
 -12308582.74149  -9573762.31447  20127796.251    20127796.230    20127804.071
       240.000         209.000
 00  5 25 15 20 29.9960000  0  7G24G 2G16G 5G 4G 7G 9
 -19671577.96449 -15302949.35647  20218994.821    20218994.801    20219004.272
       238.000         202.000
   4128262.86849   3218878.87546  22149556.045    22149555.527    22149566.254
       218.000         173.000
  -6893508.36649  -5355399.66945  23471406.357    23471406.029    23471416.773
       208.000         148.000
 -16614204.18349 -12934407.54946  21642266.180    21642265.896    21642274.809
       228.000         184.000
 -14991051.60949 -11664805.00947  19469403.028    19469403.335    19469410.487
       238.000         202.000
   3418269.32849   2667005.12347  21149768.596    21149768.124    21149776.398
       235.000         198.000
 -12320580.72049  -9583111.42347  20125513.229    20125513.188    20125520.938
       241.000         208.000
 00  5 25 15 20 59.9960000  0  7G24G 2G16G 5G 4G 7G 9
 -19766533.48549 -15376940.62647  20200925.338    20200925.340    20200934.864
       238.000         201.000
   4181307.94149   3260212.51646  22159650.284    22159649.827    22159660.667
       219.000         175.000
  -6942182.47649  -5393327.49645  23462143.767    23462143.630    23462154.270
       209.000         149.000
 -16717407.36149 -13014825.57346  21622627.299    21622626.998    21622635.879
       228.000         183.000
 -15016429.63749 -11684580.10447  19464573.771    19464574.056    19464581.237
       237.000         203.000
   3458165.92149   2698093.32447  21157360.656    21157360.231    21157368.564
       232.000         198.000
 -12331959.81249  -9591978.28147  20123347.936    20123347.877    20123355.546
       240.000         208.000
 00  5 25 15 21 29.9960000  0  7G24G 2G16G 5G 4G 7G 9
 -19861053.55649 -15450592.58347  20182938.801    20182938.755    20182948.277
       238.000         202.000
   4234629.67349   3301761.72946  22169797.207    22169796.766    22169807.773
       220.000         175.000
  -6990384.75449  -5430887.67345  23452971.119    23452970.948    23452981.443
       210.000         149.000
 -16820500.40249 -13095157.78246  21603009.339    21603009.018    21603017.860
       226.000         181.000
 -15041183.96049 -11703869.19047  19459863.175    19459863.482    19459870.715
       237.000         204.000
   3498166.48449   2729262.53847  21164972.540    21164972.135    21164980.458
       233.000         197.000
 -12342752.70449  -9600388.36147  20121294.166    20121294.118    20121301.762
       240.000         208.000
 00  5 25 15 21 59.9960000  0  7G24G 2G16G 5G 4G 7G 9
 -19955074.00249 -15523855.23347  20165047.242    20165047.221    20165056.766
       237.000         202.000
   4288289.84349   3343574.66646  22180008.472    22180008.049    22180019.220
       219.000         176.000
  -7038051.39249  -5468030.46045  23443900.594    23443900.381    23443910.672
       212.000         149.000
 -16923419.60349 -13175354.51746  21583424.375    21583424.027    21583432.912
       226.000         181.000
 -15065252.61049 -11722623.99347  19455283.158    19455283.433    19455290.634
       237.000         203.000
   3538332.24049   2760560.47547  21172615.892    21172615.479    21172623.788
       233.000         197.000
 -12352897.87249  -9608293.71847  20119363.599    20119363.557    20119371.231
       239.000         208.000
 00  5 25 15 22 29.9960000  0  7G24G 2G16G 5G 4G 7G 9
 -20048582.05449 -15596718.61247  20147253.217    20147253.175    20147262.718
       238.000         202.000
   4342298.81549   3385659.39946  22190286.144    22190285.771    22190296.949
       220.000         174.000
  -7085169.42449  -5504745.75745  23434934.405    23434934.049    23434944.454
       212.000         151.000
 -17026152.84749 -13255406.37246  21563874.812    21563874.505    21563883.382
       227.000         182.000
 -15088625.01649 -11740836.26247  19450835.520    19450835.806    19450843.017
       237.000         203.000
   3578673.15349   2791994.89847  21180292.583    21180292.142    21180300.416
       235.000         197.000
 -12362384.90349  -9615686.23747  20117558.251    20117558.236    20117565.948
       240.000         209.000
 00  5 25 15 22 59.9960000  0  7G24G 2G16G 5G 4G 7G 9
 -20141564.77749 -15669172.64847  20129559.135    20129559.085    20129568.662
       237.000         202.000
   4396667.00449   3428024.02446  22200632.245    22200631.882    22200643.039
       222.000         172.000
  -7131726.04549  -5541023.61245  23426075.042    23426074.744    23426084.930
       210.000         153.000
 -17128687.57449 -13335303.54146  21544363.155    21544362.826    21544371.661
       227.000         182.000
 -15111290.52449 -11758497.70647  19446522.386    19446522.685    19446529.911
       236.000         202.000
   3619199.50349   2823573.83547  21188004.492    21188004.051    21188012.369
       234.000         196.000
 -12371203.32049  -9622557.76747  20115880.222    20115880.191    20115887.902
       241.000         209.000
 00  5 25 15 23 29.9960000  0  7G24G 2G16G 5G 4G 7G 9
 -20234099.98049 -15741277.96047  20111950.248    20111950.201    20111959.790
       238.000         202.000
   4451314.16749   3470606.03746  22211031.494    22211031.059    22211042.171
       221.000         171.000
  -7177799.16049  -5576924.72845  23417307.587    23417307.185    23417317.356
       212.000         154.000
 -17231102.21749 -13415107.12046  21524874.347    21524873.964    21524882.823
       228.000         182.000
 -15133329.40249 -11775670.85947  19442328.484    19442328.804    19442336.062
       237.000         203.000
   3659830.56249   2855234.37447  21195736.385    21195735.936    21195744.264
       231.000         196.000
 -12379433.55749  -9628970.96947  20114314.179    20114314.128    20114321.798
       242.000         210.000
 00  5 25 15 23 59.9960000  0  7G24G 2G16G 5G 4G 7G 9
 -20326159.83549 -15813012.87447  20094431.805    20094431.786    20094441.346
       238.000         202.000
   4506265.55049   3513425.08646  22221488.583    22221488.169    22221499.261
       222.000         173.000
  -7223360.98749  -5612427.41945  23408637.320    23408636.879    23408647.182
       215.000         158.000
 -17333369.22249 -13494795.66046  21505413.559    21505413.184    21505422.003
       227.000         182.000
 -15154715.98049 -11792335.73047  19438258.801    19438259.101    19438266.330
       237.000         203.000
   3700591.52949   2886996.09347  21203492.911    21203492.501    21203500.850
       232.000         196.000
 -12387050.38049  -9634906.19647  20112864.858    20112864.777    20112872.361
       241.000         209.000
 00  5 25 15 24 29.9960000  0  7G24G 2G16G 5G 4G 7G 9
 -20417752.27349 -15884383.56947  20077002.393    20077002.335    20077011.884
       238.000         202.000
   4561510.63649   3556473.02846  22232001.441    22232001.030    22232012.166
       221.000         169.000
  -7268419.80849  -5647538.14945  23400062.944    23400062.510    23400072.745
       217.000         159.000
 -17435497.00149 -13574375.70946  21485979.237    21485978.841    21485987.579
       226.000         181.000
 -15175460.54549 -11808500.33247  19434311.225    19434311.536    19434318.859
       237.000         203.000
   3741471.65549   2918850.67247  21211272.169    21211271.781    21211280.171
       235.000         196.000
 -12394063.94649  -9640371.34847  20111530.230    20111530.138    20111537.740
       241.000         209.000
 00  5 25 15 24 59.9960000  0  7G24G 2G16G 5G 4G 7G 9
 -20508872.84749 -15955386.56647  20059662.638    20059662.592    20059672.194
       238.000         202.000
   4617051.60749   3599751.53246  22242570.675    22242570.215    22242581.495
       218.000         167.000
  -7312971.11849  -5682253.40645  23391585.132    23391584.666    23391594.991
       216.000         160.000
 -17537481.50949 -13653844.11746  21466572.116    21466571.804    21466580.429
       229.000         183.000
 -15195560.88449 -11824162.93147  19430486.306    19430486.582    19430493.928
       237.000         203.000
   3782472.73049   2950799.51347  21219074.547    21219074.088    21219082.463
       231.000         195.000
 -12400472.47749  -9645365.03947  20110310.761    20110310.665    20110318.244
       241.000         209.000
 00  5 25 15 25 29.9960000  0  7G24G 2G16G 5G 4G 7G 9
 -20599520.33249 -16026020.94547  20042412.979    20042412.972    20042422.520
       239.000         203.000
   4672887.03149   3643259.45846  22253195.869    22253195.443    22253206.841
       220.000         170.000
  -7357013.91549  -5716572.43345  23383204.055    23383203.664    23383213.994
       215.000         159.000
 -17639321.86649 -13733200.21646  21447192.576    21447192.255    21447200.757
       228.000         184.000
 -15215018.37249 -11839324.62047  19426783.667    19426783.952    19426791.290
       237.000         203.000
   3823593.23749   2982841.42047  21226899.643    21226899.130    21226907.482
       232.000         195.000
 -12406277.30749  -9649888.32247  20109206.121    20109206.055    20109213.696
       241.000         210.000
 00  5 25 15 25 59.9960000  0  7G24G 2G16G 5G 4G 7G 9
 -20689666.27049 -16096264.49947  20025258.857    20025258.796    20025268.249
       238.000         202.000
   4729043.09849   3687017.24646  22263882.361    22263881.785    22263893.237
       219.000         165.000
  -7400519.50149  -5750472.82745  23374925.175    23374924.749    23374935.235
       214.000         158.000
 -17740989.98049 -13812422.08546  21427845.724    21427845.451    21427853.961
       228.000         184.000
 -15233806.66549 -11853964.85647  19423208.359    19423208.670    19423216.022
       236.000         203.000
   3864859.08749   3014996.58947  21234752.304    21234751.771    21234760.139
       230.000         195.000
 -12411452.44549  -9653920.93547  20108221.388    20108221.336    20108228.941
       242.000         210.000
 00  5 25 15 26 29.9960000  0  7G24G 2G16G 5G 4G 7G 9
 -20779320.54349 -16166124.93447  20008198.227    20008198.194    20008207.496
       239.000         202.000
   4785507.36649   3731015.16646  22274627.087    22274626.639    22274638.125
       217.000         164.000
  -7443498.22749  -5783962.70045  23366746.456    23366746.074    23366756.768
       214.000         155.000
 -17842496.11849 -13891517.74146  21408529.786    21408529.455    21408538.034
       228.000         184.000
 -15251938.10549 -11868093.25147  19419758.066    19419758.368    19419765.754
       237.000         203.000
   3906257.65449   3047255.16347  21242630.247    21242629.684    21242638.045
       231.000         194.000
 -12416010.25949  -9657472.51747  20107354.105    20107354.050    20107361.687
       242.000         210.000
 00  5 25 15 26 59.9960000  0  7G24G 2G16G 5G 4G 7G 9
 -20868515.48449 -16235627.45147  19991224.967    19991224.953    19991234.188
       239.000         202.000
   4842245.29449   3775226.34145  22285424.134    22285423.681    22285435.155
       214.000         162.000
  -7485982.33949  -5817067.18045  23358662.072    23358661.523    23358672.237
       212.000         154.000
 -17943872.69749 -13970512.43946  21389238.501    21389238.165    21389246.736
       229.000         184.000
 -15269447.34549 -11881736.82247  19416426.190    19416426.491    19416433.850
       237.000         203.000
   3947754.18849   3079590.06947  21250526.810    21250526.239    21250534.586
       230.000         194.000
 -12419985.61749  -9660570.23747  20106597.720    20106597.635    20106605.263
       242.000         210.000
 00  5 25 15 27 29.9960000  0  7G24G 2G16G 5G 4G 7G 9
 -20957209.10849 -16304739.33647  19974347.124    19974347.082    19974356.349
       239.000         203.000
   4899296.38149   3819681.54145  22296280.774    22296280.292    22296291.930
       214.000         161.000
  -7527930.17349  -5849753.80545  23350679.448    23350678.989    23350689.849
       210.000         153.000
 -18045077.97949 -14049373.68246  21369979.858    21369979.479    21369987.915
       230.000         184.000
 -15286294.60349 -11894864.56247  19413220.295    19413220.599    19413227.983
       237.000         203.000
   3989387.85849   3112031.86247  21258449.400    21258448.906    21258457.292
       231.000         195.000
 -12423339.22049  -9663183.46947  20105959.533    20105959.477    20105967.125
       241.000         209.000
 00  5 25 15 27 59.9960000  0  7G24G 2G16G 5G 4G 7G 9
 -21045446.10249 -16373495.41947  19957556.139    19957556.116    19957565.374
       239.000         203.000
   4956613.55749   3864344.06646  22307188.092    22307187.673    22307199.389
       216.000         165.000
  -7569386.38549  -5882057.31445  23342790.441    23342789.981    23342801.042
       212.000         151.000
 -18146156.81249 -14128136.37446  21350745.204    21350744.796    21350753.136
       229.000         183.000
 -15302527.21849 -11907513.35747  19410131.317    19410131.629    19410139.058
       237.000         203.000
   4031111.58049   3144543.80047  21266389.238    21266388.753    21266397.150
       232.000         194.000
 -12426118.25949  -9665348.99247  20105430.703    20105430.621    20105438.314
       241.000         209.000
 00  5 25 15 28 29.9960000  0  7G24G 2G16G 5G 4G 7G 9
 -21133150.05249 -16441836.13247  19940866.638    19940866.645    19940875.795
       240.000         203.000
   5014270.47649   3909271.33645  22318160.081    22318159.606    22318171.248
       213.000         162.000
  -7610274.89249  -5913918.46845  23335009.370    23335009.023    23335020.064
       213.000         157.000
 -18247033.39349 -14206741.46146  21331548.993    21331548.594    21331556.948
       229.000         185.000
 -15318071.40949 -11919625.71347  19407173.366    19407173.684    19407181.057
       236.000         203.000
   4072999.01849   3177183.30147  21274360.156    21274359.692    21274368.178
       233.000         195.000
 -12428249.16449  -9667009.47947  20105025.203    20105025.140    20105032.806
       241.000         209.000
 00  5 25 15 28 59.9960000  0  7G24G 2G16G 5G 4G 7G 9
 -21220394.82949 -16509819.04047  19924264.534    19924264.515    19924273.579
       239.000         203.000
   5072191.11549   3954404.11246  22329181.965    22329181.577    22329193.257
       215.000         163.000
  -7650669.82649  -5945395.02545  23327322.480    23327322.132    23327333.162
       215.000         162.000
 -18347781.47449 -14285246.42546  21312377.264    21312376.831    21312385.270
       230.000         186.000
 -15333002.94849 -11931260.68747  19404331.992    19404332.307    19404339.645
       236.000         202.000
   4114973.94049   3209890.96647  21282347.763    21282347.310    21282355.880
       231.000         195.000
 -12429808.17549  -9668224.33247  20104728.573    20104728.520    20104736.129
       241.000         209.000
 00  5 25 15 29 29.9960000  0  7G24G 2G16G 5G 4G 7G 9
 -21307119.30449 -16577396.52447  19907761.345    19907761.368    19907770.409
       240.000         203.000
   5130434.26149   3999788.14246  22340265.492    22340265.078    22340276.785
       213.000         163.000
  -7690509.89849  -5976439.22946  23319741.123    23319740.818    23319751.862
       216.000         164.000
 -18448340.07749 -14363603.75346  21293241.582    21293241.152    21293249.707
       230.000         186.000
 -15347263.39949 -11942372.73247  19401618.287    19401618.620    19401625.958
       236.000         202.000
   4157094.96049   3242712.49247  21290363.196    21290362.716    21290371.291
       231.000         194.000
 -12430736.74949  -9668947.93547  20104551.890    20104551.856    20104559.463
       241.000         209.000
 00  5 25 15 29 59.9960000  0  7G24G 2G16G 5G 4G 7G 9
 -21393352.22649 -16644590.98147  19891351.747    19891351.762    19891360.842
       239.000         204.000
   5188968.84849   4045399.32146  22351404.285    22351403.988    22351415.732
       211.000         164.000
  -7729824.13549  -6007073.67646  23312259.968    23312259.622    23312270.638
       216.000         165.000
 -18548737.99749 -14441835.87646  21274136.410    21274135.994    21274144.623
       228.000         185.000
 -15360883.62449 -11952985.89747  19399026.440    19399026.801    19399034.084
       236.000         202.000
   4199331.03049   3275623.68047  21298400.485    21298399.967    21298408.653
       230.000         194.000
 -12431065.98549  -9669204.51647  20104489.260    20104489.228    20104496.887
       241.000         209.000
 00  5 25 15 30 29.9960000  0  7G24G 2G16G 5G 4G 7G 9
 -21479054.46449 -16711371.90647  19875043.093    19875043.122    19875052.275
       240.000         204.000
   5247831.41449   4091266.05446  22362605.412    22362605.175    22362617.241
       212.000         164.000
  -7768573.48249  -6037267.97745  23304886.256    23304885.837    23304896.944
       214.000         161.000
 -18648936.53149 -14519912.62746  21255069.079    21255068.742    21255077.402
       229.000         185.000
 -15373827.39249 -11963071.95547  19396563.317    19396563.693    19396570.961
       237.000         203.000
   4241718.67349   3308652.94247  21306466.613    21306466.156    21306474.831
       232.000         194.000
 -12430759.53649  -9668965.76047  20104547.592    20104547.553    20104555.252
       241.000         209.000
 00  5 25 15 30 59.9960000  0  7G24G 2G16G 5G 4G 7G 9
 -21564258.86049 -16777764.90947  19858829.276    19858829.264    19858838.450
       240.000         205.000
   5306986.80049   4137360.94946  22373862.477    22373862.200    22373874.418
       212.000         163.000
  -7806791.14649  -6067047.94445  23297613.705    23297613.354    23297624.283
       214.000         160.000
 -18748968.44049 -14597859.54546  21236033.599    21236033.289    21236041.862
       229.000         185.000
 -15386129.82649 -11972658.26547  19394222.331    19394222.683    19394229.906
       237.000         203.000
   4284222.43649   3341772.70747  21314554.887    21314554.421    21314563.064
       231.000         193.000
 -12429853.01349  -9668259.41347  20104720.143    20104720.096    20104727.821
       242.000         209.000
 00  5 25 15 31 29.9960000  0  7G24G 2G16G 5G 4G 7G 9
 -21648981.50849 -16843782.53047  19842707.102    19842707.064    19842716.282
       239.000         205.000
   5366416.68949   4183669.71846  22385171.891    22385171.440    22385183.628
       214.000         163.000
  -7844493.27349  -6096426.21845  23290439.360    23290438.984    23290449.740
       213.000         160.000
 -18848849.61049 -14675688.99646  21217026.855    21217026.538    21217035.072
       230.000         187.000
 -15397809.33449 -11981759.18847  19391999.811    19392000.151    19392007.412
       236.000         202.000
   4326824.11349   3374968.76047  21322661.739    21322661.286    21322669.906
       232.000         193.000
 -12428364.96149  -9667099.93647  20105003.322    20105003.311    20105011.033
       242.000         209.000
 00  5 25 15 31 59.9960000  0  7G24G 2G16G 5G 4G 7G 9
 -21733151.77849 -16909369.72847  19826689.999    19826689.954    19826699.123
       240.000         204.000
   5426189.35749   4230245.59946  22396546.501    22396546.014    22396557.968
       215.000         163.000
  -7881609.56249  -6125348.04046  23283376.415    23283375.932    23283386.792
       216.000         163.000
 -18948509.95749 -14753346.38546  21198062.179    21198061.833    21198070.298
       230.000         186.000
 -15408797.77849 -11990321.61647  19389908.798    19389909.101    19389916.406
       236.000         203.000
   4369591.82149   3408294.18547  21330800.263    21330799.776    21330808.328
       232.000         193.000
 -12426227.39149  -9665434.34147  20105410.175    20105410.149    20105417.804
       241.000         209.000
 00  5 25 15 32 29.9960000  0  7G24G 2G16G 5G 4G 7G 9
 -21816844.27249 -16974584.62447  19810763.780    19810763.757    19810772.882
       240.000         205.000
   5486227.84049   4277028.60846  22407971.695    22407971.160    22407983.242
       216.000         166.000
  -7918214.51149  -6153871.39846  23276410.737    23276410.373    23276421.152
       217.000         166.000
 -19048023.84249 -14830889.64346  21179125.361    21179124.940    21179133.393
       228.000         185.000
 -15419172.26149 -11998405.63947  19387934.575    19387934.903    19387942.242
       236.000         203.000
   4412448.81549   3441689.18847  21338955.776    21338955.239    21338963.736
       230.000         192.000
 -12423517.49249  -9663322.77447  20105925.887    20105925.828    20105933.507
       242.000         209.000
 00  5 25 15 32 59.9960000  0  7G24G 2G16G 5G 4G 7G 9
 -21900020.87749 -17039397.52747  19794935.778    19794935.769    19794944.820
       240.000         204.000
   5546567.94349   4324046.64446  22419454.334    22419453.820    22419465.740
       215.000         165.000
  -7954270.11949  -6181966.70646  23269549.582    23269549.264    23269560.089
       217.000         166.000
 -19147353.10349 -14908289.04146  21160223.500    21160223.133    21160231.672
       229.000         186.000
 -15428897.15549 -12005983.47947  19386084.014    19386084.338    19386091.610
       237.000         204.000
   4455430.64749   3475181.46447  21347135.050    21347134.491    21347142.920
       231.000         192.000
 -12420199.86149  -9660737.64847  20106557.224    20106557.168    20106564.933
       241.000         210.000
 00  5 25 15 33 29.9960000  0  7G24G 2G16G 5G 4G 7G 9
 -21982713.15049 -17103833.03247  19779199.937    19779199.946    19779208.876
       240.000         204.000
   5607175.56649   4371273.14746  22430987.819    22430987.244    22430999.282
       214.000         165.000
  -7989808.45149  -6209658.92846  23262786.905    23262786.539    23262797.434
       219.000         169.000
 -19246529.51949 -14985569.34146  21141350.756    21141350.427    21141358.994
       228.000         186.000
 -15438006.52449 -12013081.69747  19384350.612    19384350.947    19384358.144
       238.000         204.000
   4498503.53249   3508744.69147  21355331.572    21355331.076    21355339.366
       232.000         192.000
 -12416308.73049  -9657705.64347  20107297.729    20107297.698    20107305.488
       242.000         210.000
 00  5 25 15 33 59.9960000  0  7G24G 2G16G 5G 4G 7G 9
 -22064946.05149 -17167910.57347  19763551.523    19763551.533    19763560.458
       241.000         205.000
   5668023.56649   4418686.93946  22442566.780    22442566.288    22442578.611
       215.000         168.000
  -8024854.48149  -6236967.53446  23256117.803    23256117.403    23256128.478
       216.000         166.000
 -19345577.83849 -15062749.82046  21122502.468    21122502.112    21122510.671
       229.000         186.000
 -15446527.75149 -12019721.61047  19382729.183    19382729.489    19382736.611
       238.000         204.000
   4541640.19949   3542357.61447  21363540.203    21363539.734    21363548.063
       230.000         192.000
 -12411871.60149  -9654248.18147  20108142.180    20108142.117    20108149.937
       242.000         210.000
 00  5 25 15 34 29.9960000  0  7G24G 2G16G 5G 4G 7G 9
 -22146664.86249 -17231587.53747  19748000.974    19748000.965    19748009.906
       240.000         205.000
   5729164.16949   4466328.72446  22454201.612    22454201.161    22454213.629
       217.000         170.000
  -8059353.76349  -6263850.08446  23249552.818    23249552.410    23249563.515
       217.000         164.000
 -19444443.20949 -15139787.73946  21103688.989    21103688.667    21103697.209
       229.000         187.000
 -15454408.49249 -12025862.44847  19381229.555    19381229.885    19381237.034
       237.000         204.000
   4584893.10849   3576061.12447  21371770.987    21371770.505    21371778.889
       231.000         191.000
 -12406836.50749  -9650324.77647  20109100.372    20109100.320    20109108.168
       241.000         210.000
 00  5 25 15 34 59.9960000  0  7G24G 2G16G 5G 4G 7G 9
 -22227871.79849 -17294865.63947  19732547.795    19732547.791    19732556.752
       240.000         206.000
   5790592.85349   4514195.00946  22465891.261    22465890.811    22465903.400
       214.000         167.000
  -8093308.67349  -6290308.47346  23243091.356    23243090.989    23243102.110
       218.000         165.000
 -19543127.76549 -15216684.77446  21084909.941    21084909.613    21084918.090
       229.000         186.000
 -15461653.78749 -12031508.14347  19379850.840    19379851.153    19379858.353
       237.000         205.000
   4628257.91949   3609851.81947  21380023.074    21380022.627    21380030.988
       231.000         191.000
 -12401208.36549  -9645939.26047  20110171.367    20110171.338    20110179.218
       241.000         210.000
 00  5 25 15 35 29.9960000  0  7G24G 2G16G 5G 4G 7G 9
 -22308555.91149 -17357736.33647  19717194.098    19717194.092    19717203.074
       240.000         206.000
   5852318.50549   4562292.68146  22477637.432    22477636.965    22477649.604
       215.000         167.000
  -8126708.51949  -6316334.32946  23236735.623    23236735.257    23236746.420
       217.000         163.000
 -19641620.28049 -15293432.17446  21066167.439    21066167.094    21066175.484
       229.000         186.000
 -15468255.11549 -12036652.03847  19378594.697    19378594.996    19378602.184
       237.000         205.000
   4671743.39349   3643736.54147  21388298.088    21388297.650    21388306.110
       228.000         191.000
 -12394978.86249  -9641085.14947  20111356.851    20111356.819    20111364.674
       241.000         209.000
 00  5 25 15 35 59.9960000  0  7G24G 2G16G 5G 4G 7G 9
 -22388735.27349 -17420213.72847  19701936.468    19701936.486    19701945.403
       241.000         206.000
   5914320.48149   4610605.70046  22489436.212    22489435.773    22489448.283
       216.000         168.000
  -8159571.38549  -6341941.76045  23230482.076    23230481.599    23230492.712
       215.000         156.000
 -19739939.00549 -15370044.13946  21047457.892    21047457.592    21047465.989
       228.000         186.000
 -15474233.05549 -12041310.17847  19377457.163    19377457.479    19377464.669
       238.000         206.000
   4715329.14049   3677699.42247  21396592.134    21396591.783    21396600.347
       230.000         191.000
 -12388168.63949  -9635778.53247  20112652.842    20112652.805    20112660.632
       242.000         210.000
 00  5 25 15 36 29.9960000  0  7G24G 2G16G 5G 4G 7G 9
 -22468440.05949 -17482321.30747  19686769.124    19686769.125    19686778.069
       240.000         205.000
   5976566.53849   4659108.90846  22501281.281    22501280.847    22501293.521
       215.000         165.000
  -8191927.76449  -6367154.53645  23224324.873    23224324.346    23224335.456
       214.000         154.000
 -19838113.88749 -15446544.01346  21028775.705    21028775.431    21028783.858
       229.000         187.000
 -15479620.07449 -12045507.86047  19376432.084    19376432.403    19376439.556
       238.000         205.000
   4758982.98549   3711715.33847  21404899.164    21404898.826    21404907.476
       230.000         189.000
 -12380810.30249  -9630044.81347  20114053.153    20114053.118    20114060.902
       242.000         210.000
 00  5 25 15 36 59.9960000  0  7G24G 2G16G 5G 4G 7G 9
 -22547650.46049 -17544043.66647  19671695.841    19671695.867    19671704.826
       240.000         205.000
   6039073.89549   4707815.70146  22513176.408    22513175.887    22513188.700
       215.000         169.000
  -8223758.24749  -6391957.46645  23218267.766    23218267.328    23218278.227
       219.000         151.000
 -19936125.03849 -15522916.31647  21010124.851    21010124.603    21010132.909
       230.000         188.000
 -15484399.19449 -12049231.85947  19375522.660    19375522.989    19375530.175
       238.000         206.000
   4802722.40449   3745797.93847  21413222.584    21413222.185    21413230.911
       229.000         190.000
 -12372887.06949  -9623870.91747  20115560.935    20115560.917    20115568.706
       242.000         210.000
 00  5 25 15 37 29.9960000  0  7G24G 2G16G 5G 4G 7G 9
 -22626342.98349 -17605362.47947  19656721.139    19656721.150    19656730.128
       240.000         206.000
   6101864.11649   4756742.91646  22525125.189    22525124.660    22525137.539
       214.000         165.000
  -8255039.29649  -6416332.30245  23212315.337    23212314.870    23212325.383
       215.000         154.000
 -20033948.45349 -15599142.33247  20991509.803    20991509.487    20991517.694
       231.000         188.000
 -15488549.18849 -12052465.62747  19374732.943    19374733.241    19374740.482
       237.000         206.000
   4846569.06649   3779964.11147  21421566.408    21421565.983    21421574.769
       228.000         190.000
 -12364378.14649  -9617240.64147  20117180.201    20117180.175    20117187.962
       242.000         210.000
 00  5 25 15 37 59.9960000  0  7G24G 2G16G 5G 4G 7G 9
 -22704503.08049 -17666266.41347  19641847.771    19641847.763    19641856.752
       240.000         206.000
   6164949.27849   4805899.97346  22537129.960    22537129.545    22537142.371
       213.000         164.000
  -8285756.89949  -6440268.07445  23206469.822    23206469.498    23206479.836
       215.000         156.000
 -20131569.49749 -15675210.65247  20972933.205    20972932.873    20972941.012
       231.000         188.000
 -15492058.22549 -12055199.93947  19374065.209    19374065.513    19374072.739
       238.000         206.000
   4890535.40349   3814223.52547  21429932.975    21429932.534    21429941.369
       228.000         190.000
 -12355271.45849  -9610144.56547  20118913.239    20118913.181    20118920.977
       241.000         210.000
 00  5 25 15 38 29.9960000  0  7G24G 2G16G 5G 4G 7G 9
 -22782096.52749 -17726728.81147  19627082.235    19627082.215    19627091.188
       239.000         206.000
   6228361.36949   4855311.74346  22549197.184    22549196.718    22549209.444
       215.000         165.000
  -8315876.64349  -6463738.01145  23200738.099    23200737.782    23200748.024
       212.000         155.000
 -20228953.35549 -15751094.15647  20954401.635    20954401.337    20954409.506
       232.000         189.000
 -15494894.73549 -12057410.20947  19373525.489    19373525.793    19373532.954
       239.000         207.000
   4934653.38049   3848601.12147  21438328.432    21438328.028    21438336.828
       232.000         192.000
 -12345535.53549  -9602558.18247  20120765.868    20120765.828    20120773.727
       241.000         209.000
 00  5 25 15 38 59.9960000  0  7G24G 2G16G 5G 4G 7G 9
 -22859174.21249 -17786789.30547  19612414.788    19612414.804    19612423.756
       240.000         206.000
   6292047.28849   4904936.93745  22561316.458    22561315.919    22561328.683
       213.000         161.000
  -8345449.78349  -6486782.01845  23195110.462    23195110.003    23195120.435
       212.000         158.000
 -20326150.56649 -15826832.21447  20935905.622    20935905.367    20935913.503
       231.000         189.000
 -15497111.87849 -12059137.85047  19373103.655    19373103.936    19373111.087
       239.000         207.000
   4978870.30349   3883055.81847  21446742.842    21446742.374    21446751.110
       231.000         192.000
 -12335223.85649  -9594523.15647  20122728.107    20122728.083    20122736.000
       241.000         209.000
 00  5 25 15 39 29.9960000  0  7G24G 2G16G 5G 4G 7G 9
 -22935676.27549 -17846401.26747  19597856.996    19597856.958    19597865.890
       240.000         206.000
   6356064.59949   4954820.33245  22573498.634    22573498.124    22573511.110
       209.000         160.000
  -8374416.81749  -6509353.73345  23189598.159    23189597.757    23189608.340
       214.000         160.000
 -20423101.06049 -15902378.02647  20917456.601    20917456.327    20917464.454
       232.000         190.000
 -15498652.59049 -12060338.40847  19372810.459    19372810.746    19372817.900
       239.000         207.000
   5023243.94649   3917632.63547  21455186.986    21455186.488    21455195.185
       231.000         191.000
 -12324279.52649  -9585995.15547  20124810.791    20124810.781    20124818.671
       242.000         210.000
 00  5 25 15 39 59.9960000  0  7G24G 2G16G 5G 4G 7G 9
 -23011627.56849 -17905584.06047  19583403.927    19583403.890    19583412.843
       239.000         206.000
   6420386.26949   5004940.82645  22585738.786    22585738.313    22585751.330
       211.000         162.000
  -8402802.86349  -6531472.75346  23184196.395    23184196.064    23184206.610
       216.000         163.000
 -20519829.38549 -15977750.72947  20899049.851    20899049.531    20899057.634
       232.000         190.000
 -15499544.06649 -12061033.07547  19372640.823    19372641.104    19372648.272
       239.000         207.000
   5067747.42449   3952310.60547  21463655.722    21463655.291    21463663.985
       229.000         191.000
 -12312729.94749  -9576995.54547  20127008.743    20127008.716    20127016.537
       242.000         209.000
 00  5 25 15 40 29.9960000  0  7G24G 2G16G 5G 4G 7G 9
 -23087084.49049 -17964381.62647  19569044.960    19569044.909    19569053.891
       239.000         206.000
   6484953.55349   5055252.75345  22598025.837    22598025.299    22598038.263
       212.000         162.000
  -8430664.43749  -6553183.07746  23178894.623    23178894.317    23178904.794
       217.000         164.000
 -20616391.65549 -16052994.03347  20880674.688    20880674.325    20880682.425
       233.000         191.000
 -15499845.42849 -12061267.90647  19372583.447    19372583.758    19372590.909
       239.000         206.000
   5112322.40149   3987044.28047  21472138.044    21472137.632    21472146.375
       232.000         190.000
 -12300634.27949  -9567570.40147  20129310.524    20129310.493    20129318.313
       241.000         210.000
 00  5 25 15 40 59.9960000  0  7G24G 2G16G 5G 4G 7G 9
 -23162043.84449 -18022791.47847  19554780.603    19554780.578    19554789.609
       239.000         206.000
   6549767.63749   5105756.97145  22610359.989    22610359.340    22610372.006
       213.000         162.000
  -8457998.53349  -6574482.37645  23173693.238    23173692.859    23173703.266
       216.000         162.000
 -20712784.04849 -16128104.95947  20862331.831    20862331.445    20862339.649
       231.000         190.000
 -15499555.94049 -12061042.33847  19372638.548    19372638.856    19372645.952
       239.000         207.000
   5156970.33649   4021834.81747  21480634.287    21480633.889    21480642.667
       230.000         190.000
 -12287991.79449  -9557719.16847  20131716.316    20131716.311    20131724.196
       241.000         209.000
 00  5 25 15 41 29.9960000  0  7G24G 2G16G 5G 4G 7G 9
 -23236511.45049 -18080818.15247  19540609.935    19540609.887    19540618.918
       240.000         207.000
   6614820.49349   5156447.27445  22622739.382    22622738.688    22622751.348
       209.000         156.000
  -8484811.52249  -6595375.62546  23168590.957    23168590.583    23168601.060
       218.000         164.000
 -20809012.23349 -16203087.93947  20844020.114    20844019.761    20844028.033
       232.000         191.000
 -15498684.20749 -12060363.07347  19372804.466    19372804.770    19372811.786
       240.000         207.000
   5201683.43149   4056676.11147  21489142.978    21489142.553    21489151.360
       228.000         189.000
 -12274811.31149  -9547448.71347  20134224.484    20134224.454    20134232.407
       241.000         209.000
 00  5 25 15 41 59.9960000  0  7G24G 2G16G 5G 4G 7G 9
 -23310474.43149 -18138451.61547  19526535.246    19526535.199    19526544.243
       240.000         207.000
   6680122.75949   5207331.91245  22635166.052    22635165.472    22635178.208
       203.000         148.000
  -8511090.31449  -6615852.57945  23163590.329    23163589.985    23163600.397
       219.000         162.000
 -20905062.46149 -16277932.25447  20825742.326    20825741.980    20825750.272
       231.000         191.000
 -15497219.70349 -12059221.90847  19373083.205    19373083.494    19373090.431
       239.000         207.000
   5246472.58549   4091576.68647  21497666.134    21497665.732    21497674.522
       231.000         189.000
 -12261082.71449  -9536751.15547  20136836.957    20136836.934    20136844.939
       241.000         209.000
 00  5 25 15 42 29.9960000  0  7G24G 2G16G 5G 4G 7G 9
 -23383862.44449 -18195637.05147  19512569.947    19512569.897    19512578.933
       240.000         206.000
   6745742.61949   5258464.03345  22647653.030    22647652.562    22647665.470
       195.000         137.000
  -8536765.22249  -6635858.99045  23158704.480    23158704.172    23158714.605
       219.000         161.000
 -21000863.92249 -16352582.71947  20807511.843    20807511.504    20807519.894
       232.000         191.000
 -15495094.67049 -12057566.04747  19373487.576    19373487.880    19373494.822
       240.000         207.000
   5291406.46449   4126590.00447  21506216.824    21506216.373    21506225.239
       227.000         189.000
 -12246737.97649  -9525573.48947  20139566.666    20139566.667    20139574.702
       241.000         209.000
 00  5 25 15 42 59.9960000  0  7G24G 2G16G 5G 4G 7G 9
 -23456729.44549 -18252416.49647  19498703.742    19498703.696    19498712.747
       239.000         206.000
   6811624.13048   5309799.99044  22660190.023    22660188.412    22660203.064
       189.000         128.000
  -8561890.43949  -6655437.08745  23153923.354    23153922.968    23153933.512
       214.000         157.000
 -21096470.33249 -16427081.18847  20789318.435    20789318.155    20789326.542
       232.000         190.000
 -15492365.64249 -12055439.53947  19374006.880    19374007.191    19374014.151
       239.000         208.000
   5336429.24449   4161672.62347  21514784.374    21514783.980    21514792.906
       229.000         189.000
 -12231833.89149  -9513959.96947  20142402.934    20142402.942    20142410.888
       242.000         209.000
 00  5 25 15 43 29.9960000  0  7G24G 2G16G 5G 4G 7G 9
 -23529078.05949 -18308792.01447  19484936.179    19484936.152    19484945.181
       241.000         206.000
   6877762.25348   5361335.93444  22672775.982                    22672778.937
       185.000         121.000
  -8586468.77849  -6674589.03545  23149246.140    23149245.818    23149256.535
       213.000         158.000
 -21191883.93049 -16501429.42647  20771161.804    20771161.544    20771169.872
       233.000         191.000
 -15489037.95449 -12052846.54447  19374640.169    19374640.468    19374647.433
       239.000         208.000
   5381536.37349   4196820.96047  21523368.109    21523367.655    21523376.581
       226.000         189.000
 -12216375.98049  -9501914.89847  20145344.626    20145344.584    20145352.463
       242.000         209.000
 00  5 25 15 43 59.9960000  0  7G24G 2G16G 5G 4G 7G 9
 -23600898.52249 -18364755.98547  19471269.116    19471269.110    19471278.190
       241.000         207.000
   6944164.59458   5413077.79254  22685412.090                    22685411.925
       173.000         116.000
  -8610490.58249  -6693307.33545  23144674.829    23144674.590    23144685.429
       214.000         161.000
 -21287094.25249 -16575619.26347  20753043.861    20753043.578    20753051.859
       232.000         190.000
 -15485104.36349 -12049781.42747  19375388.744    19375389.039    19375396.004
       240.000         208.000
   5426736.00549   4232041.36647  21531969.447    21531968.949    21531977.887
       227.000         188.000
 -12200357.07349  -9489432.68447  20148392.946    20148392.917    20148400.774
       242.000         209.000
 00  5 25 15 44 29.9960000  0  7G24G 2G16G 5G 4G 7G 9
 -23672029.76049 -18420182.89847  19457733.322    19457733.309    19457742.397
       241.000         208.000
                   5465146.55254  22698128.682
       171.000         111.000
  -8633795.21749  -6711466.79445  23140240.075    23140239.810    23140250.781
       215.000         162.000
 -21381939.39249 -16649524.55047  20734995.345    20734995.145    20735003.326
       233.000         191.000
 -15480406.50049 -12046120.76747  19376282.757    19376283.056    19376290.030
       240.000         209.000
   5472187.59949   4267458.13446  21540618.688    21540618.168    21540627.074
       224.000         187.000
 -12183618.78849  -9476389.92047  20151578.151    20151578.138    20151585.938
       242.000         208.000
 00  5 25 15 44 59.9950000  0  6G24G16G 5G 4G 7G 9
 -23742576.25149 -18475154.16847  19444308.829    19444308.779    19444317.902
       241.000         208.000
  -8656489.22949  -6729150.44646  23135921.488    23135921.289    23135932.164
       216.000         163.000
 -21476522.73249 -16723225.83647  20716996.720    20716996.538    20717004.697
       234.000         192.000
 -15475053.74949 -12041949.81047  19377301.321    19377301.647    19377308.634
       240.000         208.000
   5517780.82549   4302985.23547  21549294.807    21549294.349    21549303.224
       227.000         188.000
 -12166271.18149  -9462872.35647  20154879.360    20154879.310    20154887.117
       241.000         208.000
 00  5 25 15 45 29.9950000  0  7G24G16G 5G 4G30G 7G 9
 -23812645.90249 -18529753.87347  19430974.984    19430974.954    19430984.082
       242.000         208.000
  -8678677.30649  -6746439.87646  23131699.298    23131699.056    23131709.841
       217.000         164.000
 -21570952.82149 -16796807.70247  20699027.335    20699027.111    20699035.307
       234.000         192.000
 -15469151.49049 -12037350.66747  19378424.492    19378424.815    19378431.822
       240.000         208.000
   -228102.98355                  23827451.809
       204.000         137.000
   5563414.13549   4338543.56547  21557978.603    21557978.167    21557987.075
       227.000         189.000
 -12148419.19149  -9448961.77647  20158276.539    20158276.485    20158284.261
       241.000         208.000
 00  5 25 15 45 59.9950000  0  7G24G16G 5G 4G30G 7G 9
 -23882163.68749 -18583923.54747  19417746.164    19417746.120    19417755.264
       241.000         207.000
  -8700286.42949  -6763278.19246  23127587.271    23127586.950    23127597.682
       218.000         163.000
 -21665153.49349 -16870210.80547  20681101.544    20681101.319    20681109.557
       232.000         192.000
 -15462630.18749 -12032269.14747  19379665.457    19379665.772    19379672.780
       240.000         209.000
   -431750.70149   -320264.06545  23804946.219    23804944.849    23804956.492
       205.000         139.000
   5609156.71449   4374187.05947  21566683.030    21566682.678    21566691.687
       226.000         188.000
 -12129993.48749  -9434604.13447  20161782.817    20161782.790    20161790.605
       241.000         209.000
 00  5 25 15 46 29.9950000  0  7G24G16G 5G 4G30G 7G 9
 -23951201.92549 -18637719.55047  19404608.501    19404608.520    19404617.669
       241.000         207.000
  -8721389.26749  -6779721.98145  23123571.521    23123571.166    23123581.776
       217.000         161.000
 -21759196.17849 -16943490.80047  20663205.803    20663205.579    20663213.913
       232.000         192.000
 -15455564.54049 -12026763.46747  19381009.988    19381010.325    19381017.369
       240.000         209.000
   -550085.95849   -412473.32945  23782427.992    23782430.142    23782440.025
       208.000         137.000
   5654934.93349   4409858.30346  21575394.294    21575393.927    21575403.111
       226.000         187.000
 -12111068.94049  -9419857.78747  20165384.089    20165384.052    20165391.968
       242.000         209.000
 00  5 25 15 46 59.9950000  0  7G24G16G 5G 4G30G 7G 9
 -24019657.50749 -18691061.53647  19391581.816    19391581.801    19391590.989
       240.000         207.000
  -8741882.84849  -6795691.00545  23119671.722    23119671.265    23119682.025
       218.000         161.000
 -21852977.12649 -17016566.84547  20645359.873    20645359.607    20645368.042
       232.000         192.000
 -15447854.09049 -12020755.34847  19382477.187    19382477.507    19382484.659
       239.000         209.000
   -668379.70959   -504650.24255  23759917.394    23759918.853    23759927.418
       204.000         133.000
   5700849.87349   4445636.09746  21584131.681    21584131.279    21584140.536
       228.000         187.000
 -12091545.23549  -9404644.56547  20169099.328    20169099.304    20169107.339
       241.000         208.000
 00  5 25 15 47 29.9950000  0  7G24G16G 5G 4G30G 7G 9
 -24087559.55249 -18743972.19247  19378660.404    19378660.424    19378669.676
       241.000         207.000
  -8761796.67049  -6811208.29545  23115882.289    23115881.906    23115892.566
       216.000         160.000
 -21946524.69849 -17089461.03847  20627558.387    20627558.067    20627566.498
       232.000         192.000
 -15439530.40049 -12014269.37947  19384061.053    19384061.413    19384068.623
       240.000         208.000
   -786660.70649   -596817.18045  23737409.031    23737409.070    23737418.581
       205.000         133.000
   5746871.16049   4481496.75446  21592889.290    21592888.835    21592898.146
       226.000         185.000
 -12071454.18749  -9388989.25947  20172922.533    20172922.509    20172930.554
       242.000         208.000
 00  5 25 15 47 59.9950000  0  7G24G16G 5G 4G30G 7G 9
 -24154865.58849 -18796418.43547  19365852.498    19365852.477    19365861.758
       241.000         207.000
  -8781088.63549  -6826241.01445  23112211.224    23112210.799    23112221.302
       213.000         155.000
 -22039795.60649 -17162139.64747  20609809.495    20609809.162    20609817.536
       232.000         191.000
 -15430553.67849 -12007274.55347  19385769.254    19385769.600    19385776.853
       239.000         208.000
   -904886.47749   -688941.15245  23714911.278    23714911.657    23714920.693
       204.000         132.000
   5793039.68849   4517472.16946  21601674.874    21601674.449    21601683.770
       226.000         185.000
 -12050756.12449  -9372860.95747  20176861.300    20176861.265    20176869.277
       241.000         208.000
 00  5 25 15 48 29.9950000  0  7G24G16G 5G 4G30G 7G 9
 -24221537.66549 -18848370.68347  19353165.203    19353165.190    19353174.489
       241.000         208.000
  -8799720.90849  -6840759.74445  23108665.502    23108665.117    23108675.733
       209.000         153.000
 -22132750.96549 -17234572.37547  20592120.697    20592120.334    20592128.627
       233.000         192.000
 -15420888.72149 -11999743.43847  19387608.402    19387608.748    19387616.039
       239.000         207.000
  -1023019.01149   -780992.47345  23692431.166    23692431.727    23692440.611
       204.000         132.000
   5839391.89649   4553590.70746  21610495.539    21610495.012    21610504.295
       226.000         185.000
 -12029415.52349  -9356231.97647  20180922.300    20180922.251    20180930.285
       242.000         208.000
 00  5 25 15 48 59.9950000  0  7G24G16G 5G 4G30G 7G 9
 -24287132.83549 -18899483.77447  19340682.862    19340682.839    19340692.129
       242.000         207.000
  -8817250.87749  -6854419.48945  23105329.555    23105329.293    23105339.856
       211.000         152.000
 -22224946.96449 -17306413.38647  20574576.361    20574576.007    20574584.295
       232.000         192.000
 -15410095.02249 -11991332.78347  19389662.338    19389662.696    19389670.020
       239.000         207.000
  -1140614.91049   -872625.62545  23670053.563    23670054.365    23670063.142
       205.000         135.000
   5886369.30149   4590196.40146  21619435.024    21619434.576    21619443.842
       227.000         185.000
 -12006992.37849  -9338759.46047  20185189.380    20185189.311    20185197.284
       242.000         208.000
 00  5 25 15 49 29.9950000  0  7G24G16G 5G 4G30G 7G 9
 -24352042.82349 -18950062.96047  19328330.866    19328330.863    19328340.141
       241.000         208.000
  -8834070.77949  -6867525.91145  23102128.868    23102128.561    23102139.224
       212.000         152.000
 -22316774.53549 -17377967.31747  20557102.115    20557101.749    20557110.082
       232.000         192.000
 -15398566.88949 -11982349.85247  19391856.080    19391856.454    19391863.751
       239.000         207.000
  -1258065.81349   -964145.75245  23647703.441    23647704.030    23647713.227
       206.000         138.000
   5933578.47549   4626982.66446  21628418.667    21628418.282    21628427.529
       229.000         186.000
 -11983881.02749  -9320750.68147  20189587.299    20189587.266    20189595.280
       241.000         208.000
 00  5 25 15 49 59.9950000  0  7G24G16G 5G 4G30G 7G 9
 -24416355.69349 -19000176.86147  19316092.481    19316092.470    19316101.737
       240.000         207.000
  -8850268.74549  -6880147.72345  23099046.540    23099046.214    23099056.911
       213.000         154.000
 -22408320.78449 -17449302.03847  20539681.365    20539681.015    20539689.364
       232.000         191.000
 -15386394.97549 -11972865.26547  19394172.399    19394172.703    19394179.980
       239.000         207.000
  -1375459.46249  -1055621.26445  23625364.119    23625364.547    23625374.053
       207.000         139.000
   5980930.08049   4663879.93646  21637429.586    21637429.111    21637438.361
       226.000         185.000
 -11960172.32049  -9302276.42247  20194098.948    20194098.873    20194106.995
       242.000         208.000
 00  5 25 15 50 29.9950000  0  7G24G16G 5G 4G30G 7G 9
 -24480095.98649 -19049844.61047  19303963.016    19303963.015    19303972.322
       241.000         207.000
  -8865869.81149  -6892304.42345  23096077.845    23096077.442    23096088.257
       211.000         157.000
 -22499609.60149 -17520436.17447  20522309.648    20522309.303    20522317.616
       232.000         192.000
 -15373606.57349 -11962900.30347  19396605.920    19396606.239    19396613.525
       238.000         207.000
  -1492820.01949  -1147071.01245  23603030.980    23603031.612    23603041.078
       205.000         140.000
   6028398.21649   4700868.01346  21646462.560    21646462.099    21646471.355
       225.000         184.000
 -11935893.64049  -9283358.03647  20198719.077    20198719.009    20198727.129
       242.000         209.000
 00  5 25 15 50 59.9950000  0  7G24G16G 5G 4G30G 7G 9
 -24543303.03749 -19099096.84547  19291935.117    19291935.076    19291944.452
       241.000         208.000
  -8880913.59349  -6904026.88645  23093215.023    23093214.728    23093225.599
       213.000         159.000
 -22590679.29549 -17591399.54547  20504979.634    20504979.254    20504987.640
       232.000         193.000
 -15360243.39849 -11952487.46947  19399148.822    19399149.128    19399156.474
       238.000         207.000
  -1610186.30349  -1238525.18745  23580696.789    23580697.388    23580707.090
       206.000         140.000
   6075942.20449   4737915.20646  21655509.998    21655509.465    21655518.691
       224.000         183.000
 -11911087.07849  -9264028.32147  20203439.642    20203439.570    20203447.751
       242.000         208.000
 00  5 25 15 51 29.9950000  0  7G24G16G 5G 4G30G 7G 9
 -24605945.58149 -19147909.19847  19280014.621    19280014.594    19280023.971
       241.000         207.000
  -8895369.13649  -6915290.94345  23090464.350    23090463.985    23090474.853
       217.000         162.000
 -22681497.49149 -17662166.95347  20487697.448    20487697.067    20487705.547
       232.000         193.000
 -15346276.92849 -11941604.52847  19401806.520    19401806.868    19401814.265
       238.000         207.000
  -1727526.86449  -1329959.33145  23558367.558    23558367.800    23558377.633
       205.000         138.000
   6123591.85349   4775044.72246  21664577.284    21664576.945    21664586.165
       227.000         183.000
 -11885723.91549  -9244264.88647  20208266.191    20208266.096    20208274.237
       242.000         208.000
 00  5 25 15 51 59.9950000  0  7G24G16G 5G 4G30G 7G 9
 -24667987.47649 -19196253.51047  19268208.461    19268208.418    19268217.761
       240.000         207.000
  -8909200.63749  -6926068.73646  23087832.435    23087832.051    23087842.982
       219.000         166.000
 -22772027.19949 -17732709.57447  20470470.140    20470469.793    20470478.323
       232.000         193.000
 -15331673.62449 -11930225.35347  19404585.473    19404585.809    19404593.192
       239.000         206.000
  -1844805.41449  -1421345.13445  23536050.147    23536050.352    23536059.589
       207.000         136.000
   6171381.84749   4812283.58846  21673671.498    21673671.157    21673680.470
       225.000         183.000
 -11859770.53249  -9224041.54547  20213204.983    20213204.908    20213213.053
       242.000         208.000
 00  5 25 15 52 29.9950000  0  7G24G16G 5G 4G30G 7G 9
 -24729483.38849 -19244172.38747  19256506.173    19256506.121    19256515.440
       241.000         206.000
  -8922463.13549  -6936403.16546  23085308.712    23085308.383    23085319.241
       218.000         168.000
 -22862322.05449 -17803069.19047  20453287.538    20453287.234    20453295.815
       233.000         194.000
 -15316490.70749 -11918394.53447  19407474.714    19407475.004    19407482.396
       238.000         205.000
  -1962075.73149  -1512724.52045  23513734.464    23513734.464    23513743.628
       205.000         138.000
   6219256.41849   4849588.34946  21682781.908    21682781.516    21682790.742
       226.000         183.000
 -11833284.46749  -9203403.12147  20218245.178    20218245.098    20218253.209
       242.000         208.000
 00  5 25 15 52 59.9950000  0  7G24G16G 5G 4G30G 7G 9
 -24790432.48249 -19291665.17547  19244907.893    19244907.866    19244917.111
       240.000         206.000
  -8935156.22149  -6946293.88246  23082893.435    23082893.010    23082903.780
       216.000         168.000
 -22952380.35149 -17873244.47447  20436150.006    20436149.733    20436158.331
       232.000         194.000
 -15300729.88749 -11906113.39747  19410473.891    19410474.227    19410481.556
       238.000         205.000
  -2079336.86249  -1604096.77645  23491420.390    23491420.388    23491429.661
       210.000         138.000
   6267215.01149   4886958.60146  21691908.191    21691907.838    21691917.005
       226.000         182.000
 -11806267.68449  -9182351.16547  20223386.324    20223386.249    20223394.376
       242.000         208.000
 00  5 25 15 53 29.9950000  0  7G24G16G 5G 4G30G 7G 9
 -24850844.59849 -19338739.53247  19233411.811    19233411.782    19233421.046
       239.000         206.000
  -8947289.96749  -6955748.76046  23080584.531    23080584.127    23080594.885
       216.000         167.000
 -23042210.82849 -17943242.23047  20419055.833    20419055.531    20419064.161
       233.000         194.000
 -15284403.79549 -11893391.77847  19413580.686    19413580.994    19413588.273
       237.000         204.000
  -2196598.08149  -1695469.12145  23469106.455    23469106.222    23469115.793
       210.000         139.000
   6315246.51449   4924385.66246  21701048.353    21701047.949    21701057.088
       224.000         181.000
 -11778732.79949  -9160895.47747  20228626.124    20228626.030    20228634.143
       242.000         208.000
 00  5 25 15 53 59.9950000  0  7G24G16G 5G 4G30G 7G 9
 -24910726.82449 -19385400.98947  19222016.556    19222016.518    19222025.834
       240.000         205.000
  -8958871.79249  -6964773.57946  23078380.573    23078380.186    23078391.033
       211.000         163.000
 -23131819.26649 -18013066.98447  20402003.947    20402003.621    20402012.226
       233.000         195.000
 -15267521.82049 -11880237.01547  19416793.204    19416793.555    19416800.808
       238.000         204.000
  -2313865.96049  -1786846.65645  23446791.122    23446791.092    23446800.346
       209.000         138.000
   6363342.76049   4961863.17846  21710200.927    21710200.506    21710209.583
       224.000         181.000
 -11750689.20749  -9139043.40247  20233962.699    20233962.618    20233970.699
       242.000         207.000
 00  5 25 15 54 29.9950000  0  7G24G16G 5G 4G30G 7G 9
 -24970090.51049 -19431658.39447  19210720.041    19210720.003    19210729.269
       240.000         206.000
  -8969913.28349  -6973377.36645  23076279.304    23076279.027    23076289.946
       210.000         161.000
 -23221215.80849 -18082726.61347  20384992.318    20384991.990    20385000.644
       232.000         194.000
 -15250097.96249 -11866660.00347  19420108.927    19420109.204    19420116.457
       239.000         205.000
  -2431151.11449  -1878237.64845  23424472.472    23424472.361    23424482.017
       209.000         139.000
   6411491.30149   4999381.43546  21719363.431    21719362.961    21719372.017
       226.000         182.000
 -11722151.07849  -9116805.97247  20239393.374    20239393.304    20239401.409
       241.000         207.000
 00  5 25 15 54 59.9950000  0  7G24G16G 5G 4G30G 7G 9
 -25028923.07849 -19477501.93447  19199524.652    19199524.577    19199533.764
       239.000         205.000
  -8980402.39349  -6981550.74345  23074283.305    23074282.903    23074293.985
       211.000         161.000
 -23310387.04849 -18152210.68447  20368023.544    20368023.244    20368031.913
       233.000         195.000
 -15232122.34649 -11852653.04647  19423529.534    19423529.864    19423537.137
       239.000         206.000
  -2548440.69549  -1969632.10045  23402153.159    23402153.251    23402162.686
       208.000         139.000
   6459703.22949   5036949.05246  21728538.050    21728537.473    21728546.531
       225.000         181.000
 -11693109.06249  -9094175.90147  20244919.897    20244919.840    20244928.023
       242.000         207.000
 00  5 25 15 55 29.9950000  0  7G24G16G 5G 4G30G 7G 9
 -25087218.57249 -19522926.98147  19188431.321    19188431.287    19188440.435
       239.000         205.000
  -8990333.42349  -6989289.23245  23072393.248    23072393.021    23072404.127
       213.000         162.000
 -23399325.58249 -18221513.42347  20351099.152    20351098.844    20351107.445
       234.000         195.000
 -15213591.41249 -11838213.37147  19427055.940    19427056.249    19427063.470
       239.000         206.000
  -2665727.67649  -2061024.53745  23379834.169    23379834.136    23379843.855
       205.000         137.000
   6507983.67149   5074570.09946  21737725.496    21737724.961    21737734.088
       223.000         181.000
 -11663559.51149  -9071150.35447  20250543.059    20250542.980    20250551.210
       241.000         207.000
 00  5 25 15 55 59.9950000  0  7G24G16G 5G 4G30G 7G 9
 -25144974.04949 -19567931.22947  19177440.852    19177440.808    19177449.894
       238.000         205.000
  -8999703.87549  -6996590.90546  23070610.155    23070609.928    23070621.041
       215.000         163.000
 -23488027.59749 -18290631.86547  20334219.784    20334219.450    20334227.996
       233.000         195.000
 -15194504.85849 -11823340.75447  19430688.022    19430688.322    19430695.530
       239.000         205.000
  -2783008.69349  -2152412.33545  23357516.313    23357516.362    23357525.960
       205.000         136.000
   6556334.20949   5112245.75846  21746926.171    21746925.747    21746935.028
       222.000         180.000
 -11633501.99049  -9047728.98247  20256262.845    20256262.787    20256271.038
       242.000         207.000
 00  5 25 15 56 29.9950000  0  7G24G16G 5G 4G30G 7G 9
 -25202179.45449 -19612506.86047  19166554.981    19166554.947    19166564.011
       238.000         205.000
  -9008504.27449  -7003448.33445  23068935.707    23068935.396    23068946.332
       217.000         159.000
 -23576481.49549 -18359556.96847  20317387.577    20317387.257    20317395.718
       234.000         195.000
 -15174855.41649 -11808029.52947  19434427.231    19434427.528    19434434.722
       239.000         205.000
  -2900273.12649  -2243787.15345  23335201.593    23335201.881    23335211.133
       203.000         136.000
   6604763.95249   5149983.12646  21756142.289    21756141.761    21756150.995
       224.000         180.000
 -11602929.33449  -9023906.20747  20262080.731    20262080.599    20262088.955
       241.000         206.000
 00  5 25 15 56 59.9950000  0  7G24G16G 5G 4G30G 7G 9
 -25258841.67549 -19656659.21747  19155772.578    19155772.533    19155781.532
       238.000         205.000
  -9016741.53649  -7009866.97245  23067368.380    23067367.972    23067378.689
       217.000         160.000
 -23664692.88249 -18428293.09647  20300601.554    20300601.215    20300609.586
       235.000         196.000
 -15154652.41149 -11792286.94647  19438271.845    19438272.092    19438279.244
       239.000         205.000
  -3017526.92349  -2335153.67045  23312889.012    23312889.409    23312897.961
       205.000         136.000
   6653264.82049   5187775.92546  21765371.742    21765371.216    21765380.470
       222.000         180.000
 -11571851.10249  -8999689.47047  20267994.727    20267994.629    20268003.024
       240.000         206.000
 00  5 25 15 57 29.9950000  0  7G24G16G 5G 4G30G 7G 9
 -25314957.22049 -19700385.59947  19145094.141    19145094.119    19145103.118
       238.000         206.000
  -9024412.56649  -7015844.39545  23065908.728    23065908.326    23065918.882
       216.000         159.000
 -23752657.19849 -18496836.70347  20283862.574    20283862.214    20283870.510
       234.000         196.000
 -15133894.78349 -11776112.18647  19442221.912    19442222.172    19442229.304
       240.000         205.000
  -3134765.83249  -2426508.57845  23290579.164    23290579.691    23290587.928
       206.000         134.000
   6701839.61049   5225626.33046  21774615.219    21774614.748    21774623.976
       222.000         179.000
 -11540266.45649  -8975078.13547  20274005.099    20274004.997    20274013.463
       241.000         206.000
 00  5 25 15 57 59.9950000  0  7G24G16G 5G 4G30G 7G 9
 -25370534.35749 -19743692.44247  19134518.241    19134518.204    19134527.172
       239.000         205.000
  -9031526.30249  -7021387.56245  23064554.978    23064554.633    23064565.171
       211.000         152.000
 -23840381.47049 -18565193.26047  20267169.229    20267168.845    20267177.177
       235.000         196.000
 -15112593.47549 -11759513.77747  19446275.472    19446275.736    19446282.824
       240.000         206.000
  -3251997.47449  -2517857.83945  23268270.448    23268270.968    23268279.597
       204.000         134.000
   6750478.79249   5263526.89846  21783871.102    21783870.569    21783879.862
       223.000         179.000
 -11508186.23849  -8950080.63247  20280109.785    20280109.675    20280118.212
       241.000         205.000
 00  5 25 15 58 29.9950000  0  7G24G16G 5G 4G30G 7G 9
 -25425560.98249 -19786570.31247  19124047.090    19124047.013    19124055.897
       238.000         205.000
  -9038070.69349  -7026487.06945  23063309.593    23063309.349    23063319.771
       207.000         147.000
 -23927852.21749 -18633352.26747  20250524.073    20250523.753    20250532.041
       235.000         196.000
 -15090738.86449 -11742484.22747  19450434.339    19450434.591    19450441.631
       241.000         207.000
  -3369208.94449  -2609191.42645  23245965.506    23245966.162    23245974.896
       205.000         134.000
   6799193.55949   5301486.35746  21793141.085    21793140.688    21793150.094
       222.000         180.000
 -11475601.14649  -8924689.72747  20286310.591    20286310.498    20286319.007
       242.000         206.000
 00  5 25 15 58 59.9950000  0  7G24G16G 5G 4G30G 7G 9
 -25480077.13749 -19829050.40847  19113673.001    19113672.930    19113681.749
       239.000         205.000
  -9044086.45049  -7031174.68345  23062164.995    23062164.555    23062175.090
       201.000         139.000
 -24015108.10549 -18701343.84647  20233919.884    20233919.542    20233927.749
       234.000         196.000
 -15068373.50449 -11725056.68747  19454690.389    19454690.658    19454697.684
       241.000         207.000
  -3486439.70849  -2700540.02445  23223657.159    23223657.781    23223666.850
       206.000         132.000
   6847942.80449   5339472.67646  21802417.732    21802417.328    21802426.880
       223.000         178.000
 -11442554.01549  -8898938.79447  20292599.403    20292599.281    20292607.736
       241.000         206.000
 00  5 25 15 59 29.9950000  0  7G24G16G 5G 4G30G 7G 9
 -25534069.84449 -19871122.62847  19103398.529    19103398.451    19103407.195
       238.000         205.000
  -9049560.52049  -7035440.17445  23061123.175    23061122.725    23061133.389
       198.000         136.000
 -24102134.68149 -18769156.75447  20217359.316    20217358.980    20217367.061
       235.000         195.000
 -15045487.01049 -11707223.07347  19459045.645    19459045.893    19459052.855
       241.000         208.000
  -3603675.67149  -2791892.67044  23201347.984    23201348.402    23201358.946
       207.000         129.000
   6896738.66849   5377495.34546  21811703.167    21811702.861    21811712.520
       222.000         177.000
 -11409034.35549  -8872819.65647  20298978.076    20298977.967    20298986.346
       241.000         206.000
 00  5 25 15 59 59.9950000  0  7G24G16G 5G 4G30G 7G 9
 -25587560.63649 -19912803.74547  19093219.553    19093219.509    19093228.226
       238.000         205.000
  -9054515.01148  -7039300.83145  23060180.480    23060179.945    23060190.444
       191.000         132.000
 -24188952.08049 -18836806.66547  20200838.521    20200838.170    20200846.206
       235.000         196.000
 -15022103.39749 -11689002.09947  19463495.462    19463495.709    19463502.637
       241.000         208.000
  -3720937.02949  -2883265.22244  23179033.619    23179033.772    23179045.878
       205.000         129.000
   6945558.91449   5415537.00046  21820993.603    21820993.162    21821002.784
       222.000         178.000
 -11375066.11149  -8846350.96947  20305442.021    20305441.958    20305450.360
       241.000         206.000
 00  5 25 16  0 29.9950000  0  7G24G16G 5G 4G30G 7G 9
 -25640553.17749 -19954096.61747  19083135.426    19083135.392    19083144.104
       239.000         205.000
  -9058954.00148  -7042759.79944  23059335.663    23059335.095    23059345.743
       187.000         125.000
 -24275562.74449 -18904295.47347  20184356.998    20184356.628    20184364.717
       234.000         196.000
 -14998228.91049 -11670398.62047  19468038.660    19468038.909    19468045.830
       241.000         208.000
  -3838226.85749  -2974659.95645  23156714.047    23156714.370    23156726.009
       207.000         135.000
   6994398.78049   5453593.93646  21830287.640    21830287.170    21830296.852
       223.000         178.000
 -11340655.97649  -8819537.95247  20311990.137    20311990.066    20311998.461
       241.000         206.000
 00  5 25 16  0 59.9950000  0  7G24G16G 5G 4G30G 7G 9
 -25693012.96149 -19994974.35147  19073152.674    19073152.664    19073161.282
       238.000         205.000
  -9062843.57248  -7045790.64944  23058595.378    23058595.139    23058605.568
       187.000         123.000
 -24361930.79549 -18971595.23547  20167921.623    20167921.300    20167929.418
       234.000         196.000
 -14973831.65249 -11651387.78347  19472681.322    19472681.565    19472688.529
       242.000         208.000
  -3955509.87749  -3066049.29345  23134395.851    23134396.324    23134407.030
       207.000         139.000
   7043292.09249   5491692.54946  21839591.777    21839591.389    21839600.969
       225.000         178.000
 -11305771.95749  -8792355.67147  20318628.366    20318628.297    20318636.767
       240.000         206.000
 00  5 25 16  1 29.9950000  0  7G24G16G 5G 4G30G 7G 9
 -25744955.64449 -20035449.15547  19063268.315    19063268.312    19063276.879
       239.000         205.000
  -9066199.65058  -7048405.73854  23057956.914                    23057955.582
       180.000         120.000
 -24448070.37049 -19038716.97647  20151529.803    20151529.487    20151537.554
       234.000         195.000
 -14948929.69549 -11631983.67047  19477420.026    19477420.268    19477427.234
       242.000         208.000
  -4072800.69349  -3157444.69045  23112076.081    23112076.440    23112087.048
       207.000         141.000
   7092222.37149   5529819.94646  21848903.021    21848902.671    21848912.083
       225.000         177.000
 -11270432.29049  -8764818.34747  20325353.320    20325353.262    20325361.730
       241.000         206.000
 00  5 25 16  1 59.9950000  0  7G24G16G 5G 4G30G 7G 9
 -25796390.05249 -20075527.90047  19053480.688    19053480.699    19053489.202
       238.000         205.000
                  -7050612.26254  23057417.943
       169.000         116.000
 -24533988.54549 -19105666.18347  20135180.107    20135179.735    20135187.858
       235.000         195.000
 -14923534.25749 -11612195.02747  19482252.603    19482252.838    19482259.862
       241.000         208.000
  -4190106.89849  -3248852.09445  23089753.285    23089753.566    23089764.341
       207.000         140.000
   7141180.04549   5567968.69946  21858219.529    21858219.103    21858228.472
       224.000         177.000
 -11234648.42549  -8736934.89747  20332162.856    20332162.788    20332171.234
       241.000         205.000
 00  5 25 16  2 29.9950000  0  6G24G 5G 4G30G 7G 9
 -25847316.94549 -20115211.16947  19043789.639    19043789.613    19043798.159
       238.000         205.000
 -24619684.81949 -19172442.49147  20118872.676    20118872.309    20118880.385
       234.000         196.000
 -14897648.99349 -11592024.70447  19487178.306    19487178.580    19487185.713
       241.000         208.000
  -4307428.19149  -3340271.26445  23067427.736    23067428.090    23067438.512
       205.000         139.000
   7190163.36949   5606137.43146  21867540.711    21867540.354    21867549.647
       222.000         174.000
 -11198424.15049  -8708708.26747  20339056.173    20339056.112    20339064.531
       241.000         205.000
 00  5 25 16  2 59.9950000  0  6G24G 5G 4G30G 7G 9
 -25897700.84649 -20154471.33347  19034201.915    19034201.906    19034210.434
       238.000         205.000
 -24705121.84949 -19239016.78347  20102614.519    20102614.176    20102622.258
       234.000         196.000
 -14871240.73949 -11571446.86247  19492203.592    19492203.869    19492211.043
       240.000         208.000
  -4424728.21649  -3431673.84245  23045106.310    23045106.478    23045116.666
       208.000         141.000
   7239207.27349   5644353.35246  21876873.388    21876873.083    21876882.316
       223.000         174.000
 -11161726.23849  -8680112.57347  20346039.586    20346039.538    20346047.922
       240.000         205.000
 00  5 25 16  3 29.9950000  0  6G24G 5G 4G30G 7G 9
 -25947557.95649 -20193321.01047  19024714.445    19024714.420    19024722.908
       238.000         204.000
 -24790314.33749 -19305400.51847  20086402.955    20086402.577    20086410.663
       235.000         196.000
 -14844328.02549 -11550475.92847  19497324.934    19497325.216    19497332.409
       239.000         209.000
  -4542021.98349  -3523071.51445  23022786.005    23022786.188    23022795.834
       206.000         141.000
   7288294.99049   5682603.42546  21886214.646    21886214.305    21886223.444
       225.000         176.000
 -11124573.47249  -8651162.44447  20353109.631    20353109.575    20353117.879
       241.000         204.000
 00  5 25 16  3 59.9950000  0  6G24G 5G 4G30G 7G 9
 -25996897.90549 -20231767.70347  19015325.429    19015325.383    19015333.828
       238.000         204.000
 -24875270.55949 -19371600.15647  20070236.284    20070235.919    20070244.051
       234.000         196.000
 -14816923.32349 -11529121.63247  19502539.865    19502540.155    19502547.436
       240.000         209.000
  -4659317.96449  -3614470.90545  23000465.114    23000465.321    23000474.796
       206.000         142.000
   7337415.94349   5720879.38446  21895562.277    21895561.845    21895570.973
       223.000         176.000
 -11086978.27749  -8621867.56947  20360263.839    20360263.763    20360272.064
       240.000         204.000
 00  5 25 16  4 29.9950000  0  6G24G 5G 4G30G 7G 9
 -26045728.63949 -20269817.61147  19006033.176    19006033.154    19006041.597
       237.000         204.000
 -24959996.67949 -19437620.49847  20054113.404    20054113.059    20054121.233
       234.000         197.000
 -14789036.64049 -11507391.77347  19507846.585    19507846.849    19507854.149
       240.000         210.000
  -4776622.66149  -3705877.07545  22978142.646    22978142.868    22978152.414
       206.000         143.000
   7386561.85249   5759174.82146  21904914.509    21904914.068    21904923.415
       222.000         176.000
 -11048951.08549  -8592236.07147  20367500.176    20367500.125    20367508.467
       240.000         204.000
 00  5 25 16  4 59.9950000  0  6G24G 5G 4G30G 7G 9
 -26094030.30249 -20307455.25047  18996841.701    18996841.653    18996850.017
       238.000         203.000
 -25044471.13549 -19503444.73347  20038038.417    20038038.090    20038046.288
       235.000         197.000
 -14760650.94949 -11485273.07947  19513248.185    19513248.479    19513255.819
       240.000         210.000
  -4893915.08749  -3797273.70245  22955822.597    22955822.828    22955832.412
       207.000         145.000
   7435751.68949   5797504.49046  21914274.907    21914274.576    21914284.084
       220.000         175.000
 -11010474.67549  -8562254.53547  20374822.028    20374821.980    20374830.378
       240.000         205.000
 00  5 25 16  5 29.9950000  0  6G24G 5G 4G30G 7G 9
 -26141819.62249 -20344693.65747  18987747.649    18987747.606    18987755.946
       238.000         203.000
 -25128708.87649 -19569084.51447  20022008.470    20022008.121    20022016.388
       233.000         197.000
 -14731785.11749 -11462780.23947  19518741.207    19518741.507    19518748.828
       240.000         210.000
  -5011210.73349  -3888672.84645  22933502.006    22933502.205    22933511.962
       211.000         148.000
   7484968.33349   5835855.01446  21923640.308    21923640.152    21923649.841
       220.000         174.000
 -10971568.21849  -8531937.90347  20382225.695    20382225.676    20382234.136
       240.000         204.000
 00  5 25 16  5 59.9950000  0  6G24G 5G 4G30G 7G 9
 -26189071.95649 -20381513.63847  18978755.779    18978755.758    18978764.114
       237.000         203.000
 -25212683.73749 -19634519.45347  20006028.465    20006028.173    20006036.482
       235.000         197.000
 -14702417.15049 -11439896.13047  19524329.737    19524330.047    19524337.367
       240.000         209.000
  -5128483.94849  -3980054.52345  22911185.732    22911185.855    22911195.913
       212.000         150.000
   7534235.77349   5874245.10146  21933015.708    21933015.494    21933025.237
       221.000         173.000
 -10932209.94949  -8501269.20847  20389715.438    20389715.414    20389723.856
       241.000         205.000
 00  5 25 16  6 29.9950000  0  6G24G 5G 4G30G 7G 9
 -26235788.05649 -20417915.78047  18969865.962    18969865.975    18969874.324
       238.000         204.000
 -25296394.83049 -19699748.86347  19990098.802    19990098.520    19990106.746
       235.000         197.000
 -14672550.26449 -11416623.24947  19530013.214    19530013.512    19530020.871
       238.000         208.000
  -5245733.96149  -4071418.11445  22888873.742    22888873.847    22888884.002
       212.000         152.000
   7583552.69449   5912673.78146  21942400.582    21942400.301    21942409.946
       221.000         172.000
 -10892403.07149  -8470250.95247  20397290.561    20397290.517    20397298.949
       241.000         205.000
 00  5 25 16  6 59.9950000  0  6G24G 5G 4G30G 7G 9
 -26281987.74849 -20453915.52347  18961074.501    18961074.460    18961082.780
       237.000         203.000
 -25379860.09149 -19764786.71847  19974215.943    19974215.604    19974223.805
       235.000         198.000
 -14642206.57249 -11392978.83747  19535787.452    19535787.732    19535795.101
       239.000         209.000
  -5362979.14349  -4162777.96445  22866562.570    22866562.803    22866573.181
       213.000         153.000
   7632898.96649   5951125.30746  21951790.962    21951790.653    21951800.371
       220.000         172.000
 -10852169.92949  -8438900.54347  20404946.779    20404946.741    20404955.183
       241.000         205.000
 00  5 25 16  7 29.9950000  0  6G24G 5G 4G30G 7G 9
 -26327650.88449 -20489497.17447  18952385.032    18952385.022    18952393.351
       237.000         203.000
 -25463057.69049 -19829616.00647  19958384.024    19958383.658    19958391.849
       236.000         198.000
 -14611368.63949 -11368949.30247  19541655.764    19541656.017    19541663.411
       239.000         208.000
  -5480198.25949  -4254117.49745  22844256.418    22844256.612    22844267.270
       214.000         154.000
   7682293.89749   5989614.76346  21961190.561    21961190.294    21961200.020
       221.000         172.000
 -10811493.10649  -8407204.41147  20412687.375    20412687.343    20412695.805
       240.000         204.000
 00  5 25 16  7 59.9950000  0  6G24G 5G 4G30G 7G 9
 -26372774.18249 -20524658.17147  18943798.337    18943798.324    18943806.586
       237.000         202.000
 -25545982.45549 -19894232.70647  19942604.062    19942603.680    19942611.825
       236.000         198.000
 -14580035.29549 -11344533.73347  19547618.267    19547618.550    19547625.906
       240.000         209.000
  -5597386.40849  -4345432.90645  22821956.331    22821956.577    22821967.360
       213.000         156.000
   7731740.70649   6028144.63246  21970600.146    21970599.874    21970609.575
       223.000         173.000
 -10770371.69849  -8375161.85247  20420512.580    20420512.550    20420521.097
       240.000         204.000
 00  5 25 16  8 29.9950000  0  6G24G 5G 4G30G 7G 9
 -26417357.08549 -20559398.08447  18935314.496    18935314.474    18935322.716
       237.000         202.000
 -25628631.95849 -19958634.91147  19926876.376    19926876.006    19926884.139
       236.000         198.000
 -14548208.65049 -11319733.77647  19553674.672    19553674.968    19553682.369
       239.000         209.000
  -5714541.58549  -4436722.60045  22799662.480    22799662.702    22799673.574
       213.000         154.000
   7781239.30549   6066714.85946  21980019.429    21980019.236    21980028.959
       222.000         173.000
 -10728807.83749  -8342774.52247  20428421.921    20428421.926    20428430.623
       240.000         204.000
 00  5 25 16  8 59.9950000  0  6G24G 5G 4G30G 7G 9
 -26461413.64649 -20593727.86047  18926930.772    18926930.758    18926939.048
       236.000         203.000
 -25711018.61249 -20022832.30447  19911198.718    19911198.336    19911206.499
       236.000         198.000
 -14515905.04649 -11294562.16047  19559821.913    19559822.191    19559829.540
       240.000         209.000
  -5831676.35349  -4527996.40145  22777372.444    22777372.707    22777383.437
       212.000         151.000
   7830775.39449   6105314.28146  21989446.105    21989445.779    21989455.412
       222.000         174.000
 -10686817.86649  -8310055.16347  20436412.454    20436412.429    20436421.122
       240.000         203.000
 00  5 25 16  9 29.9950000  0  6G24G 5G 4G30G 7G 9
 -26504955.69349 -20627656.72047  18918644.965    18918644.938    18918653.300
       237.000         203.000
 -25793152.09249 -20086832.41947  19895569.202    19895568.842    19895577.027
       235.000         198.000
 -14483138.67249 -11269029.94247  19566057.189    19566057.447    19566064.786
       239.000         209.000
  -5948801.20149  -4619262.47845  22755084.418    22755084.623    22755095.152
       215.000         152.000
   7880336.68749   6143933.34946  21998877.534    21998877.160    21998886.759
       223.000         173.000
 -10644416.24249  -8277015.04347  20444481.355    20444481.297    20444489.928
       240.000         203.000
 00  5 25 16  9 59.9950000  0  6G24G 5G 4G30G 7G 9
 -26547955.43249 -20661163.00047  18910462.391    18910462.378    18910470.707
       236.000         203.000
 -25875002.86149 -20150612.23247  19879993.488    19879993.124    19880001.359
       236.000         199.000
 -14449884.19149 -11243117.38947  19572385.256    19572385.552    19572392.968
       239.000         208.000
  -6065886.75949  -4710497.94245  22732803.870    22732804.095    22732814.208
       216.000         152.000
   7929950.61549   6182593.43846  22008318.643    22008318.337    22008328.035
       221.000         170.000
 -10601577.61849  -8243634.39947  20452633.324    20452633.267    20452641.898
       239.000         203.000
 00  5 25 16 10 29.9950000  0  6G24G 5G 4G30G 7G 9
 -26590436.55049 -20694265.16747  18902378.464    18902378.441    18902386.819
       236.000         202.000
 -25956592.63649 -20214188.68147  19864467.447    19864467.103    19864475.365
       235.000         198.000
 -14416167.54449 -11216844.70847  19578801.217    19578801.557    19578809.021
       238.000         207.000
  -6182954.96149  -4801719.88745  22710526.454    22710526.800    22710536.683
       215.000         153.000
   7979593.30349   6221275.92546  22017765.499    22017765.130    22017774.745
       219.000         170.000
 -10558328.24749  -8209933.69847  20460863.483    20460863.412    20460872.081
       240.000         204.000
 00  5 25 16 10 59.9950000  0  6G24G 5G 4G30G 7G 9
 -26632368.16049 -20726939.14547  18894399.087    18894399.098    18894407.462
       236.000         202.000
 -26037888.69849 -20277536.25347  19848997.276    19848996.915    19849005.266
       235.000         198.000
 -14381960.30649 -11190189.74347  19585310.629    19585310.996    19585318.477
       239.000         208.000
  -6299973.63849  -4892903.21745  22688258.392    22688258.728    22688268.729
       215.000         154.000
   8029295.30149   6260004.63446  22027223.532    22027223.143    22027232.788
       218.000         169.000
 -10514640.02449  -8175891.04247  20469177.118    20469177.063    20469185.809
       240.000         203.000
 00  5 25 16 11 29.9950000  0  6G24G 5G 4G30G 7G 9
 -26673743.82349 -20759179.91147  18886525.557    18886525.577    18886533.898
       236.000         202.000
 -26118882.65449 -20340648.43047  19833584.649    19833584.287    19833592.561
       235.000         199.000
 -14347258.49449 -11163149.39247  19591914.258    19591914.603    19591922.039
       240.000         209.000
  -6416934.66749  -4984041.63245  22666001.326    22666001.700    22666011.524
       215.000         154.000
   8079062.65049   6298784.27846  22036693.934    22036693.620    22036703.514
       218.000         171.000
 -10470508.75049  -8141503.14447  20477575.130    20477575.070    20477583.813
       241.000         204.000
 00  5 25 16 11 59.9950000  0  6G24G 5G 4G30G 7G 9
 -26714570.04549 -20790992.54647  18878756.662    18878756.654    18878764.928
       236.000         203.000
 -26199578.75049 -20403528.50347  19818228.713    19818228.344    19818236.597
       234.000         198.000
 -14312070.71749 -11135730.36547  19598610.355    19598610.689    19598618.043
       241.000         209.000
  -6533842.39849  -5075138.52145  22643754.503    22643754.882    22643764.527
       218.000         158.000
   8128888.91249   6337609.79946  22046175.697    22046175.332    22046185.369
       218.000         171.000
 -10425943.44649  -8106777.05147  20486055.768    20486055.685    20486064.464
       240.000         204.000
 00  5 25 16 12 29.9950000  0  6G24G 5G 4G30G 7G 9
 -26754853.19849 -20822382.01247  18871091.052    18871091.033    18871099.331
       236.000         203.000
 -26279981.57049 -20466180.04247  19802928.553    19802928.159    19802936.458
       235.000         198.000
 -14276405.73749 -11107939.49747  19605397.219    19605397.549    19605404.875
       240.000         209.000
  -6650701.92149  -5166197.83345  22621517.044    22621517.344    22621526.727
       218.000         160.000
   8178767.23949   6376475.91546  22055667.172    22055666.827    22055677.036
       216.000         169.000
 -10380952.96649  -8071719.64747  20494617.248    20494617.174    20494625.974
       240.000         203.000
 00  5 25 16 12 59.9950000  0  6G24G 5G 4G30G 7G 9
 -26794586.95649 -20853343.38847  18863529.982    18863529.956    18863538.265
       235.000         202.000
 -26360082.89149 -20528596.65347  19787685.719    19787685.341    19787693.703
       235.000         199.000
 -14240259.92149 -11079773.95647  19612275.546    19612275.888    19612283.223
       240.000         209.000
  -6767505.41449  -5257213.46945  22599290.093    22599290.367    22599299.802
       218.000         162.000
   8228703.81349   6415387.39546  22065169.946    22065169.530    22065179.895
       217.000         171.000
 -10335533.67649  -8036328.10447  20503260.317    20503260.243    20503269.140
       240.000         203.000
 00  5 25 16 13 29.9950000  0  6G24G 5G 4G30G 7G 9
 -26833760.79149 -20883868.45247  18856075.364    18856075.361    18856083.742
       235.000         202.000
 -26439869.75849 -20590768.23847  19772502.760    19772502.403    19772510.778
       234.000         199.000
 -14203624.47949 -11051226.89247  19619247.102    19619247.425    19619254.730
       240.000         208.000
  -6884240.04149  -5348175.44946  22577076.040    22577076.419    22577085.970
       217.000         163.000
   8278709.26749   6454352.55046  22074685.818    22074685.426    22074695.830
       221.000         173.000
 -10289677.34549  -8000596.00847  20511986.515    20511986.466    20511995.388
       240.000         203.000
 00  5 25 16 13 59.9950000  0  6G24G 5G 4G30G 7G 9
 -26872395.07849 -20913973.09447  18848723.486    18848723.490    18848731.893
       235.000         202.000
 -26519360.61649 -20652709.17147  19757376.174    19757375.818    19757384.166
       236.000         199.000
 -14166522.48549 -11022316.28447  19626307.412    19626307.707    19626314.986
       239.000         207.000
  -7000924.75249  -5439098.54145  22554871.580    22554871.969    22554881.669
       217.000         162.000
   8328762.83849   6493355.21546  22084211.065    22084210.442    22084220.806
       218.000         173.000
 -10243406.88449  -7964541.22047  20520791.595    20520791.546    20520800.469
       240.000         204.000
 00  5 25 16 14 29.9950000  0  6G24G 5G 4G30G 7G 9
 -26910493.63749 -20943660.28147  18841473.556    18841473.556    18841482.009
       235.000         202.000
 -26598557.32049 -20714420.89347  19742305.561    19742305.192    19742313.550
       236.000         200.000
 -14128959.88549 -10993046.75847  19633455.353    19633455.653    19633462.883
       239.000         207.000
  -7117561.26649  -5529984.08245  22532676.434    22532676.800    22532686.465
       216.000         162.000
   8378860.80849   6532392.46046  22093744.474    22093743.936    22093754.255
       220.000         175.000
 -10196728.29149  -7928168.40847  20529674.323    20529674.287    20529683.213
       240.000         203.000
 00  5 25 16 14 59.9950000  0  6G24G 5G 4G30G 7G 9
 -26948065.01749 -20972936.68447  18834323.984    18834324.010    18834332.437
       235.000         203.000
 -26677466.28449 -20775908.39747  19727289.712    19727289.348    19727297.693
       236.000         200.000
 -14090947.55949 -10963426.78447  19640688.895    19640689.186    19640696.369
       240.000         207.000
  -7234156.32649  -5620837.31045  22510489.016    22510489.404    22510499.234
       216.000         160.000
   8428994.48449   6571457.52946  22103284.474    22103284.011    22103294.567
       221.000         176.000
 -10149652.61249  -7891486.17147  20538632.678    20538632.609    20538641.504
       240.000         203.000
 00  5 25 16 15 29.9950000  0  6G24G 5G 4G30G 7G 9
 -26985100.61449 -21001795.59547  18827276.362    18827276.348    18827284.816
       234.000         202.000
 -26756076.74249 -20837163.29947  19712330.690    19712330.324    19712338.606
       236.000         200.000
 -14052479.13649 -10933451.41147  19648009.216    19648009.511    19648016.615
       240.000         207.000
  -7350699.75549  -5711650.32445  22488311.398    22488311.893    22488321.691
       216.000         159.000
   8479172.43049   6610557.10146  22112833.133    22112832.661    22112843.303
       220.000         175.000
 -10102173.72649  -7854489.75647  20547667.704    20547667.640    20547676.582
       240.000         204.000
 00  5 25 16 15 59.9950000  0  6G24G 5G 4G30G 7G 9
 -27021590.81849 -21030229.52547  18820332.427    18820332.450    18820340.963
       234.000         202.000
 -26834377.05549 -20898176.52647  19697430.651    19697430.258    19697438.549
       237.000         201.000
 -14013547.16949 -10903114.83947  19655417.715    19655418.022    19655425.160
       241.000         207.000
  -7467179.96349  -5802414.07145  22466145.825    22466146.364    22466156.190
       215.000         157.000
   8529404.07049   6649698.48746  22122391.941    22122391.455    22122402.178
       221.000         174.000
 -10054284.52149  -7817173.60047  20556780.798    20556780.744    20556789.698
       239.000         203.000
 00  5 25 16 16 29.9950000  0  6G24G 5G 4G30G 7G 9
 -27057564.34949 -21058260.85247  18813486.888    18813486.902    18813495.442
       234.000         202.000
 -26912393.63649 -20958968.66947  19682584.642    19682584.270    19682592.472
       237.000         201.000
 -13974182.94349 -10872441.44047  19662908.565    19662908.843    19662915.966
       240.000         207.000
  -7583623.66349  -5893149.37045  22443987.255    22443987.735    22443997.655
       218.000         158.000
   8579660.71249   6688859.35746  22131955.553    22131955.134    22131965.915
       219.000         176.000
 -10006016.18049  -7779562.02147  20565965.973    20565965.942    20565974.999
       240.000         203.000
 00  5 25 16 16 59.9950000  0  6G24G 5G 4G30G 7G 9
 -27092996.10749 -21085870.01447  18806744.495    18806744.451    18806753.002
       234.000         201.000
 -26990099.04849 -21019518.34047  19667797.866    19667797.459    19667805.657
       238.000         202.000
 -13934363.39949 -10841413.25847  19670485.977    19670486.264    19670493.445
       240.000         207.000
  -7700003.72649  -5983835.10845  22421841.047    22421841.512    22421851.144
       219.000         159.000
   8629967.71749   6728059.47346  22141528.702    22141528.332    22141539.026
       220.000         174.000
  -9957345.71449  -7741637.09547  20575227.706    20575227.684    20575236.792
       239.000         202.000
 00  5 25 16 17 29.9950000  0  6G24G 5G 4G30G 7G 9
 -27127907.46249 -21113073.66547  18800101.070    18800101.044    18800109.585
       234.000         202.000
 -27067512.38149 -21079840.41347  19653066.645    19653066.224    19653074.364
       237.000         201.000
 -13894112.21449 -10810048.71947  19678145.561    19678145.831    19678153.042
       240.000         206.000
  -7816339.70549  -6074486.46545  22399703.255    22399703.559    22399713.034
       219.000         161.000
   8680303.59949   6767282.09746  22151107.469    22151107.014    22151117.762
       218.000         172.000
  -9908297.11549  -7703417.51947  20584561.480    20584561.418    20584570.516
       240.000         202.000
 00  5 25 16 17 59.9950000  0  6G24G 5G 4G30G 7G 9
 -27162268.13149 -21139848.20947  18793562.466    18793562.424    18793570.987
       233.000         202.000
 -27144601.16349 -21139909.58947  19638397.171    19638396.761    19638404.813
       238.000         201.000
 -13853401.10249 -10778325.80747  19685892.561    19685892.854    19685900.129
       239.000         206.000
  -7932599.14949  -6165078.17845  22377580.002    22377580.197    22377589.588
       220.000         162.000
   8730698.89349   6806551.02646  22160697.553    22160697.133    22160707.692
       219.000         170.000
  -9858842.30049  -7664881.41647  20593972.567    20593972.493    20593981.571
       240.000         202.000
 00  5 25 16 18 29.9950000  0  6G24G 5G 4G30G 7G 9
 -27196109.47349 -21166218.09147  18787122.660    18787122.629    18787131.254
       233.000         202.000
 -27221394.45649 -21199748.52247  19623783.875    19623783.471    19623791.464
       237.000         201.000
 -13812263.75949 -10746270.76547  19693720.749    19693721.057    19693728.377
       240.000         207.000
  -8048811.27849  -6255633.02346  22355465.400    22355465.738    22355475.284
       221.000         165.000
   8781122.36749   6845841.91546  22170293.094    22170292.608    22170303.072
       219.000         172.000
  -9809015.13349  -7626055.16347  20603454.491    20603454.393    20603463.493
       239.000         201.000
 00  5 25 16 18 59.9950000  0  6G24G 5G 4G30G 7G 9
 -27229406.94149 -21192164.16847  18780786.334    18780786.325    18780795.007
       233.000         202.000
 -27297865.63249 -21259336.44447  19609231.849    19609231.480    19609239.423
       237.000         201.000
 -13770677.92549 -10713866.24947  19701634.310    19701634.614    19701641.920
       240.000         206.000
  -8164949.43349  -6346130.23446  22333364.904    22333365.366    22333374.840
       220.000         166.000
   8831598.52949   6885173.88046  22179898.406    22179897.966    22179908.416
       220.000         172.000
  -9758793.37449  -7586921.44047  20613011.439    20613011.333    20613020.486
       239.000         202.000
 00  5 25 16 19 29.9950000  0  6G24G 5G 4G30G 7G 9
 -27262162.64849 -21217688.08947  18774553.137    18774553.116    18774561.810
       233.000         202.000
 -27374014.31749 -21318673.07447  19594741.243    19594740.846    19594748.773
       237.000         201.000
 -13728647.76649 -10681115.49747  19709632.358    19709632.654    19709639.999
       240.000         207.000
  -8281013.73549  -6436569.91246  22311278.659    22311279.070    22311288.397
       222.000         165.000
   8882125.46049   6924545.41446  22189513.531    22189513.046    22189523.472
       221.000         172.000
  -9708181.60649  -7547483.81347  20622642.651    20622642.518    20622651.729
       238.000         201.000
 00  5 25 16 19 59.9950000  0  6G24G 5G 4G30G 7G 9
 -27294399.95949 -21242808.07447  18768418.604    18768418.587    18768427.245
       233.000         202.000
 -27449861.53749 -21377774.80147  19580307.933    19580307.557    19580315.502
       236.000         200.000
 -13686198.81649 -10648038.41747  19717710.140    19717710.462    19717717.839
       240.000         207.000
  -8397025.43949  -6526968.59246  22289202.298    22289202.713    22289212.016
       220.000         165.000
   8932680.07249   6963938.48446  22199133.924    22199133.399    22199143.905
       221.000         173.000
  -9657205.49549  -7507762.28047  20632343.182    20632343.042    20632352.208
       239.000         201.000
 00  5 25 16 20 29.9950000  0  6G24G 5G 4G30G 7G 9
 -27326130.36049 -21267533.06447  18762380.480    18762380.493    18762389.182
       233.000         202.000
 -27525416.33749 -21436648.67147  19565930.310    19565929.918    19565937.862
       236.000         200.000
 -13643344.74049 -10614645.65947  19725865.043    19725865.327    19725872.760
       239.000         206.000
  -8512993.53549  -6617333.29046  22267134.187    22267134.639    22267144.027
       218.000         164.000
   8983251.12249   7003344.37546  22208757.464    22208756.941    22208767.430
       222.000         174.000
  -9605878.63449  -7467767.44047  20642110.442    20642110.300    20642119.414
       238.000         200.000
 00  5 25 16 20 59.9950000  0  6G24G 5G 4G30G 7G 9
 -27357332.67149 -21291846.54747  18756442.972    18756442.956    18756451.602
       234.000         202.000
 -27600655.22949 -21495276.37647  19551612.808    19551612.442    19551620.359
       236.000         200.000
 -13600066.31249 -10580922.23847  19734100.649    19734100.968    19734108.397
       239.000         206.000
  -8628894.72749  -6707645.85145  22245078.915    22245079.337    22245088.878
       217.000         162.000
   9033860.01549   7042779.76446  22218388.319    22218387.713    22218398.025
       221.000         172.000
  -9554182.25349  -7427484.65947  20651947.976    20651947.857    20651956.967
       238.000         200.000
 00  5 25 16 21 29.9950000  0  7G24G 5G 4G30G 7G 6G 9
 -27388000.10349 -21315743.24647  18750607.261    18750607.172    18750615.750
       233.000         202.000
 -27675569.16649 -21553650.86747  19537357.145    19537356.765    19537364.676
       236.000         200.000
 -13556359.10249 -10546864.70947  19742417.923    19742418.215    19742425.640
       240.000         206.000
  -8744720.06249  -6797899.30946  22223038.057    22223038.370    22223048.058
       216.000         163.000
   9084513.76749   7082250.11346  22228027.519    22228026.966    22228037.279
       220.000         171.000
  -1642064.56859  -1263013.54155  23939953.243    23939953.434    23939967.944
       200.000         137.000
  -9502111.99549  -7386910.54047  20661856.667    20661856.564    20661865.691
       238.000         200.000
 00  5 25 16 21 59.9950000  0  7G24G 5G 4G30G 7G 6G 9
 -27418128.75849 -21339220.11747  18744873.869    18744873.851    18744882.426
       233.000         202.000
 -27750151.79349 -21611767.19847  19523164.501    19523164.130    19523172.094
       236.000         200.000
 -13512221.21249 -10512471.58047  19750817.141    19750817.414    19750824.810
       238.000         206.000
  -8860463.58649  -6888089.00845  22201012.638    22201012.896    22201022.876
       215.000         160.000
   9135216.62249   7121758.69646  22237676.068    22237675.533    22237685.872
       219.000         167.000
  -1734495.86949  -1335037.89745  23922364.096    23922364.280    23922378.680
       200.000         140.000
  -9449666.15249  -7346043.76947  20671836.832    20671836.725    20671845.922
       238.000         200.000
 00  5 25 16 22 29.9950000  0  7G24G 5G 4G30G 7G 6G 9
 -27447717.32149 -21362276.12447  18739243.397    18739243.371    18739251.900
       233.000         201.000
 -27824399.11249 -21669622.25147  19509035.672    19509035.305    19509043.296
       236.000         200.000
 -13467653.46149 -10477743.50447  19759298.126    19759298.388    19759305.797
       239.000         206.000
  -8976121.40349  -6978211.95145  22179003.538    22179003.835    22179013.897
       215.000         159.000
   9185970.07049   7161306.70746  22247334.294    22247333.633    22247344.113
       215.000         166.000
  -1826882.73849  -1407027.61645  23904783.300    23904783.570    23904797.843
       204.000         140.000
  -9396845.78049  -7304885.14447  20681888.310    20681888.203    20681897.437
       237.000         200.000
 00  5 25 16 22 59.9950000  0  7G24G 5G 4G30G 7G 6G 9
 -27476790.33349 -21384930.41447  18733710.986    18733710.949    18733719.478
       233.000         202.000
 -27898333.19549 -21727233.21647  19494966.455    19494966.092    19494974.080
       236.000         200.000
 -13422682.30649 -10442701.08347  19767855.873    19767856.114    19767863.556
       239.000         206.000
  -9091715.76849  -7068285.45645  22157006.617    22157006.948    22157016.996
       218.000         159.000
   9236750.07949   7200875.42346  22256997.484    22256996.932    22257007.384
       217.000         165.000
  -1919249.12149  -1479001.33145  23887206.790    23887206.972    23887221.042
       208.000         144.000
  -9343677.50949  -7263455.43347  20692005.847    20692005.743    20692015.158
       237.000         199.000
 00  5 25 16 23 29.9950000  0  7G24G 5G 4G30G 7G 6G 9
 -27505335.02449 -21407173.02747  18728279.114    18728279.074    18728287.627
       233.000         202.000
 -27971938.88149 -21784588.29447  19480959.735    19480959.385    19480967.399
       237.000         200.000
 -13377297.22649 -10407336.12347  19776492.396    19776492.631    19776500.107
       239.000         207.000
  -9207231.39049  -7158297.61545  22135024.744    22135025.107    22135034.900
       218.000         160.000
   9287569.76349   7240475.04946  22266668.079    22266667.512    22266678.182
       216.000         164.000
  -2011582.00849  -1550948.94045  23869636.484    23869636.457    23869650.822
       209.000         148.000
  -9290150.68949  -7221746.33447  20702191.593    20702191.561    20702201.150
       238.000         199.000
 00  5 25 16 23 59.9950000  0  7G24G 5G 4G30G 7G 6G 9
 -27533342.15049 -21428996.74547  18722949.564    18722949.504    18722958.050
       233.000         201.000
 -28045204.61349 -21841678.46647  19467017.674    19467017.319    19467025.363
       237.000         201.000
 -13331490.90949 -10371642.92747  19785209.034    19785209.288    19785216.838
       238.000         207.000
  -9322656.77949  -7248239.43745  22113060.033    22113060.421    22113069.947
       219.000         161.000
   9338438.75249   7280113.08045  22276348.100    22276347.601    22276358.151
       215.000         160.000
  -2103872.16149  -1622863.23145  23852074.213    23852074.208    23852088.562
       210.000         146.000
  -9236258.46949  -7179752.51147  20712447.010    20712446.973    20712456.650
       238.000         199.000
 00  5 25 16 24 29.9950000  0  7G24G 5G 4G30G 7G 6G 9
 -27560816.87349 -21450405.61147  18717721.302    18717721.249    18717729.759
       233.000         201.000
 -28118132.83149 -21898505.65047  19453139.846    19453139.524    19453147.576
       238.000         200.000
 -13285270.61949 -10335627.15747  19794004.490    19794004.757    19794012.329
       240.000         206.000
  -9437994.81849  -7338113.17945  22091111.993    22091112.263    22091121.754
       218.000         162.000
   9389352.28049   7319785.83145  22286036.508    22286036.103    22286046.710
       213.000         160.000
  -2196124.11749  -1694747.72745  23834519.105    23834519.047    23834533.616
       208.000         146.000
  -9182008.38849  -7137479.83747  20722770.640    20722770.598    20722780.259
       239.000         198.000
 00  5 25 16 24 59.9950000  0  8G24G 5G 4G30G 7G10G 6G 9
 -27587765.00949 -21471404.14947  18712593.183    18712593.121    18712601.680
       232.000         200.000
 -28190726.89849 -21955072.46047  19439325.674    19439325.356    19439333.391
       238.000         201.000
 -13238644.10149 -10299294.84947  19802877.287    19802877.491    19802885.066
       239.000         206.000
  -9553248.68949  -7427921.33346  22069179.885    22069180.147    22069189.596
       219.000         165.000
   9440305.04149   7359489.15046  22295732.573    22295732.220    22295742.780
       215.000         164.000
   -225984.77355                  22619317.328                    22619332.640
       214.000         162.000
  -2288343.52149  -1766606.85045  23816970.056    23816969.885    23816984.650
       206.000         144.000
  -9127408.31849  -7094934.44147  20733160.897    20733160.792    20733170.373
       239.000         198.000
 00  5 25 16 25 29.9950000  0  8G24G 5G 4G30G 7G10G 6G 9
 -27614188.19349 -21491993.63147  18707565.012    18707564.964    18707573.487
       232.000         200.000
 -28262985.82349 -22011378.10847  19425575.228    19425574.918    19425582.971
       239.000         201.000
 -13191614.90249 -10262648.76347  19811826.684    19811826.924    19811834.429
       240.000         206.000
  -9668417.44649  -7517663.15146  22047264.008    22047264.268    22047273.673
       219.000         166.000
   9491295.87349   7399222.14546  22305436.082    22305435.589    22305446.223
       218.000         166.000
   -421980.71449   -317255.75945  22597027.159    22597026.814    22597043.086
       209.000         158.000
  -2380531.38149  -1838441.38145  23799427.080    23799426.997    23799441.537
       207.000         147.000
  -9072461.98249  -7052119.22847  20743616.939    20743616.848    20743626.397
       239.000         198.000
 00  5 25 16 25 59.9950000  0  8G24G 5G 4G30G 7G10G 6G 9
 -27640078.43549 -21512167.83347  18702638.254    18702638.216    18702646.686
       232.000         200.000
 -28334899.03849 -22067414.37747  19411890.569    19411890.257    19411898.337
       239.000         202.000
 -13144177.28949 -10225684.42747  19820853.785    19820854.014    19820861.501
       239.000         205.000
  -9783490.78349  -7607330.62046  22025366.214    22025366.440    22025375.956
       220.000         167.000
   9542333.20249   7438991.37346  22315148.490    22315147.969    22315158.470
       217.000         164.000
   -539101.80149   -408518.64945  22574739.982    22574739.321    22574756.263
       207.000         152.000
  -2472679.58349  -1910244.98645  23781891.861    23781891.741    23781906.359
       210.000         149.000
  -9017164.02849  -7009030.02247  20754139.832    20754139.725    20754149.352
       237.000         197.000
 00  5 25 16 26 29.9950000  0  8G24G 5G 4G30G 7G10G 6G 9
 -27665442.92049 -21531932.34947  18697811.527    18697811.482    18697820.004
       233.000         200.000
 -28406471.14849 -22123184.84847  19398270.879    19398270.580    19398278.653
       239.000         202.000
 -13096340.31849 -10188408.89747  19829956.884    19829957.142    19829964.573
       239.000         205.000
  -9898473.32249  -7696927.34546  22003485.770    22003485.961    22003495.465
       222.000         167.000
   9593410.34049   7478791.62846  22324868.299    22324867.713    22324878.295
       218.000         166.000
   -656215.78759   -499776.07655  22552453.611    22552452.723    22552470.144
       210.000         155.000
  -2564794.80149  -1982022.93145  23764363.009    23764362.809    23764377.454
       213.000         150.000
  -8961523.42949  -6965673.82447  20764727.926    20764727.826    20764737.415
       238.000         197.000
 00  5 25 16 26 59.9950000  0  8G24G 5G 4G30G 7G10G 6G 9
 -27690261.24449 -21551271.29347  18693088.714    18693088.682    18693097.278
       232.000         200.000
 -28477679.18449 -22178671.62947  19384720.522    19384720.183    19384728.240
       239.000         203.000
 -13048085.57849 -10150807.84647  19839139.484    19839139.760    19839147.233
       240.000         206.000
 -10013342.05449  -7786435.38646  21981626.936    21981627.206    21981636.705
       223.000         169.000
   9644548.35449   7518639.32546  22334599.560    22334598.975    22334609.816
       218.000         167.000
   -773298.93949   -591009.42945  22530173.409    22530172.469    22530189.359
       206.000         153.000
  -2656856.04549  -2053758.81945  23746844.433    23746844.330    23746858.810
       211.000         151.000
  -8905521.90349  -6922036.38347  20775384.764    20775384.678    20775394.192
       238.000         197.000
 00  5 25 16 27 29.9950000  0  8G24G 5G 4G30G 7G10G 6G 9
 -27714565.75649 -21570209.86547  18688463.716    18688463.694    18688472.273
       232.000         200.000
 -28548553.03349 -22233897.99947  19371233.754    19371233.396    19371241.418
       239.000         203.000
 -12999447.30349 -10112907.93447  19848395.080    19848395.367    19848402.853
       240.000         207.000
 -10128126.57149  -7875877.81946  21959784.222    21959784.493    21959793.863
       223.000         167.000
   9695715.50249   7558509.75546  22344336.352    22344335.848    22344346.924
       220.000         167.000
   -890379.77949   -682240.98745  22507893.674    22507892.724    22507909.442
       211.000         153.000
  -2748895.25749  -2125477.51345  23729329.826    23729329.794    23729344.116
       210.000         149.000
  -8849193.93649  -6878144.58047  20786103.751    20786103.673    20786113.181
       238.000         197.000
 00  5 25 16 27 59.9950000  0  8G24G 5G 4G30G 7G10G 6G 9
 -27738336.34449 -21588732.39647  18683940.286    18683940.278    18683948.841
       232.000         199.000
 -28619069.97949 -22288846.27547  19357814.925    19357814.553    19357822.500
       240.000         203.000
 -12950407.39649 -10074695.05547  19857727.105    19857727.395    19857734.878
       239.000         206.000
 -10242804.47249  -7965237.17846  21937961.656    21937961.978    21937971.141
       222.000         163.000
   9746932.19249   7598418.76046  22354082.753    22354082.235    22354093.383
       219.000         167.000
  -1007434.71649   -773452.36645  22485618.651    22485617.893    22485634.406
       209.000         156.000
  -2840892.02249  -2197163.15845  23711823.234    23711823.041    23711837.478
       210.000         147.000
  -8792521.74649  -6833984.54347  20796888.198    20796888.149    20796897.661
       237.000         197.000
 00  5 25 16 28 29.9950000  0  8G24G 5G 4G30G 7G10G 6G 9
 -27761598.87949 -21606859.03747  18679513.599    18679513.595    18679522.098
       233.000         199.000
 -28689253.06949 -22343534.39547  19344459.579    19344459.217    19344467.108
       240.000         204.000
 -12900993.52449 -10036190.77847  19867130.256    19867130.590    19867138.052
       241.000         207.000
 -10357398.82049  -8054531.41946  21916155.003    21916155.319    21916164.276
       222.000         163.000
   9798173.25349   7638346.75846  22363833.648    22363833.087    22363844.284
       219.000         165.000
  -1124485.69449   -864660.64545  22463344.328    22463343.742    22463360.252
       208.000         154.000
  -2932871.51149  -2268835.34545  23694319.932    23694319.829    23694334.135
       212.000         149.000
  -8735533.58449  -6789578.29247  20807732.722    20807732.703    20807742.358
       237.000         197.000
 00  5 25 16 28 59.9950000  0  8G24G 5G 4G30G 7G10G 6G 9
 -27784371.52649 -21624603.94247  18675180.242    18675180.174    18675188.556
       232.000         200.000
 -28759117.57549 -22397974.26647  19331164.834    19331164.482    19331172.374
       240.000         204.000
 -12851225.81049  -9997410.78347  19876600.819    19876601.111    19876608.559
       240.000         206.000
 -10471924.79949  -8143772.37946  21894361.336    21894361.604    21894370.580
       222.000         167.000
   9849421.43249   7678280.25846  22373585.751    22373585.241    22373596.516
       216.000         164.000
  -1241547.20449   -955877.12445  22441068.139    22441067.469    22441083.983
       211.000         156.000
  -3024851.11749  -2340507.60045  23676816.800    23676816.751    23676830.569
       213.000         151.000
  -8678249.23849  -6744941.25747  20818633.618    20818633.608    20818643.331
       237.000         196.000
 00  5 25 16 29 29.9950000  0  8G24G 5G 4G30G 7G10G 6G 9
 -27806631.34349 -21641949.24447  18670944.299    18670944.276    18670952.636
       232.000         199.000
 -28828638.33149 -22452146.28547  19317935.508    19317935.120    19317943.039
       239.000         204.000
 -12801083.18649  -9958338.65247  19886142.660    19886142.964    19886150.360
       240.000         205.000
 -10586357.11949  -8232940.35246  21872585.530    21872585.785    21872594.771
       225.000         168.000
   9900700.08249   7718237.52745  22383343.755    22383343.381    22383354.535
       219.000         161.000
  -1358592.63649  -1047081.07645  22418794.921    22418794.152    22418810.716
       212.000         155.000
  -3116807.87149  -2412162.09045  23659318.049    23659317.891    23659331.795
       213.000         153.000
  -8620648.14549  -6700057.40347  20829594.771    20829594.773    20829604.516
       236.000         196.000
 00  5 25 16 29 59.9940000  0  8G24G 5G 4G30G 7G10G 6G 9
 -27828368.70149 -21658887.44147  18666807.743    18666807.735    18666816.145
       231.000         199.000
 -28897801.05649 -22506039.31847  19304774.238    19304773.865    19304781.805
       239.000         204.000
 -12750560.36649  -9918970.25847  19895756.923    19895757.218    19895764.556
       241.000         205.000
 -10700680.20949  -8322023.21846  21850830.508    21850830.764    21850839.834
       224.000         171.000
   9952017.14949   7758224.72846  22393109.320    22393108.795    22393119.846
       218.000         164.000
  -1475605.18449  -1138259.40445  22396527.816    22396527.158    22396543.828
       211.000         155.000
  -3208728.99449  -2483788.83945  23641825.982    23641825.967    23641839.630
       213.000         154.000
  -8562725.31249  -6654922.84347  20840617.273    20840617.241    20840626.976
       237.000         196.000
 00  5 25 16 30 29.9940000  0  8G24G 5G 4G30G 7G10G 6G 9
 -27849567.86249 -21675406.27347  18662773.666    18662773.656    18662782.092
       232.000         200.000
 -28966590.37649 -22559641.38747  19291684.041    19291683.712    19291691.641
       240.000         204.000
 -12699638.53949  -9879290.95447  19905447.099    19905447.379    19905454.649
       240.000         204.000
 -10814881.65149  -8411011.28946  21829098.607    21829098.937    21829108.146
       224.000         171.000
  10003393.99349   7798258.49145  22402886.054    22402885.446    22402896.585
       218.000         161.000
  -1592571.83249  -1229401.94445  22374269.615    22374268.941    22374285.786
       212.000         157.000
  -3300602.70449  -2555378.62645  23624343.067    23624342.875    23624356.501
       210.000         155.000
  -8504461.89349  -6609522.89547  20851704.554    20851704.507    20851714.169
       237.000         196.000
 00  5 25 16 30 59.9940000  0  8G24G 5G 4G30G 7G10G 6G 9
 -27870239.35749 -21691513.92547  18658840.045    18658840.009    18658848.424
       232.000         200.000
 -29035012.59749 -22612957.40447  19278663.778    19278663.421    19278671.331
       240.000         205.000
 -12648332.49149  -9839312.25147  19915210.323    19915210.607    19915217.870
       240.000         204.000
 -10928966.23149  -8499908.29846  21807389.047    21807389.363    21807398.752
       225.000         172.000
  10054818.52949   7838329.43446  22412671.850    22412671.279    22412682.451
       220.000         164.000
  -1709496.18849  -1320511.56845  22352019.370    22352018.721    22352035.858
       211.000         155.000
  -3392436.77849  -2626937.52645  23606867.489    23606867.286    23606881.161
       212.000         155.000
  -8445873.11649  -6563869.41347  20862853.701    20862853.675    20862863.369
       237.000         197.000
 00  5 25 16 31 29.9940000  0  8G24G 5G 4G30G 7G10G 6G 9
 -27890405.85949 -21707228.07847  18655002.522    18655002.496    18655010.867
       233.000         200.000
 -29103087.65249 -22666002.90847  19265709.604    19265709.213    19265717.053
       240.000         205.000
 -12596666.69249  -9799053.22347  19925042.001    19925042.296    19925049.574
       239.000         204.000
 -11042953.68249  -8588729.64046  21785697.906    21785698.277    21785707.732
       227.000         170.000
  10106268.59049   7878420.28646  22422462.658    22422462.020    22422473.098
       220.000         166.000
  -1826396.77449  -1411602.68445  22329773.655    22329773.121    22329790.151
       211.000         154.000
  -3484252.95249  -2698482.51045  23589395.340    23589395.224    23589408.943
       206.000         152.000
  -8386983.66549  -6517981.64747  20874059.992    20874059.989    20874069.889
       237.000         196.000
 00  5 25 16 31 59.9940000  0  8G24G 5G 4G30G 7G10G 6G 9
 -27910035.80949 -21722524.13547  18651267.101    18651267.075    18651275.404
       232.000         199.000
 -29170781.24549 -22718751.16147  19252827.933    19252827.556    19252835.432
       240.000         205.000
 -12544611.59249  -9758490.84047  19934947.762    19934948.062    19934955.354
       240.000         203.000
 -11156809.46049  -8677448.41246  21764031.895    21764032.276    21764041.680
       227.000         168.000
  10157776.61149   7918556.23746  22432264.299    22432263.725    22432274.988
       218.000         164.000
  -1943238.45349  -1502647.86245  22307539.133    22307538.510    22307555.554
       214.000         155.000
  -3576019.16849  -2769988.55345  23571932.622    23571932.505    23571946.190
       209.000         151.000
  -8327763.96649  -6471836.53547  20885329.159    20885329.181    20885339.171
       237.000         196.000
 00  5 25 16 32 29.9940000  0  8G24G 5G 4G30G 7G10G 6G 9
 -27929138.81749 -21737409.59247  18647631.891    18647631.844    18647640.198
       232.000         199.000
 -29238100.20049 -22771207.49347  19240017.590    19240017.194    19240025.064
       240.000         205.000
 -12492178.47649  -9717633.90047  19944925.474    19944925.756    19944933.073
       240.000         203.000
 -11270540.70349  -8766070.12346  21742389.569    21742389.998    21742399.178
       226.000         168.000
  10209333.67449   7958730.47446  22442075.266    22442074.790    22442086.057
       216.000         163.000
  -2060026.73749  -1593651.47045  22285314.906    22285314.407    22285330.920
       214.000         155.000
  -3667744.60849  -2841462.81145  23554477.613    23554477.610    23554491.461
       208.000         155.000
  -8268225.80149  -6425443.27347  20896659.076    20896659.026    20896669.063
       237.000         197.000
 00  5 25 16 32 59.9940000  0  8G24G 5G 4G30G 7G10G 6G 9
 -27947711.83849 -21751882.08447  18644097.473    18644097.418    18644105.857
       231.000         199.000
 -29305038.71149 -22823367.37447  19227279.603    19227279.235    19227287.083
       240.000         205.000
 -12439366.09049  -9676481.43047  19954975.361    19954975.651    19954983.005
       240.000         204.000
 -11384141.13049  -8854589.90046  21720772.060    21720772.523    21720781.651
       227.000         171.000
  10260943.81549   7998946.03446  22451896.371    22451895.922    22451907.383
       217.000         166.000
  -2176754.70249  -1684608.03945  22263102.112    22263101.531    22263118.002
       211.000         156.000
  -3759425.41349  -2912902.31245  23537031.170    23537031.309    23537045.121
       208.000         153.000
  -8208367.97049  -6378800.92947  20908049.803    20908049.757    20908059.790
       237.000         197.000
 00  5 25 16 33 29.9940000  0  8G24G 5G 4G30G 7G10G 6G 9
 -27965773.22549 -21765955.89647  18640660.444    18640660.454    18640668.886
       233.000         200.000
 -29371612.10549 -22875242.74647  19214611.093    19214610.706    19214618.607
       240.000         205.000
 -12386194.31449  -9635048.91747  19965093.716    19965093.970    19965101.356
       240.000         204.000
 -11497626.03949  -8943019.63746  21699176.548    21699177.010    21699186.180
       227.000         174.000
  10312589.54449   8039189.35246  22461724.236    22461723.870    22461735.492
       217.000         167.000
  -2293437.01149  -1775529.00445  22240897.850    22240897.269    22240913.849
       212.000         156.000
  -3851079.10949  -2984320.61445  23519590.262    23519590.202    23519603.865
       208.000         151.000
  -8148210.67749  -6331925.23247  20919497.503    20919497.444    20919507.397
       236.000         196.000
 00  5 25 16 33 59.9940000  0  8G24G 5G 4G30G 7G10G 6G 9
 -27983325.59549 -21779633.06647  18637320.388    18637320.379    18637328.801
       233.000         200.000
 -29437820.25449 -22926833.51347  19202012.043    19202011.698    19202019.644
       240.000         205.000
 -12332667.86149  -9593340.04147  19975279.453    19975279.733    19975287.189
       239.000         203.000
 -11610995.36149  -9031359.31346  21677603.006    21677603.489    21677612.732
       229.000         178.000
  10364269.05649   8079458.97746  22471558.761    22471558.300    22471569.899
       219.000         169.000
  -2410071.94149  -1866413.08845  22218702.897    22218702.247    22218718.696
       216.000         156.000
  -3942707.60949  -3055719.35845  23502153.851    23502153.873    23502167.597
       208.000         153.000
  -8087758.62249  -6284819.86047  20931001.217    20931001.201    20931011.134
       238.000         197.000
 00  5 25 16 34 29.9940000  0  8G24G 5G 4G30G 7G10G 6G 9
 -28000344.50949 -21792894.56247  18634081.774    18634081.763    18634090.178
       232.000         199.000
 -29503635.88149 -22978118.42247  19189487.755    19189487.403    19189495.376
       240.000         205.000
 -12278763.72749  -9551336.86847  19985537.117    19985537.390    19985544.856
       239.000         203.000
 -11724221.53649  -9119587.45046  21656056.833    21656057.268    21656066.440
       229.000         178.000
  10416007.62449   8119774.61646  22481404.438    22481403.930    22481415.626
       219.000         170.000
  -2526631.19649  -1957238.21645  22196522.361    22196521.677    22196537.979
       216.000         158.000
  -4034285.80749  -3127078.88445  23484727.121    23484727.187    23484740.818
       209.000         153.000
  -8026989.56949  -6237467.46747  20942565.395    20942565.330    20942575.232
       238.000         197.000
 00  5 25 16 34 59.9940000  0  8G24G 5G 4G30G 7G10G 6G 9
 -28016845.47449 -21805752.46147  18630941.739    18630941.718    18630950.100
       232.000         199.000
 -29569071.50449 -23029107.22147  19177035.787    19177035.388    19177043.388
       238.000         204.000
 -12224499.34749  -9509052.98347  19995863.285    19995863.554    19995871.045
       238.000         202.000
 -11837316.87449  -9207713.63746  21634535.515    21634535.956    21634544.967
       230.000         178.000
  10467790.75449   8160124.98146  22491258.616    22491258.055    22491269.745
       216.000         166.000
  -2643126.25649  -2048013.32045  22174353.924    22174353.261    22174369.545
       214.000         160.000
  -4125828.27849  -3198410.53945  23467307.066    23467307.005    23467320.780
       208.000         151.000
  -7965920.79749  -6189881.53347  20954186.514    20954186.424    20954196.307
       239.000         197.000
 00  5 25 16 35 29.9940000  0  8G24G 5G 4G30G 7G10G 6G 9
 -28032809.62749 -21818192.06447  18627903.854    18627903.861    18627912.194
       232.000         199.000
 -29634105.62549 -23079783.15947  19164660.126    19164659.745    19164667.803
       238.000         204.000
 -12169857.44049  -9466474.92047  20006261.314    20006261.560    20006269.102
       238.000         202.000
 -11950259.77649  -9295721.04246  21613043.241    21613043.635    21613052.389
       229.000         177.000
  10519638.20149   8200525.41446  22501124.988    22501124.495    22501135.944
       217.000         165.000
  -2759534.14549  -2138720.49645  22152202.142    22152201.472    22152217.656
       217.000         162.000
  -4217315.37049  -3269699.07145  23449897.425    23449897.477    23449911.276
       207.000         149.000
  -7904535.40349  -6142048.88047  20965867.857    20965867.793    20965877.673
       238.000         197.000
 00  5 25 16 35 59.9940000  0  8G24G 5G 4G30G 7G10G 6G 9
 -28048227.19449 -21830205.75947  18624970.019    18624970.001    18624978.306
       232.000         199.000
 -29698725.68049 -23130136.44847  19152363.278    19152362.922    19152370.999
       237.000         204.000
 -12114829.99949  -9423596.44047  20016732.671    20016732.951    20016740.493
       239.000         203.000
 -12063037.40949  -9383599.67346  21591582.335    21591582.707    21591591.268
       230.000         177.000
  10571560.53349   8240984.22645  22511005.635    22511005.103    22511016.311
       216.000         162.000
  -2875841.14849  -2229349.05646  22130069.497    22130068.785    22130084.884
       212.000         163.000
  -4308736.86049  -3340936.47045  23432500.314    23432500.449    23432513.974
       209.000         147.000
  -7842825.68449  -6093963.50447  20977610.884    20977610.820    20977620.815
       236.000         196.000
 00  5 25 16 36 29.9940000  0  8G24G 5G 4G30G 7G10G 6G 9
 -28063082.71449 -21841781.49347  18622143.126    18622143.117    18622151.389
       233.000         200.000
 -29762913.26749 -23180152.74947  19140148.757    19140148.416    19140156.461
       237.000         204.000
 -12059403.20849  -9380406.77247  20027280.055    20027280.378    20027287.904
       240.000         204.000
 -12175631.16149  -9471335.02546  21570156.380    21570156.793    21570165.148
       231.000         177.000
  10623574.26449   8281514.22846  22520903.582    22520903.140    22520914.334
       216.000         165.000
  -2992027.59749  -2319883.69645  22107959.587    22107958.988    22107974.846
       214.000         159.000
  -4400076.31349  -3412109.94145  23415119.053    23415119.106    23415132.726
       212.000         149.000
  -7780778.30649  -6045615.00847  20989418.154    20989418.117    20989428.111
       237.000         196.000
 00  5 25 16 36 59.9940000  0  8G24G 5G 4G30G 7G10G 6G 9
 -28077420.85649 -21852954.07047  18619414.710    18619414.700    18619422.969
       233.000         200.000
 -29826709.71849 -23229864.26747  19128008.686    19128008.335    19128016.366
       237.000         203.000
 -12003623.10349  -9336941.79647  20037894.711    20037895.034    20037902.571
       239.000         203.000
 -12288082.20749  -9558959.17646  21548757.614    21548758.027    21548766.238
       230.000         177.000
  10675636.02849   8322081.70646  22530810.910    22530810.368    22530821.636
       216.000         169.000
  -3108133.72549  -2410355.72245  22085865.246    22085864.555    22085880.209
       215.000         161.000
  -4491377.22849  -3483253.39945  23397744.973    23397745.014    23397758.723
       212.000         149.000
  -7718439.35949  -5997039.32447  21001280.978    21001280.882    21001290.958
       236.000         196.000
 00  5 25 16 37 29.9940000  0  8G24G 5G 4G30G 7G10G 6G 9
 -28091247.12749 -21863727.79347  18616783.679    18616783.650    18616791.953
       232.000         199.000
 -29890117.82649 -23279273.17547  19115942.466    19115942.128    19115950.176
       237.000         204.000
 -11947497.18549  -9293207.35747  20048575.152    20048575.481    20048583.007
       239.000         203.000
 -12400393.32149  -9646474.29046  21527385.483    21527385.860    21527394.094
       230.000         179.000
  10727740.97149   8362682.78746  22540726.384    22540725.804    22540737.211
       216.000         169.000
  -3224161.40549  -2500766.64846  22063785.636    22063784.989    22063800.502
       217.000         164.000
  -4582644.50749  -3554370.64145  23380377.211    23380377.087    23380390.957
       213.000         149.000
  -7655816.56849  -5948242.47447  21013197.742    21013197.662    21013207.880
       236.000         195.000
 00  5 25 16 37 59.9940000  0  8G24G 5G 4G30G 7G10G 6G 9
 -28104554.42049 -21874097.11947  18614251.373    18614251.351    18614259.677
       232.000         200.000
 -29953127.61249 -23328371.70747  19103952.084    19103951.744    19103959.849
       237.000         203.000
 -11891019.78549  -9249199.04247  20059322.480    20059322.821    20059330.374
       240.000         203.000
 -12512554.42949  -9733872.51446  21506041.848    21506042.249    21506050.526
       231.000         181.000
  10779897.56249   8403324.13446  22550651.503    22550651.030    22550662.521
       212.000         165.000
  -3340099.30249  -2591107.59746  22041723.397    22041722.703    22041737.947
       219.000         166.000
  -4673870.26049  -3625455.53645  23363017.369    23363017.325    23363031.053
       215.000         151.000
  -7592904.48449  -5899220.18747  21025169.600    21025169.550    21025179.643
       236.000         194.000
 00  5 25 16 38 29.9940000  0  8G24G 5G 4G30G 7G10G 6G 9
 -28117346.87249 -21884065.26347  18611817.077    18611817.054    18611825.377
       232.000         199.000
 -30015740.00549 -23377160.58247  19092037.302    19092036.976    19092045.091
       237.000         203.000
 -11834196.68049  -9204921.33947  20070135.653    20070135.955    20070143.512
       240.000         203.000
 -12624565.97149  -9821154.17346  21484726.699    21484727.118    21484735.432
       231.000         182.000
  10832102.51949   8444003.13946  22560585.781    22560585.299    22560597.055
       207.000         163.000
  -3455946.88149  -2681378.18546  22019678.304    22019677.552    22019692.531
       218.000         165.000
  -4765057.52649  -3696510.39745  23345665.133    23345664.985    23345678.520
       217.000         149.000
  -7529709.28949  -5849977.30647  21037195.279    21037195.180    21037205.313
       234.000         192.000
 00  5 25 16 38 59.9940000  0  8G24G 5G 4G30G 7G10G 6G 9
 -28129635.78049 -21893641.04447  18609478.579    18609478.540    18609486.880
       232.000         200.000
 -30077963.66049 -23425646.54947  19080196.556    19080196.192    19080204.343
       237.000         203.000
 -11777040.89649  -9160384.41247  20081012.109    20081012.364    20081019.902
       240.000         203.000
 -12736436.03349  -9908325.60546  21463438.570    21463438.979    21463447.219
       231.000         182.000
  10884345.67049   8484711.95045  22570527.093    22570526.741    22570538.819
       208.000         161.000
  -3571711.75449  -2771584.32646  21997648.946    21997648.094    21997662.952
       217.000         164.000
  -4856216.95249  -3767543.62745  23328317.902    23328317.844    23328331.229
       215.000         150.000
  -7466244.20749  -5800524.12847  21049272.301    21049272.239    21049282.401
       235.000         192.000
 00  5 25 16 39 29.9940000  0  8G24G 5G 4G30G 7G10G 6G 9
 -28141419.29549 -21902823.00847  18607236.206    18607236.208    18607244.561
       232.000         200.000
 -30139793.44849 -23473825.60647  19068430.764    19068430.391    19068438.532
       237.000         203.000
 -11719551.81249  -9115587.76247  20091951.972    20091952.240    20091959.776
       239.000         203.000
 -12848159.17549  -9995382.55646  21442178.322    21442178.701    21442186.939
       231.000         181.000
  10936629.94649   8525452.75645  22580476.824    22580476.277    22580488.359
       210.000         161.000
  -3687387.79149  -2861721.23546  21975636.198    21975635.371    21975650.356
       215.000         164.000
  -4947345.48249  -3838552.74645  23310976.559    23310976.541    23310990.095
       214.000         154.000
  -7402509.13849  -5750860.57547  21061400.783    21061400.686    21061410.785
       233.000         190.000
 00  5 25 16 39 59.9940000  0  8G24G 5G 4G30G 7G10G 6G 9
 -28152681.70649 -21911598.91347  18605093.113    18605093.098    18605101.428
       232.000         200.000
 -30201210.72149 -23521683.22147  19056743.417    19056743.046    19056751.227
       237.000         203.000
 -11661715.47249  -9070520.52447  20102957.918    20102958.176    20102965.748
       240.000         204.000
 -12959717.14249 -10082310.79846  21420949.505    21420949.858    21420958.092
       230.000         181.000
  10988972.27849   8566238.80745  22590437.635    22590436.967    22590448.929
       208.000         161.000
  -3802954.58549  -2951773.04746  21953644.280    21953643.548    21953658.587
       216.000         166.000
  -5038426.45649  -3909524.81545  23293644.236    23293644.207    23293658.119
       214.000         153.000
  -7338489.76049  -5700975.48547  21073583.354    21073583.265    21073593.318
       234.000         191.000
 00  5 25 16 40 29.9940000  0  8G24G 5G 4G30G 7G10G 6G 9
 -28163433.72749 -21919977.11747  18603047.019    18603047.021    18603055.429
       232.000         199.000
 -30262223.32849 -23569225.51147  19045133.095    19045132.718    19045140.934
       236.000         203.000
 -11603543.97549  -9025192.12847  20114027.627    20114027.869    20114035.500
       239.000         204.000
 -13071117.21549 -10169116.00146  21399750.643    21399751.087    21399759.338
       231.000         182.000
  11041363.03049   8607062.56045  22600407.202    22600406.635    22600418.740
       208.000         159.000
  -3918419.01649  -3041745.07646  21931672.060    21931671.267    21931686.309
       216.000         167.000
  -5129469.65649  -3980467.40645  23276319.110    23276319.065    23276332.954
       213.000         151.000
  -7274198.90949  -5650878.84747  21085817.600    21085817.504    21085827.580
       233.000         190.000
 00  5 25 16 40 59.9940000  0  8G24G 5G 4G30G 7G10G 6G 9
 -28173673.99749 -21927956.55447  18601098.388    18601098.366    18601106.767
       232.000         200.000
 -30322826.92949 -23616449.10147  19033600.570    19033600.231    19033608.455
       236.000         203.000
 -11545037.48449  -8979602.70547  20125161.116    20125161.344    20125168.983
       239.000         203.000
 -13182354.37949 -10255794.27446  21378582.910    21378583.366    21378591.602
       231.000         183.000
  11093804.71349   8647926.05045  22610386.493    22610385.995    22610398.197
       203.000         159.000
  -4033775.23249  -3131632.77146  21909720.325    21909719.621    21909734.675
       215.000         167.000
  -5220472.78649  -4051378.78845  23259001.608    23259001.604    23259015.244
       212.000         150.000
  -7209637.15349  -5600571.12647  21098103.357    21098103.278    21098113.437
       234.000         190.000
 00  5 25 16 41 29.9940000  0  8G24G 5G 4G30G 7G10G 6G 9
 -28183417.13249 -21935548.61747  18599244.362    18599244.320    18599252.711
       232.000         200.000
 -30383033.07849 -23663362.99047  19022143.723    19022143.386    19022151.574
       236.000         203.000
 -11486212.27249  -8933764.91647  20136355.216    20136355.428    20136363.129
       239.000         204.000
 -13293440.12749 -10342354.55846  21357443.999    21357444.431    21357452.691
       233.000         184.000
  11146283.94349   8688818.75346  22620372.966    22620372.571    22620384.796
       212.000         163.000
  -4149033.46949  -3221444.13446  21887787.136    21887786.467    21887801.500
       215.000         166.000
  -5311449.62349  -4122269.62645  23241689.146    23241689.097    23241702.690
       208.000         154.000
  -7144820.74449  -5550064.96747  21110437.651    21110437.578    21110447.804
       234.000         192.000
 00  5 25 16 41 59.9940000  0  8G24G 5G 4G30G 7G10G 6G 9
 -28192664.13749 -21942754.07647  18597484.713    18597484.689    18597493.069
       233.000         200.000
 -30442839.69049 -23709965.54447  19010762.907    19010762.582    19010770.755
       237.000         203.000
 -11427070.74649  -8887680.66247  20147609.447    20147609.689    20147617.455
       239.000         203.000
 -13404371.97049 -10428794.91346  21336334.417    21336334.797    21336343.023
       234.000         185.000
  11198800.85749   8729740.88146  22630367.029    22630366.498    22630378.415
       211.000         163.000
  -4264190.43849  -3311176.59246  21865873.254    21865872.599    21865887.523
       213.000         164.000
  -5402400.18549  -4193140.00745  23224381.656    23224381.686    23224395.257
       212.000         155.000
  -7079752.55449  -5499362.61747  21122819.884    21122819.756    21122830.081
       233.000         191.000
